<?xml version="1.0" encoding="UTF-8" standalone="no" ?>
<gpx xmlns="http://www.topografix.com/GPX/1/1" xmlns:xsi="http://www.w3.org/2001/XMLSchema-instance" xsi:schemaLocation="http://www.topografix.com/GPX/1/1 http://www.topografix.com/GPX/1/1/gpx.xsd" version="1.1" creator="VisuGPX - https://www.visugpx.com">
  <metadata>
    <name>Rando sauvage 35 km 2012</name>
    <desc><![CDATA[Rando sauvage 35 km 2012]]></desc>
  </metadata>
  <trk>
    <name><![CDATA[AOU-15-12 10:50:28]]></name>
    <trkseg>
      <trkpt lat="47.36136" lon="-0.0345">
        <ele>70.31</ele>
        <time>2012-08-15T07:01:20Z</time>
      </trkpt>
      <trkpt lat="47.36115" lon="-0.03439">
        <ele>70.79</ele>
        <time>2012-08-15T07:01:26Z</time>
      </trkpt>
      <trkpt lat="47.36111" lon="-0.03438">
        <ele>71.27</ele>
        <time>2012-08-15T07:01:27Z</time>
      </trkpt>
      <trkpt lat="47.36077" lon="-0.03436">
        <ele>73.68</ele>
        <time>2012-08-15T07:01:37Z</time>
      </trkpt>
      <trkpt lat="47.36062" lon="-0.03425">
        <ele>75.6</ele>
        <time>2012-08-15T07:01:42Z</time>
      </trkpt>
      <trkpt lat="47.3606" lon="-0.03422">
        <ele>76.08</ele>
        <time>2012-08-15T07:01:43Z</time>
      </trkpt>
      <trkpt lat="47.36064" lon="-0.03389">
        <ele>76.56</ele>
        <time>2012-08-15T07:01:50Z</time>
      </trkpt>
      <trkpt lat="47.3607" lon="-0.03359">
        <ele>77.52</ele>
        <time>2012-08-15T07:01:56Z</time>
      </trkpt>
      <trkpt lat="47.36076" lon="-0.03323">
        <ele>77.04</ele>
        <time>2012-08-15T07:02:02Z</time>
      </trkpt>
      <trkpt lat="47.36079" lon="-0.0331">
        <ele>78</ele>
        <time>2012-08-15T07:02:04Z</time>
      </trkpt>
      <trkpt lat="47.3608" lon="-0.03304">
        <ele>78</ele>
        <time>2012-08-15T07:02:05Z</time>
      </trkpt>
      <trkpt lat="47.36087" lon="-0.03274">
        <ele>77.52</ele>
        <time>2012-08-15T07:02:10Z</time>
      </trkpt>
      <trkpt lat="47.36088" lon="-0.03268">
        <ele>78</ele>
        <time>2012-08-15T07:02:11Z</time>
      </trkpt>
      <trkpt lat="47.36092" lon="-0.03256">
        <ele>78</ele>
        <time>2012-08-15T07:02:13Z</time>
      </trkpt>
      <trkpt lat="47.36094" lon="-0.03251">
        <ele>78</ele>
        <time>2012-08-15T07:02:14Z</time>
      </trkpt>
      <trkpt lat="47.36096" lon="-0.03233">
        <ele>78</ele>
        <time>2012-08-15T07:02:17Z</time>
      </trkpt>
      <trkpt lat="47.36103" lon="-0.03179">
        <ele>78.97</ele>
        <time>2012-08-15T07:02:26Z</time>
      </trkpt>
      <trkpt lat="47.36102" lon="-0.03173">
        <ele>78.48</ele>
        <time>2012-08-15T07:02:27Z</time>
      </trkpt>
      <trkpt lat="47.36101" lon="-0.03167">
        <ele>78.48</ele>
        <time>2012-08-15T07:02:28Z</time>
      </trkpt>
      <trkpt lat="47.361" lon="-0.03162">
        <ele>78.97</ele>
        <time>2012-08-15T07:02:29Z</time>
      </trkpt>
      <trkpt lat="47.36099" lon="-0.03157">
        <ele>78.97</ele>
        <time>2012-08-15T07:02:30Z</time>
      </trkpt>
      <trkpt lat="47.36097" lon="-0.03153">
        <ele>78.48</ele>
        <time>2012-08-15T07:02:31Z</time>
      </trkpt>
      <trkpt lat="47.36096" lon="-0.0315">
        <ele>79.45</ele>
        <time>2012-08-15T07:02:32Z</time>
      </trkpt>
      <trkpt lat="47.36094" lon="-0.03146">
        <ele>78.48</ele>
        <time>2012-08-15T07:02:33Z</time>
      </trkpt>
      <trkpt lat="47.36092" lon="-0.03142">
        <ele>79.45</ele>
        <time>2012-08-15T07:02:34Z</time>
      </trkpt>
      <trkpt lat="47.36089" lon="-0.03138">
        <ele>79.45</ele>
        <time>2012-08-15T07:02:35Z</time>
      </trkpt>
      <trkpt lat="47.36087" lon="-0.03133">
        <ele>79.45</ele>
        <time>2012-08-15T07:02:36Z</time>
      </trkpt>
      <trkpt lat="47.36084" lon="-0.03129">
        <ele>80.41</ele>
        <time>2012-08-15T07:02:37Z</time>
      </trkpt>
      <trkpt lat="47.36082" lon="-0.03124">
        <ele>80.41</ele>
        <time>2012-08-15T07:02:38Z</time>
      </trkpt>
      <trkpt lat="47.3608" lon="-0.0312">
        <ele>79.93</ele>
        <time>2012-08-15T07:02:39Z</time>
      </trkpt>
      <trkpt lat="47.36074" lon="-0.03104">
        <ele>81.37</ele>
        <time>2012-08-15T07:02:43Z</time>
      </trkpt>
      <trkpt lat="47.36068" lon="-0.03084">
        <ele>82.33</ele>
        <time>2012-08-15T07:02:48Z</time>
      </trkpt>
      <trkpt lat="47.36056" lon="-0.03062">
        <ele>83.29</ele>
        <time>2012-08-15T07:02:54Z</time>
      </trkpt>
      <trkpt lat="47.36054" lon="-0.03058">
        <ele>83.29</ele>
        <time>2012-08-15T07:02:55Z</time>
      </trkpt>
      <trkpt lat="47.36052" lon="-0.03054">
        <ele>83.77</ele>
        <time>2012-08-15T07:02:56Z</time>
      </trkpt>
      <trkpt lat="47.36049" lon="-0.03051">
        <ele>83.29</ele>
        <time>2012-08-15T07:02:57Z</time>
      </trkpt>
      <trkpt lat="47.36047" lon="-0.03048">
        <ele>83.77</ele>
        <time>2012-08-15T07:02:58Z</time>
      </trkpt>
      <trkpt lat="47.36045" lon="-0.03045">
        <ele>84.73</ele>
        <time>2012-08-15T07:02:59Z</time>
      </trkpt>
      <trkpt lat="47.36042" lon="-0.03041">
        <ele>85.69</ele>
        <time>2012-08-15T07:03:00Z</time>
      </trkpt>
      <trkpt lat="47.3603" lon="-0.03021">
        <ele>84.73</ele>
        <time>2012-08-15T07:03:06Z</time>
      </trkpt>
      <trkpt lat="47.36017" lon="-0.03002">
        <ele>85.69</ele>
        <time>2012-08-15T07:03:12Z</time>
      </trkpt>
      <trkpt lat="47.36" lon="-0.02981">
        <ele>87.62</ele>
        <time>2012-08-15T07:03:18Z</time>
      </trkpt>
      <trkpt lat="47.35982" lon="-0.02959">
        <ele>88.58</ele>
        <time>2012-08-15T07:03:25Z</time>
      </trkpt>
      <trkpt lat="47.35964" lon="-0.02937">
        <ele>88.58</ele>
        <time>2012-08-15T07:03:32Z</time>
      </trkpt>
      <trkpt lat="47.35947" lon="-0.02921">
        <ele>90.02</ele>
        <time>2012-08-15T07:03:38Z</time>
      </trkpt>
      <trkpt lat="47.35926" lon="-0.02894">
        <ele>91.46</ele>
        <time>2012-08-15T07:03:45Z</time>
      </trkpt>
      <trkpt lat="47.35905" lon="-0.02875">
        <ele>91.94</ele>
        <time>2012-08-15T07:03:52Z</time>
      </trkpt>
      <trkpt lat="47.35886" lon="-0.02861">
        <ele>92.9</ele>
        <time>2012-08-15T07:03:59Z</time>
      </trkpt>
      <trkpt lat="47.35863" lon="-0.0285">
        <ele>92.9</ele>
        <time>2012-08-15T07:04:05Z</time>
      </trkpt>
      <trkpt lat="47.35826" lon="-0.02834">
        <ele>92.42</ele>
        <time>2012-08-15T07:04:14Z</time>
      </trkpt>
      <trkpt lat="47.35798" lon="-0.02817">
        <ele>92.9</ele>
        <time>2012-08-15T07:04:21Z</time>
      </trkpt>
      <trkpt lat="47.35794" lon="-0.02813">
        <ele>92.9</ele>
        <time>2012-08-15T07:04:22Z</time>
      </trkpt>
      <trkpt lat="47.3579" lon="-0.02809">
        <ele>92.42</ele>
        <time>2012-08-15T07:04:23Z</time>
      </trkpt>
      <trkpt lat="47.35787" lon="-0.02805">
        <ele>92.9</ele>
        <time>2012-08-15T07:04:24Z</time>
      </trkpt>
      <trkpt lat="47.35783" lon="-0.02801">
        <ele>92.42</ele>
        <time>2012-08-15T07:04:25Z</time>
      </trkpt>
      <trkpt lat="47.35762" lon="-0.02779">
        <ele>93.39</ele>
        <time>2012-08-15T07:04:31Z</time>
      </trkpt>
      <trkpt lat="47.35753" lon="-0.02773">
        <ele>93.39</ele>
        <time>2012-08-15T07:04:33Z</time>
      </trkpt>
      <trkpt lat="47.35739" lon="-0.02757">
        <ele>93.39</ele>
        <time>2012-08-15T07:04:37Z</time>
      </trkpt>
      <trkpt lat="47.35736" lon="-0.02752">
        <ele>93.39</ele>
        <time>2012-08-15T07:04:38Z</time>
      </trkpt>
      <trkpt lat="47.35731" lon="-0.02742">
        <ele>93.39</ele>
        <time>2012-08-15T07:04:40Z</time>
      </trkpt>
      <trkpt lat="47.35729" lon="-0.02736">
        <ele>93.39</ele>
        <time>2012-08-15T07:04:41Z</time>
      </trkpt>
      <trkpt lat="47.35725" lon="-0.02724">
        <ele>92.9</ele>
        <time>2012-08-15T07:04:43Z</time>
      </trkpt>
      <trkpt lat="47.35724" lon="-0.02717">
        <ele>93.39</ele>
        <time>2012-08-15T07:04:44Z</time>
      </trkpt>
      <trkpt lat="47.35722" lon="-0.02711">
        <ele>92.9</ele>
        <time>2012-08-15T07:04:45Z</time>
      </trkpt>
      <trkpt lat="47.35716" lon="-0.02678">
        <ele>93.39</ele>
        <time>2012-08-15T07:04:50Z</time>
      </trkpt>
      <trkpt lat="47.35716" lon="-0.02672">
        <ele>93.87</ele>
        <time>2012-08-15T07:04:51Z</time>
      </trkpt>
      <trkpt lat="47.35714" lon="-0.0266">
        <ele>94.35</ele>
        <time>2012-08-15T07:04:53Z</time>
      </trkpt>
      <trkpt lat="47.35712" lon="-0.02654">
        <ele>95.31</ele>
        <time>2012-08-15T07:04:54Z</time>
      </trkpt>
      <trkpt lat="47.35705" lon="-0.02608">
        <ele>96.75</ele>
        <time>2012-08-15T07:05:02Z</time>
      </trkpt>
      <trkpt lat="47.35704" lon="-0.02566">
        <ele>97.23</ele>
        <time>2012-08-15T07:05:09Z</time>
      </trkpt>
      <trkpt lat="47.35701" lon="-0.02526">
        <ele>100.11</ele>
        <time>2012-08-15T07:05:16Z</time>
      </trkpt>
      <trkpt lat="47.35698" lon="-0.02485">
        <ele>100.6</ele>
        <time>2012-08-15T07:05:23Z</time>
      </trkpt>
      <trkpt lat="47.35694" lon="-0.02441">
        <ele>100.6</ele>
        <time>2012-08-15T07:05:30Z</time>
      </trkpt>
      <trkpt lat="47.35694" lon="-0.02434">
        <ele>99.63</ele>
        <time>2012-08-15T07:05:31Z</time>
      </trkpt>
      <trkpt lat="47.35692" lon="-0.02377">
        <ele>101.56</ele>
        <time>2012-08-15T07:05:40Z</time>
      </trkpt>
      <trkpt lat="47.35691" lon="-0.02371">
        <ele>102.04</ele>
        <time>2012-08-15T07:05:41Z</time>
      </trkpt>
      <trkpt lat="47.35691" lon="-0.02358">
        <ele>101.56</ele>
        <time>2012-08-15T07:05:43Z</time>
      </trkpt>
      <trkpt lat="47.35691" lon="-0.02339">
        <ele>101.56</ele>
        <time>2012-08-15T07:05:46Z</time>
      </trkpt>
      <trkpt lat="47.35691" lon="-0.02333">
        <ele>101.08</ele>
        <time>2012-08-15T07:05:47Z</time>
      </trkpt>
      <trkpt lat="47.35693" lon="-0.02288">
        <ele>102.04</ele>
        <time>2012-08-15T07:05:54Z</time>
      </trkpt>
      <trkpt lat="47.35692" lon="-0.02282">
        <ele>102.04</ele>
        <time>2012-08-15T07:05:55Z</time>
      </trkpt>
      <trkpt lat="47.35686" lon="-0.02231">
        <ele>103</ele>
        <time>2012-08-15T07:06:03Z</time>
      </trkpt>
      <trkpt lat="47.35684" lon="-0.02225">
        <ele>103</ele>
        <time>2012-08-15T07:06:04Z</time>
      </trkpt>
      <trkpt lat="47.35683" lon="-0.02219">
        <ele>103</ele>
        <time>2012-08-15T07:06:05Z</time>
      </trkpt>
      <trkpt lat="47.35681" lon="-0.02213">
        <ele>103</ele>
        <time>2012-08-15T07:06:06Z</time>
      </trkpt>
      <trkpt lat="47.3568" lon="-0.02207">
        <ele>103</ele>
        <time>2012-08-15T07:06:07Z</time>
      </trkpt>
      <trkpt lat="47.35677" lon="-0.02194">
        <ele>103.48</ele>
        <time>2012-08-15T07:06:09Z</time>
      </trkpt>
      <trkpt lat="47.35676" lon="-0.02188">
        <ele>102.52</ele>
        <time>2012-08-15T07:06:10Z</time>
      </trkpt>
      <trkpt lat="47.35675" lon="-0.02182">
        <ele>102.52</ele>
        <time>2012-08-15T07:06:11Z</time>
      </trkpt>
      <trkpt lat="47.35674" lon="-0.02177">
        <ele>103.48</ele>
        <time>2012-08-15T07:06:12Z</time>
      </trkpt>
      <trkpt lat="47.35672" lon="-0.02171">
        <ele>103</ele>
        <time>2012-08-15T07:06:13Z</time>
      </trkpt>
      <trkpt lat="47.35671" lon="-0.02165">
        <ele>103.48</ele>
        <time>2012-08-15T07:06:14Z</time>
      </trkpt>
      <trkpt lat="47.35669" lon="-0.0216">
        <ele>103.48</ele>
        <time>2012-08-15T07:06:15Z</time>
      </trkpt>
      <trkpt lat="47.35666" lon="-0.02142">
        <ele>103.48</ele>
        <time>2012-08-15T07:06:18Z</time>
      </trkpt>
      <trkpt lat="47.35664" lon="-0.02136">
        <ele>103.96</ele>
        <time>2012-08-15T07:06:19Z</time>
      </trkpt>
      <trkpt lat="47.35661" lon="-0.0212">
        <ele>104.44</ele>
        <time>2012-08-15T07:06:22Z</time>
      </trkpt>
      <trkpt lat="47.35651" lon="-0.02082">
        <ele>104.44</ele>
        <time>2012-08-15T07:06:29Z</time>
      </trkpt>
      <trkpt lat="47.35641" lon="-0.0205">
        <ele>104.44</ele>
        <time>2012-08-15T07:06:35Z</time>
      </trkpt>
      <trkpt lat="47.35636" lon="-0.02019">
        <ele>103.96</ele>
        <time>2012-08-15T07:06:41Z</time>
      </trkpt>
      <trkpt lat="47.35637" lon="-0.02013">
        <ele>103.96</ele>
        <time>2012-08-15T07:06:42Z</time>
      </trkpt>
      <trkpt lat="47.35638" lon="-0.02006">
        <ele>104.44</ele>
        <time>2012-08-15T07:06:43Z</time>
      </trkpt>
      <trkpt lat="47.35638" lon="-0.02001">
        <ele>104.44</ele>
        <time>2012-08-15T07:06:44Z</time>
      </trkpt>
      <trkpt lat="47.35636" lon="-0.01996">
        <ele>103.48</ele>
        <time>2012-08-15T07:06:45Z</time>
      </trkpt>
      <trkpt lat="47.35635" lon="-0.01991">
        <ele>104.44</ele>
        <time>2012-08-15T07:06:46Z</time>
      </trkpt>
      <trkpt lat="47.35624" lon="-0.01944">
        <ele>103.48</ele>
        <time>2012-08-15T07:06:53Z</time>
      </trkpt>
      <trkpt lat="47.35613" lon="-0.01899">
        <ele>103.96</ele>
        <time>2012-08-15T07:07:00Z</time>
      </trkpt>
      <trkpt lat="47.356" lon="-0.01844">
        <ele>104.44</ele>
        <time>2012-08-15T07:07:08Z</time>
      </trkpt>
      <trkpt lat="47.35591" lon="-0.0181">
        <ele>103.48</ele>
        <time>2012-08-15T07:07:13Z</time>
      </trkpt>
      <trkpt lat="47.3558" lon="-0.01768">
        <ele>103.96</ele>
        <time>2012-08-15T07:07:19Z</time>
      </trkpt>
      <trkpt lat="47.35576" lon="-0.01746">
        <ele>103</ele>
        <time>2012-08-15T07:07:22Z</time>
      </trkpt>
      <trkpt lat="47.35561" lon="-0.01695">
        <ele>103.96</ele>
        <time>2012-08-15T07:07:30Z</time>
      </trkpt>
      <trkpt lat="47.35548" lon="-0.01644">
        <ele>103.48</ele>
        <time>2012-08-15T07:07:38Z</time>
      </trkpt>
      <trkpt lat="47.35543" lon="-0.01625">
        <ele>103.96</ele>
        <time>2012-08-15T07:07:41Z</time>
      </trkpt>
      <trkpt lat="47.35529" lon="-0.01573">
        <ele>103</ele>
        <time>2012-08-15T07:07:49Z</time>
      </trkpt>
      <trkpt lat="47.35525" lon="-0.01563">
        <ele>103.96</ele>
        <time>2012-08-15T07:07:51Z</time>
      </trkpt>
      <trkpt lat="47.35515" lon="-0.01556">
        <ele>103.96</ele>
        <time>2012-08-15T07:07:54Z</time>
      </trkpt>
      <trkpt lat="47.35484" lon="-0.01552">
        <ele>103.48</ele>
        <time>2012-08-15T07:08:01Z</time>
      </trkpt>
      <trkpt lat="47.35464" lon="-0.01546">
        <ele>103</ele>
        <time>2012-08-15T07:08:06Z</time>
      </trkpt>
      <trkpt lat="47.35441" lon="-0.0154">
        <ele>103.48</ele>
        <time>2012-08-15T07:08:11Z</time>
      </trkpt>
      <trkpt lat="47.35411" lon="-0.01529">
        <ele>102.52</ele>
        <time>2012-08-15T07:08:19Z</time>
      </trkpt>
      <trkpt lat="47.35398" lon="-0.0152">
        <ele>102.52</ele>
        <time>2012-08-15T07:08:24Z</time>
      </trkpt>
      <trkpt lat="47.35374" lon="-0.01508">
        <ele>101.56</ele>
        <time>2012-08-15T07:08:30Z</time>
      </trkpt>
      <trkpt lat="47.35357" lon="-0.01492">
        <ele>100.6</ele>
        <time>2012-08-15T07:08:35Z</time>
      </trkpt>
      <trkpt lat="47.35343" lon="-0.01483">
        <ele>99.15</ele>
        <time>2012-08-15T07:08:38Z</time>
      </trkpt>
      <trkpt lat="47.35329" lon="-0.01472">
        <ele>99.15</ele>
        <time>2012-08-15T07:08:41Z</time>
      </trkpt>
      <trkpt lat="47.35296" lon="-0.01452">
        <ele>96.75</ele>
        <time>2012-08-15T07:08:47Z</time>
      </trkpt>
      <trkpt lat="47.35273" lon="-0.01427">
        <ele>94.35</ele>
        <time>2012-08-15T07:08:51Z</time>
      </trkpt>
      <trkpt lat="47.35263" lon="-0.01413">
        <ele>93.39</ele>
        <time>2012-08-15T07:08:53Z</time>
      </trkpt>
      <trkpt lat="47.3524" lon="-0.01385">
        <ele>91.46</ele>
        <time>2012-08-15T07:08:57Z</time>
      </trkpt>
      <trkpt lat="47.35221" lon="-0.01364">
        <ele>87.62</ele>
        <time>2012-08-15T07:09:00Z</time>
      </trkpt>
      <trkpt lat="47.35204" lon="-0.01345">
        <ele>86.18</ele>
        <time>2012-08-15T07:09:03Z</time>
      </trkpt>
      <trkpt lat="47.35197" lon="-0.0134">
        <ele>85.21</ele>
        <time>2012-08-15T07:09:04Z</time>
      </trkpt>
      <trkpt lat="47.35164" lon="-0.01308">
        <ele>79.93</ele>
        <time>2012-08-15T07:09:09Z</time>
      </trkpt>
      <trkpt lat="47.3515" lon="-0.01295">
        <ele>77.04</ele>
        <time>2012-08-15T07:09:11Z</time>
      </trkpt>
      <trkpt lat="47.35144" lon="-0.01288">
        <ele>74.64</ele>
        <time>2012-08-15T07:09:12Z</time>
      </trkpt>
      <trkpt lat="47.3513" lon="-0.01274">
        <ele>72.72</ele>
        <time>2012-08-15T07:09:14Z</time>
      </trkpt>
      <trkpt lat="47.35104" lon="-0.0125">
        <ele>69.83</ele>
        <time>2012-08-15T07:09:17Z</time>
      </trkpt>
      <trkpt lat="47.35089" lon="-0.01232">
        <ele>66.95</ele>
        <time>2012-08-15T07:09:20Z</time>
      </trkpt>
      <trkpt lat="47.35087" lon="-0.01218">
        <ele>65.51</ele>
        <time>2012-08-15T07:09:25Z</time>
      </trkpt>
      <trkpt lat="47.3509" lon="-0.01211">
        <ele>65.99</ele>
        <time>2012-08-15T07:09:27Z</time>
      </trkpt>
      <trkpt lat="47.35098" lon="-0.01186">
        <ele>64.55</ele>
        <time>2012-08-15T07:09:33Z</time>
      </trkpt>
      <trkpt lat="47.3511" lon="-0.01151">
        <ele>64.07</ele>
        <time>2012-08-15T07:09:40Z</time>
      </trkpt>
      <trkpt lat="47.3512" lon="-0.01116">
        <ele>62.62</ele>
        <time>2012-08-15T07:09:46Z</time>
      </trkpt>
      <trkpt lat="47.35137" lon="-0.01074">
        <ele>65.03</ele>
        <time>2012-08-15T07:09:54Z</time>
      </trkpt>
      <trkpt lat="47.35153" lon="-0.01066">
        <ele>65.99</ele>
        <time>2012-08-15T07:10:00Z</time>
      </trkpt>
      <trkpt lat="47.3516" lon="-0.0107">
        <ele>66.47</ele>
        <time>2012-08-15T07:10:03Z</time>
      </trkpt>
      <trkpt lat="47.35181" lon="-0.01082">
        <ele>68.87</ele>
        <time>2012-08-15T07:10:11Z</time>
      </trkpt>
      <trkpt lat="47.35197" lon="-0.01093">
        <ele>69.83</ele>
        <time>2012-08-15T07:10:18Z</time>
      </trkpt>
      <trkpt lat="47.35207" lon="-0.01101">
        <ele>70.31</ele>
        <time>2012-08-15T07:10:23Z</time>
      </trkpt>
      <trkpt lat="47.35221" lon="-0.01111">
        <ele>70.79</ele>
        <time>2012-08-15T07:10:30Z</time>
      </trkpt>
      <trkpt lat="47.35223" lon="-0.01112">
        <ele>71.76</ele>
        <time>2012-08-15T07:10:31Z</time>
      </trkpt>
      <trkpt lat="47.35227" lon="-0.01114">
        <ele>72.24</ele>
        <time>2012-08-15T07:10:33Z</time>
      </trkpt>
      <trkpt lat="47.35231" lon="-0.01117">
        <ele>72.72</ele>
        <time>2012-08-15T07:10:35Z</time>
      </trkpt>
      <trkpt lat="47.35238" lon="-0.01122">
        <ele>73.2</ele>
        <time>2012-08-15T07:10:39Z</time>
      </trkpt>
      <trkpt lat="47.35247" lon="-0.01127">
        <ele>75.12</ele>
        <time>2012-08-15T07:10:45Z</time>
      </trkpt>
      <trkpt lat="47.3525" lon="-0.0113">
        <ele>75.6</ele>
        <time>2012-08-15T07:10:48Z</time>
      </trkpt>
      <trkpt lat="47.35251" lon="-0.01131">
        <ele>76.56</ele>
        <time>2012-08-15T07:10:51Z</time>
      </trkpt>
      <trkpt lat="47.35255" lon="-0.01133">
        <ele>77.04</ele>
        <time>2012-08-15T07:10:55Z</time>
      </trkpt>
      <trkpt lat="47.35257" lon="-0.01135">
        <ele>78</ele>
        <time>2012-08-15T07:10:57Z</time>
      </trkpt>
      <trkpt lat="47.35264" lon="-0.01134">
        <ele>79.93</ele>
        <time>2012-08-15T07:11:03Z</time>
      </trkpt>
      <trkpt lat="47.35273" lon="-0.01139">
        <ele>81.37</ele>
        <time>2012-08-15T07:11:11Z</time>
      </trkpt>
      <trkpt lat="47.35278" lon="-0.01141">
        <ele>82.33</ele>
        <time>2012-08-15T07:11:15Z</time>
      </trkpt>
      <trkpt lat="47.35292" lon="-0.01142">
        <ele>84.25</ele>
        <time>2012-08-15T07:11:23Z</time>
      </trkpt>
      <trkpt lat="47.35295" lon="-0.01142">
        <ele>85.21</ele>
        <time>2012-08-15T07:11:25Z</time>
      </trkpt>
      <trkpt lat="47.35316" lon="-0.01147">
        <ele>86.66</ele>
        <time>2012-08-15T07:11:31Z</time>
      </trkpt>
      <trkpt lat="47.3533" lon="-0.01146">
        <ele>88.58</ele>
        <time>2012-08-15T07:11:37Z</time>
      </trkpt>
      <trkpt lat="47.3534" lon="-0.01142">
        <ele>89.54</ele>
        <time>2012-08-15T07:11:44Z</time>
      </trkpt>
      <trkpt lat="47.35346" lon="-0.01136">
        <ele>90.02</ele>
        <time>2012-08-15T07:11:50Z</time>
      </trkpt>
      <trkpt lat="47.35349" lon="-0.01132">
        <ele>90.02</ele>
        <time>2012-08-15T07:11:55Z</time>
      </trkpt>
      <trkpt lat="47.35349" lon="-0.01131">
        <ele>90.02</ele>
        <time>2012-08-15T07:12:00Z</time>
      </trkpt>
      <trkpt lat="47.35351" lon="-0.0113">
        <ele>91.46</ele>
        <time>2012-08-15T07:12:09Z</time>
      </trkpt>
      <trkpt lat="47.35356" lon="-0.01125">
        <ele>90.98</ele>
        <time>2012-08-15T07:12:22Z</time>
      </trkpt>
      <trkpt lat="47.35358" lon="-0.01122">
        <ele>90.5</ele>
        <time>2012-08-15T07:12:28Z</time>
      </trkpt>
      <trkpt lat="47.35358" lon="-0.0112">
        <ele>90.5</ele>
        <time>2012-08-15T07:12:30Z</time>
      </trkpt>
      <trkpt lat="47.35362" lon="-0.01102">
        <ele>91.46</ele>
        <time>2012-08-15T07:12:36Z</time>
      </trkpt>
      <trkpt lat="47.35368" lon="-0.01092">
        <ele>92.9</ele>
        <time>2012-08-15T07:12:40Z</time>
      </trkpt>
      <trkpt lat="47.35377" lon="-0.01077">
        <ele>91.94</ele>
        <time>2012-08-15T07:12:45Z</time>
      </trkpt>
      <trkpt lat="47.35396" lon="-0.01065">
        <ele>94.35</ele>
        <time>2012-08-15T07:12:52Z</time>
      </trkpt>
      <trkpt lat="47.35417" lon="-0.01057">
        <ele>93.87</ele>
        <time>2012-08-15T07:12:58Z</time>
      </trkpt>
      <trkpt lat="47.35435" lon="-0.01054">
        <ele>94.83</ele>
        <time>2012-08-15T07:13:03Z</time>
      </trkpt>
      <trkpt lat="47.35449" lon="-0.01039">
        <ele>94.83</ele>
        <time>2012-08-15T07:13:08Z</time>
      </trkpt>
      <trkpt lat="47.35468" lon="-0.01032">
        <ele>94.83</ele>
        <time>2012-08-15T07:13:13Z</time>
      </trkpt>
      <trkpt lat="47.35483" lon="-0.01024">
        <ele>94.83</ele>
        <time>2012-08-15T07:13:17Z</time>
      </trkpt>
      <trkpt lat="47.35496" lon="-0.01016">
        <ele>93.87</ele>
        <time>2012-08-15T07:13:21Z</time>
      </trkpt>
      <trkpt lat="47.35514" lon="-0.00998">
        <ele>93.39</ele>
        <time>2012-08-15T07:13:26Z</time>
      </trkpt>
      <trkpt lat="47.35518" lon="-0.00994">
        <ele>93.87</ele>
        <time>2012-08-15T07:13:27Z</time>
      </trkpt>
      <trkpt lat="47.35528" lon="-0.00986">
        <ele>92.9</ele>
        <time>2012-08-15T07:13:29Z</time>
      </trkpt>
      <trkpt lat="47.35551" lon="-0.00968">
        <ele>89.06</ele>
        <time>2012-08-15T07:13:33Z</time>
      </trkpt>
      <trkpt lat="47.35561" lon="-0.00932">
        <ele>85.69</ele>
        <time>2012-08-15T07:13:38Z</time>
      </trkpt>
      <trkpt lat="47.35561" lon="-0.00923">
        <ele>84.73</ele>
        <time>2012-08-15T07:13:39Z</time>
      </trkpt>
      <trkpt lat="47.35553" lon="-0.00882">
        <ele>80.41</ele>
        <time>2012-08-15T07:13:43Z</time>
      </trkpt>
      <trkpt lat="47.35549" lon="-0.00874">
        <ele>78.48</ele>
        <time>2012-08-15T07:13:44Z</time>
      </trkpt>
      <trkpt lat="47.35537" lon="-0.00857">
        <ele>78.97</ele>
        <time>2012-08-15T07:13:46Z</time>
      </trkpt>
      <trkpt lat="47.35529" lon="-0.00826">
        <ele>76.56</ele>
        <time>2012-08-15T07:13:49Z</time>
      </trkpt>
      <trkpt lat="47.35523" lon="-0.00795">
        <ele>73.68</ele>
        <time>2012-08-15T07:13:52Z</time>
      </trkpt>
      <trkpt lat="47.35512" lon="-0.00764">
        <ele>71.27</ele>
        <time>2012-08-15T07:13:56Z</time>
      </trkpt>
      <trkpt lat="47.35504" lon="-0.00741">
        <ele>69.83</ele>
        <time>2012-08-15T07:14:00Z</time>
      </trkpt>
      <trkpt lat="47.35511" lon="-0.00736">
        <ele>69.35</ele>
        <time>2012-08-15T07:14:05Z</time>
      </trkpt>
      <trkpt lat="47.35513" lon="-0.00738">
        <ele>69.35</ele>
        <time>2012-08-15T07:14:06Z</time>
      </trkpt>
      <trkpt lat="47.3553" lon="-0.00755">
        <ele>70.31</ele>
        <time>2012-08-15T07:14:12Z</time>
      </trkpt>
      <trkpt lat="47.35533" lon="-0.00759">
        <ele>69.83</ele>
        <time>2012-08-15T07:14:13Z</time>
      </trkpt>
      <trkpt lat="47.35554" lon="-0.00782">
        <ele>70.79</ele>
        <time>2012-08-15T07:14:20Z</time>
      </trkpt>
      <trkpt lat="47.35564" lon="-0.00793">
        <ele>72.24</ele>
        <time>2012-08-15T07:14:24Z</time>
      </trkpt>
      <trkpt lat="47.35573" lon="-0.00805">
        <ele>72.24</ele>
        <time>2012-08-15T07:14:28Z</time>
      </trkpt>
      <trkpt lat="47.35576" lon="-0.00808">
        <ele>72.72</ele>
        <time>2012-08-15T07:14:29Z</time>
      </trkpt>
      <trkpt lat="47.35589" lon="-0.00825">
        <ele>73.68</ele>
        <time>2012-08-15T07:14:35Z</time>
      </trkpt>
      <trkpt lat="47.35602" lon="-0.00837">
        <ele>75.6</ele>
        <time>2012-08-15T07:14:40Z</time>
      </trkpt>
      <trkpt lat="47.35619" lon="-0.00844">
        <ele>76.56</ele>
        <time>2012-08-15T07:14:45Z</time>
      </trkpt>
      <trkpt lat="47.3564" lon="-0.00849">
        <ele>78</ele>
        <time>2012-08-15T07:14:51Z</time>
      </trkpt>
      <trkpt lat="47.35663" lon="-0.00856">
        <ele>78.48</ele>
        <time>2012-08-15T07:14:57Z</time>
      </trkpt>
      <trkpt lat="47.35686" lon="-0.00862">
        <ele>79.93</ele>
        <time>2012-08-15T07:15:04Z</time>
      </trkpt>
      <trkpt lat="47.35704" lon="-0.00866">
        <ele>80.89</ele>
        <time>2012-08-15T07:15:10Z</time>
      </trkpt>
      <trkpt lat="47.35725" lon="-0.00872">
        <ele>82.33</ele>
        <time>2012-08-15T07:15:17Z</time>
      </trkpt>
      <trkpt lat="47.35741" lon="-0.00876">
        <ele>83.77</ele>
        <time>2012-08-15T07:15:22Z</time>
      </trkpt>
      <trkpt lat="47.35758" lon="-0.0088">
        <ele>86.18</ele>
        <time>2012-08-15T07:15:28Z</time>
      </trkpt>
      <trkpt lat="47.35777" lon="-0.00882">
        <ele>88.1</ele>
        <time>2012-08-15T07:15:35Z</time>
      </trkpt>
      <trkpt lat="47.3578" lon="-0.00882">
        <ele>88.1</ele>
        <time>2012-08-15T07:15:36Z</time>
      </trkpt>
      <trkpt lat="47.35799" lon="-0.00885">
        <ele>89.06</ele>
        <time>2012-08-15T07:15:43Z</time>
      </trkpt>
      <trkpt lat="47.35817" lon="-0.00888">
        <ele>90.98</ele>
        <time>2012-08-15T07:15:50Z</time>
      </trkpt>
      <trkpt lat="47.35831" lon="-0.00892">
        <ele>90.98</ele>
        <time>2012-08-15T07:15:55Z</time>
      </trkpt>
      <trkpt lat="47.35852" lon="-0.00898">
        <ele>91.94</ele>
        <time>2012-08-15T07:16:02Z</time>
      </trkpt>
      <trkpt lat="47.35874" lon="-0.00908">
        <ele>92.9</ele>
        <time>2012-08-15T07:16:09Z</time>
      </trkpt>
      <trkpt lat="47.35883" lon="-0.00913">
        <ele>92.42</ele>
        <time>2012-08-15T07:16:12Z</time>
      </trkpt>
      <trkpt lat="47.35898" lon="-0.00898">
        <ele>92.9</ele>
        <time>2012-08-15T07:16:18Z</time>
      </trkpt>
      <trkpt lat="47.35914" lon="-0.00872">
        <ele>93.87</ele>
        <time>2012-08-15T07:16:25Z</time>
      </trkpt>
      <trkpt lat="47.35932" lon="-0.00844">
        <ele>93.39</ele>
        <time>2012-08-15T07:16:32Z</time>
      </trkpt>
      <trkpt lat="47.35948" lon="-0.00825">
        <ele>93.87</ele>
        <time>2012-08-15T07:16:37Z</time>
      </trkpt>
      <trkpt lat="47.35969" lon="-0.00803">
        <ele>94.35</ele>
        <time>2012-08-15T07:16:43Z</time>
      </trkpt>
      <trkpt lat="47.35987" lon="-0.00782">
        <ele>93.87</ele>
        <time>2012-08-15T07:16:49Z</time>
      </trkpt>
      <trkpt lat="47.36002" lon="-0.00765">
        <ele>94.35</ele>
        <time>2012-08-15T07:16:54Z</time>
      </trkpt>
      <trkpt lat="47.3602" lon="-0.00743">
        <ele>94.35</ele>
        <time>2012-08-15T07:17:00Z</time>
      </trkpt>
      <trkpt lat="47.3604" lon="-0.00722">
        <ele>93.87</ele>
        <time>2012-08-15T07:17:06Z</time>
      </trkpt>
      <trkpt lat="47.36045" lon="-0.00719">
        <ele>94.35</ele>
        <time>2012-08-15T07:17:08Z</time>
      </trkpt>
      <trkpt lat="47.3605" lon="-0.00722">
        <ele>95.31</ele>
        <time>2012-08-15T07:17:10Z</time>
      </trkpt>
      <trkpt lat="47.36061" lon="-0.00715">
        <ele>94.35</ele>
        <time>2012-08-15T07:17:14Z</time>
      </trkpt>
      <trkpt lat="47.36085" lon="-0.00685">
        <ele>94.35</ele>
        <time>2012-08-15T07:17:22Z</time>
      </trkpt>
      <trkpt lat="47.36092" lon="-0.00677">
        <ele>93.87</ele>
        <time>2012-08-15T07:17:24Z</time>
      </trkpt>
      <trkpt lat="47.36115" lon="-0.00644">
        <ele>92.9</ele>
        <time>2012-08-15T07:17:31Z</time>
      </trkpt>
      <trkpt lat="47.36122" lon="-0.00635">
        <ele>91.94</ele>
        <time>2012-08-15T07:17:33Z</time>
      </trkpt>
      <trkpt lat="47.36158" lon="-0.00591">
        <ele>90.98</ele>
        <time>2012-08-15T07:17:42Z</time>
      </trkpt>
      <trkpt lat="47.36167" lon="-0.00582">
        <ele>90.98</ele>
        <time>2012-08-15T07:17:44Z</time>
      </trkpt>
      <trkpt lat="47.36197" lon="-0.00542">
        <ele>90.02</ele>
        <time>2012-08-15T07:17:51Z</time>
      </trkpt>
      <trkpt lat="47.36236" lon="-0.00497">
        <ele>89.06</ele>
        <time>2012-08-15T07:17:59Z</time>
      </trkpt>
      <trkpt lat="47.3624" lon="-0.00492">
        <ele>89.06</ele>
        <time>2012-08-15T07:18:00Z</time>
      </trkpt>
      <trkpt lat="47.36251" lon="-0.00475">
        <ele>89.06</ele>
        <time>2012-08-15T07:18:03Z</time>
      </trkpt>
      <trkpt lat="47.36267" lon="-0.00427">
        <ele>90.02</ele>
        <time>2012-08-15T07:18:11Z</time>
      </trkpt>
      <trkpt lat="47.36276" lon="-0.00399">
        <ele>90.98</ele>
        <time>2012-08-15T07:18:17Z</time>
      </trkpt>
      <trkpt lat="47.36279" lon="-0.00392">
        <ele>90.02</ele>
        <time>2012-08-15T07:18:19Z</time>
      </trkpt>
      <trkpt lat="47.36284" lon="-0.00387">
        <ele>90.98</ele>
        <time>2012-08-15T07:18:22Z</time>
      </trkpt>
      <trkpt lat="47.36292" lon="-0.00392">
        <ele>91.46</ele>
        <time>2012-08-15T07:18:27Z</time>
      </trkpt>
      <trkpt lat="47.36296" lon="-0.00405">
        <ele>91.94</ele>
        <time>2012-08-15T07:18:31Z</time>
      </trkpt>
      <trkpt lat="47.36306" lon="-0.00416">
        <ele>90.98</ele>
        <time>2012-08-15T07:18:36Z</time>
      </trkpt>
      <trkpt lat="47.3631" lon="-0.00418">
        <ele>90.5</ele>
        <time>2012-08-15T07:18:37Z</time>
      </trkpt>
      <trkpt lat="47.36317" lon="-0.00424">
        <ele>90.02</ele>
        <time>2012-08-15T07:18:39Z</time>
      </trkpt>
      <trkpt lat="47.36325" lon="-0.0043">
        <ele>89.54</ele>
        <time>2012-08-15T07:18:41Z</time>
      </trkpt>
      <trkpt lat="47.36352" lon="-0.00452">
        <ele>86.18</ele>
        <time>2012-08-15T07:18:46Z</time>
      </trkpt>
      <trkpt lat="47.36359" lon="-0.00458">
        <ele>84.73</ele>
        <time>2012-08-15T07:18:47Z</time>
      </trkpt>
      <trkpt lat="47.36383" lon="-0.00473">
        <ele>80.41</ele>
        <time>2012-08-15T07:18:50Z</time>
      </trkpt>
      <trkpt lat="47.36399" lon="-0.00485">
        <ele>78</ele>
        <time>2012-08-15T07:18:52Z</time>
      </trkpt>
      <trkpt lat="47.36418" lon="-0.00508">
        <ele>74.16</ele>
        <time>2012-08-15T07:18:55Z</time>
      </trkpt>
      <trkpt lat="47.36424" lon="-0.00514">
        <ele>74.16</ele>
        <time>2012-08-15T07:18:56Z</time>
      </trkpt>
      <trkpt lat="47.36445" lon="-0.00533">
        <ele>72.24</ele>
        <time>2012-08-15T07:18:59Z</time>
      </trkpt>
      <trkpt lat="47.36462" lon="-0.00541">
        <ele>70.31</ele>
        <time>2012-08-15T07:19:01Z</time>
      </trkpt>
      <trkpt lat="47.36478" lon="-0.00546">
        <ele>68.87</ele>
        <time>2012-08-15T07:19:03Z</time>
      </trkpt>
      <trkpt lat="47.36523" lon="-0.0055">
        <ele>66.95</ele>
        <time>2012-08-15T07:19:09Z</time>
      </trkpt>
      <trkpt lat="47.3653" lon="-0.0055">
        <ele>66.47</ele>
        <time>2012-08-15T07:19:10Z</time>
      </trkpt>
      <trkpt lat="47.36554" lon="-0.00555">
        <ele>64.07</ele>
        <time>2012-08-15T07:19:14Z</time>
      </trkpt>
      <trkpt lat="47.36571" lon="-0.00552">
        <ele>62.14</ele>
        <time>2012-08-15T07:19:18Z</time>
      </trkpt>
      <trkpt lat="47.3658" lon="-0.00533">
        <ele>63.1</ele>
        <time>2012-08-15T07:19:22Z</time>
      </trkpt>
      <trkpt lat="47.36584" lon="-0.00525">
        <ele>62.62</ele>
        <time>2012-08-15T07:19:24Z</time>
      </trkpt>
      <trkpt lat="47.36594" lon="-0.0051">
        <ele>62.62</ele>
        <time>2012-08-15T07:19:27Z</time>
      </trkpt>
      <trkpt lat="47.366" lon="-0.00489">
        <ele>62.62</ele>
        <time>2012-08-15T07:19:31Z</time>
      </trkpt>
      <trkpt lat="47.366" lon="-0.00475">
        <ele>63.1</ele>
        <time>2012-08-15T07:19:34Z</time>
      </trkpt>
      <trkpt lat="47.36607" lon="-0.00455">
        <ele>63.58</ele>
        <time>2012-08-15T07:19:40Z</time>
      </trkpt>
      <trkpt lat="47.36615" lon="-0.00438">
        <ele>64.07</ele>
        <time>2012-08-15T07:19:44Z</time>
      </trkpt>
      <trkpt lat="47.36623" lon="-0.00422">
        <ele>63.58</ele>
        <time>2012-08-15T07:19:48Z</time>
      </trkpt>
      <trkpt lat="47.36626" lon="-0.00412">
        <ele>64.07</ele>
        <time>2012-08-15T07:19:50Z</time>
      </trkpt>
      <trkpt lat="47.3663" lon="-0.00405">
        <ele>65.03</ele>
        <time>2012-08-15T07:19:52Z</time>
      </trkpt>
      <trkpt lat="47.36637" lon="-0.00398">
        <ele>64.07</ele>
        <time>2012-08-15T07:19:59Z</time>
      </trkpt>
      <trkpt lat="47.36639" lon="-0.00391">
        <ele>64.07</ele>
        <time>2012-08-15T07:20:07Z</time>
      </trkpt>
      <trkpt lat="47.3664" lon="-0.00389">
        <ele>63.1</ele>
        <time>2012-08-15T07:20:13Z</time>
      </trkpt>
      <trkpt lat="47.3664" lon="-0.00389">
        <ele>63.1</ele>
        <time>2012-08-15T07:20:14Z</time>
      </trkpt>
      <trkpt lat="47.36641" lon="-0.00386">
        <ele>64.07</ele>
        <time>2012-08-15T07:20:16Z</time>
      </trkpt>
      <trkpt lat="47.36639" lon="-0.00374">
        <ele>64.55</ele>
        <time>2012-08-15T07:20:22Z</time>
      </trkpt>
      <trkpt lat="47.36635" lon="-0.00366">
        <ele>65.03</ele>
        <time>2012-08-15T07:20:25Z</time>
      </trkpt>
      <trkpt lat="47.3663" lon="-0.0036">
        <ele>65.03</ele>
        <time>2012-08-15T07:20:28Z</time>
      </trkpt>
      <trkpt lat="47.36613" lon="-0.00343">
        <ele>66.47</ele>
        <time>2012-08-15T07:20:37Z</time>
      </trkpt>
      <trkpt lat="47.36597" lon="-0.00334">
        <ele>66.47</ele>
        <time>2012-08-15T07:20:44Z</time>
      </trkpt>
      <trkpt lat="47.36581" lon="-0.0032">
        <ele>66.95</ele>
        <time>2012-08-15T07:20:51Z</time>
      </trkpt>
      <trkpt lat="47.36565" lon="-0.00303">
        <ele>67.91</ele>
        <time>2012-08-15T07:20:59Z</time>
      </trkpt>
      <trkpt lat="47.36551" lon="-0.00287">
        <ele>68.39</ele>
        <time>2012-08-15T07:21:06Z</time>
      </trkpt>
      <trkpt lat="47.36547" lon="-0.00283">
        <ele>68.87</ele>
        <time>2012-08-15T07:21:08Z</time>
      </trkpt>
      <trkpt lat="47.36547" lon="-0.00266">
        <ele>69.83</ele>
        <time>2012-08-15T07:21:12Z</time>
      </trkpt>
      <trkpt lat="47.36547" lon="-0.00226">
        <ele>71.27</ele>
        <time>2012-08-15T07:21:21Z</time>
      </trkpt>
      <trkpt lat="47.36551" lon="-0.00192">
        <ele>73.2</ele>
        <time>2012-08-15T07:21:29Z</time>
      </trkpt>
      <trkpt lat="47.36551" lon="-0.00189">
        <ele>72.72</ele>
        <time>2012-08-15T07:21:30Z</time>
      </trkpt>
      <trkpt lat="47.3654" lon="-0.0018">
        <ele>74.64</ele>
        <time>2012-08-15T07:21:37Z</time>
      </trkpt>
      <trkpt lat="47.36515" lon="-0.00176">
        <ele>76.56</ele>
        <time>2012-08-15T07:21:46Z</time>
      </trkpt>
      <trkpt lat="47.36506" lon="-0.00175">
        <ele>76.56</ele>
        <time>2012-08-15T07:21:50Z</time>
      </trkpt>
      <trkpt lat="47.36501" lon="-0.00166">
        <ele>76.08</ele>
        <time>2012-08-15T07:21:56Z</time>
      </trkpt>
      <trkpt lat="47.36496" lon="-0.00154">
        <ele>77.04</ele>
        <time>2012-08-15T07:22:01Z</time>
      </trkpt>
      <trkpt lat="47.36486" lon="-0.00139">
        <ele>78.48</ele>
        <time>2012-08-15T07:22:08Z</time>
      </trkpt>
      <trkpt lat="47.36472" lon="-0.00127">
        <ele>80.89</ele>
        <time>2012-08-15T07:22:15Z</time>
      </trkpt>
      <trkpt lat="47.36462" lon="-0.00116">
        <ele>80.89</ele>
        <time>2012-08-15T07:22:22Z</time>
      </trkpt>
      <trkpt lat="47.36458" lon="-0.00106">
        <ele>82.81</ele>
        <time>2012-08-15T07:22:28Z</time>
      </trkpt>
      <trkpt lat="47.36452" lon="-0.00091">
        <ele>84.25</ele>
        <time>2012-08-15T07:22:35Z</time>
      </trkpt>
      <trkpt lat="47.36448" lon="-0.00084">
        <ele>84.73</ele>
        <time>2012-08-15T07:22:39Z</time>
      </trkpt>
      <trkpt lat="47.36444" lon="-0.00079">
        <ele>85.21</ele>
        <time>2012-08-15T07:22:42Z</time>
      </trkpt>
      <trkpt lat="47.36443" lon="-0.00078">
        <ele>86.18</ele>
        <time>2012-08-15T07:22:43Z</time>
      </trkpt>
      <trkpt lat="47.36437" lon="-0.00065">
        <ele>87.14</ele>
        <time>2012-08-15T07:22:50Z</time>
      </trkpt>
      <trkpt lat="47.36427" lon="-0.00052">
        <ele>87.62</ele>
        <time>2012-08-15T07:22:57Z</time>
      </trkpt>
      <trkpt lat="47.36422" lon="-0.00048">
        <ele>89.54</ele>
        <time>2012-08-15T07:23:00Z</time>
      </trkpt>
      <trkpt lat="47.36415" lon="-0.00038">
        <ele>90.02</ele>
        <time>2012-08-15T07:23:05Z</time>
      </trkpt>
      <trkpt lat="47.3641" lon="-0.00025">
        <ele>90.5</ele>
        <time>2012-08-15T07:23:11Z</time>
      </trkpt>
      <trkpt lat="47.36405" lon="-0.0002">
        <ele>91.46</ele>
        <time>2012-08-15T07:23:15Z</time>
      </trkpt>
      <trkpt lat="47.36396" lon="-9.0E-5">
        <ele>91.94</ele>
        <time>2012-08-15T07:23:22Z</time>
      </trkpt>
      <trkpt lat="47.36393" lon="-4.0E-5">
        <ele>92.42</ele>
        <time>2012-08-15T07:23:25Z</time>
      </trkpt>
      <trkpt lat="47.36388" lon="9.0E-5">
        <ele>92.9</ele>
        <time>2012-08-15T07:23:30Z</time>
      </trkpt>
      <trkpt lat="47.36388" lon="0.00015">
        <ele>93.39</ele>
        <time>2012-08-15T07:23:32Z</time>
      </trkpt>
      <trkpt lat="47.36391" lon="0.00027">
        <ele>94.83</ele>
        <time>2012-08-15T07:23:36Z</time>
      </trkpt>
      <trkpt lat="47.36399" lon="0.0005">
        <ele>94.83</ele>
        <time>2012-08-15T07:23:43Z</time>
      </trkpt>
      <trkpt lat="47.364" lon="0.00054">
        <ele>95.31</ele>
        <time>2012-08-15T07:23:44Z</time>
      </trkpt>
      <trkpt lat="47.36412" lon="0.00082">
        <ele>95.31</ele>
        <time>2012-08-15T07:23:51Z</time>
      </trkpt>
      <trkpt lat="47.36427" lon="0.00106">
        <ele>94.83</ele>
        <time>2012-08-15T07:23:56Z</time>
      </trkpt>
      <trkpt lat="47.36434" lon="0.00131">
        <ele>94.35</ele>
        <time>2012-08-15T07:24:01Z</time>
      </trkpt>
      <trkpt lat="47.36433" lon="0.00158">
        <ele>95.79</ele>
        <time>2012-08-15T07:24:07Z</time>
      </trkpt>
      <trkpt lat="47.36444" lon="0.0019">
        <ele>96.27</ele>
        <time>2012-08-15T07:24:13Z</time>
      </trkpt>
      <trkpt lat="47.36445" lon="0.00196">
        <ele>95.31</ele>
        <time>2012-08-15T07:24:14Z</time>
      </trkpt>
      <trkpt lat="47.3644" lon="0.00231">
        <ele>95.31</ele>
        <time>2012-08-15T07:24:20Z</time>
      </trkpt>
      <trkpt lat="47.36434" lon="0.00277">
        <ele>95.31</ele>
        <time>2012-08-15T07:24:27Z</time>
      </trkpt>
      <trkpt lat="47.36422" lon="0.00313">
        <ele>94.35</ele>
        <time>2012-08-15T07:24:33Z</time>
      </trkpt>
      <trkpt lat="47.36418" lon="0.00324">
        <ele>94.83</ele>
        <time>2012-08-15T07:24:35Z</time>
      </trkpt>
      <trkpt lat="47.3641" lon="0.00349">
        <ele>94.35</ele>
        <time>2012-08-15T07:24:40Z</time>
      </trkpt>
      <trkpt lat="47.36406" lon="0.00358">
        <ele>94.83</ele>
        <time>2012-08-15T07:24:42Z</time>
      </trkpt>
      <trkpt lat="47.36397" lon="0.00391">
        <ele>94.35</ele>
        <time>2012-08-15T07:24:48Z</time>
      </trkpt>
      <trkpt lat="47.36396" lon="0.00401">
        <ele>93.87</ele>
        <time>2012-08-15T07:24:50Z</time>
      </trkpt>
      <trkpt lat="47.36387" lon="0.00426">
        <ele>93.87</ele>
        <time>2012-08-15T07:24:55Z</time>
      </trkpt>
      <trkpt lat="47.3638" lon="0.00459">
        <ele>92.42</ele>
        <time>2012-08-15T07:25:01Z</time>
      </trkpt>
      <trkpt lat="47.3637" lon="0.00481">
        <ele>92.42</ele>
        <time>2012-08-15T07:25:05Z</time>
      </trkpt>
      <trkpt lat="47.36355" lon="0.00506">
        <ele>91.94</ele>
        <time>2012-08-15T07:25:11Z</time>
      </trkpt>
      <trkpt lat="47.36347" lon="0.00521">
        <ele>91.46</ele>
        <time>2012-08-15T07:25:15Z</time>
      </trkpt>
      <trkpt lat="47.3634" lon="0.00534">
        <ele>91.94</ele>
        <time>2012-08-15T07:25:19Z</time>
      </trkpt>
      <trkpt lat="47.36334" lon="0.00551">
        <ele>90.5</ele>
        <time>2012-08-15T07:25:23Z</time>
      </trkpt>
      <trkpt lat="47.36331" lon="0.00565">
        <ele>90.5</ele>
        <time>2012-08-15T07:25:26Z</time>
      </trkpt>
      <trkpt lat="47.36327" lon="0.00579">
        <ele>90.5</ele>
        <time>2012-08-15T07:25:30Z</time>
      </trkpt>
      <trkpt lat="47.36322" lon="0.00608">
        <ele>88.58</ele>
        <time>2012-08-15T07:25:37Z</time>
      </trkpt>
      <trkpt lat="47.36313" lon="0.00617">
        <ele>88.1</ele>
        <time>2012-08-15T07:25:41Z</time>
      </trkpt>
      <trkpt lat="47.36302" lon="0.00634">
        <ele>89.54</ele>
        <time>2012-08-15T07:25:46Z</time>
      </trkpt>
      <trkpt lat="47.36298" lon="0.00658">
        <ele>89.06</ele>
        <time>2012-08-15T07:25:53Z</time>
      </trkpt>
      <trkpt lat="47.36289" lon="0.0068">
        <ele>88.1</ele>
        <time>2012-08-15T07:26:00Z</time>
      </trkpt>
      <trkpt lat="47.3629" lon="0.00688">
        <ele>88.1</ele>
        <time>2012-08-15T07:26:02Z</time>
      </trkpt>
      <trkpt lat="47.36291" lon="0.00693">
        <ele>88.1</ele>
        <time>2012-08-15T07:26:03Z</time>
      </trkpt>
      <trkpt lat="47.36285" lon="0.0071">
        <ele>88.58</ele>
        <time>2012-08-15T07:26:08Z</time>
      </trkpt>
      <trkpt lat="47.36275" lon="0.00711">
        <ele>88.58</ele>
        <time>2012-08-15T07:26:11Z</time>
      </trkpt>
      <trkpt lat="47.36236" lon="0.00708">
        <ele>89.06</ele>
        <time>2012-08-15T07:26:21Z</time>
      </trkpt>
      <trkpt lat="47.36219" lon="0.00705">
        <ele>88.58</ele>
        <time>2012-08-15T07:26:25Z</time>
      </trkpt>
      <trkpt lat="47.36181" lon="0.00688">
        <ele>88.1</ele>
        <time>2012-08-15T07:26:34Z</time>
      </trkpt>
      <trkpt lat="47.36127" lon="0.00665">
        <ele>86.66</ele>
        <time>2012-08-15T07:26:46Z</time>
      </trkpt>
      <trkpt lat="47.36103" lon="0.00657">
        <ele>84.73</ele>
        <time>2012-08-15T07:26:51Z</time>
      </trkpt>
      <trkpt lat="47.36066" lon="0.00636">
        <ele>82.81</ele>
        <time>2012-08-15T07:26:59Z</time>
      </trkpt>
      <trkpt lat="47.36061" lon="0.00632">
        <ele>82.81</ele>
        <time>2012-08-15T07:27:00Z</time>
      </trkpt>
      <trkpt lat="47.36034" lon="0.00617">
        <ele>80.89</ele>
        <time>2012-08-15T07:27:06Z</time>
      </trkpt>
      <trkpt lat="47.36026" lon="0.0061">
        <ele>80.41</ele>
        <time>2012-08-15T07:27:08Z</time>
      </trkpt>
      <trkpt lat="47.36016" lon="0.00599">
        <ele>79.45</ele>
        <time>2012-08-15T07:27:10Z</time>
      </trkpt>
      <trkpt lat="47.35999" lon="0.00579">
        <ele>77.04</ele>
        <time>2012-08-15T07:27:13Z</time>
      </trkpt>
      <trkpt lat="47.35991" lon="0.00569">
        <ele>76.56</ele>
        <time>2012-08-15T07:27:15Z</time>
      </trkpt>
      <trkpt lat="47.35969" lon="0.00544">
        <ele>76.08</ele>
        <time>2012-08-15T07:27:19Z</time>
      </trkpt>
      <trkpt lat="47.35938" lon="0.00513">
        <ele>74.64</ele>
        <time>2012-08-15T07:27:26Z</time>
      </trkpt>
      <trkpt lat="47.35906" lon="0.00491">
        <ele>74.64</ele>
        <time>2012-08-15T07:27:33Z</time>
      </trkpt>
      <trkpt lat="47.35892" lon="0.00484">
        <ele>74.16</ele>
        <time>2012-08-15T07:27:37Z</time>
      </trkpt>
      <trkpt lat="47.35884" lon="0.00482">
        <ele>73.68</ele>
        <time>2012-08-15T07:27:40Z</time>
      </trkpt>
      <trkpt lat="47.35885" lon="0.00501">
        <ele>73.2</ele>
        <time>2012-08-15T07:27:45Z</time>
      </trkpt>
      <trkpt lat="47.35882" lon="0.00521">
        <ele>71.76</ele>
        <time>2012-08-15T07:27:48Z</time>
      </trkpt>
      <trkpt lat="47.35881" lon="0.00527">
        <ele>71.27</ele>
        <time>2012-08-15T07:27:49Z</time>
      </trkpt>
      <trkpt lat="47.35885" lon="0.00563">
        <ele>70.31</ele>
        <time>2012-08-15T07:27:54Z</time>
      </trkpt>
      <trkpt lat="47.35891" lon="0.00575">
        <ele>69.35</ele>
        <time>2012-08-15T07:27:56Z</time>
      </trkpt>
      <trkpt lat="47.35902" lon="0.00596">
        <ele>69.35</ele>
        <time>2012-08-15T07:28:00Z</time>
      </trkpt>
      <trkpt lat="47.35912" lon="0.00625">
        <ele>69.35</ele>
        <time>2012-08-15T07:28:05Z</time>
      </trkpt>
      <trkpt lat="47.35915" lon="0.00648">
        <ele>69.83</ele>
        <time>2012-08-15T07:28:09Z</time>
      </trkpt>
      <trkpt lat="47.35908" lon="0.00688">
        <ele>70.79</ele>
        <time>2012-08-15T07:28:16Z</time>
      </trkpt>
      <trkpt lat="47.35905" lon="0.00711">
        <ele>70.31</ele>
        <time>2012-08-15T07:28:20Z</time>
      </trkpt>
      <trkpt lat="47.35895" lon="0.00749">
        <ele>69.35</ele>
        <time>2012-08-15T07:28:26Z</time>
      </trkpt>
      <trkpt lat="47.35881" lon="0.00791">
        <ele>68.87</ele>
        <time>2012-08-15T07:28:33Z</time>
      </trkpt>
      <trkpt lat="47.35868" lon="0.00824">
        <ele>68.39</ele>
        <time>2012-08-15T07:28:39Z</time>
      </trkpt>
      <trkpt lat="47.35858" lon="0.0085">
        <ele>68.87</ele>
        <time>2012-08-15T07:28:44Z</time>
      </trkpt>
      <trkpt lat="47.35847" lon="0.00871">
        <ele>67.91</ele>
        <time>2012-08-15T07:28:48Z</time>
      </trkpt>
      <trkpt lat="47.35823" lon="0.00916">
        <ele>67.43</ele>
        <time>2012-08-15T07:28:55Z</time>
      </trkpt>
      <trkpt lat="47.35819" lon="0.00922">
        <ele>66.95</ele>
        <time>2012-08-15T07:28:56Z</time>
      </trkpt>
      <trkpt lat="47.35805" lon="0.00957">
        <ele>66.47</ele>
        <time>2012-08-15T07:29:02Z</time>
      </trkpt>
      <trkpt lat="47.35799" lon="0.00986">
        <ele>66.95</ele>
        <time>2012-08-15T07:29:07Z</time>
      </trkpt>
      <trkpt lat="47.358" lon="0.01014">
        <ele>66.47</ele>
        <time>2012-08-15T07:29:12Z</time>
      </trkpt>
      <trkpt lat="47.35802" lon="0.01041">
        <ele>66.95</ele>
        <time>2012-08-15T07:29:17Z</time>
      </trkpt>
      <trkpt lat="47.35797" lon="0.01057">
        <ele>66.95</ele>
        <time>2012-08-15T07:29:21Z</time>
      </trkpt>
      <trkpt lat="47.35788" lon="0.01073">
        <ele>66.95</ele>
        <time>2012-08-15T07:29:26Z</time>
      </trkpt>
      <trkpt lat="47.35772" lon="0.01101">
        <ele>65.99</ele>
        <time>2012-08-15T07:29:32Z</time>
      </trkpt>
      <trkpt lat="47.35767" lon="0.01108">
        <ele>65.51</ele>
        <time>2012-08-15T07:29:34Z</time>
      </trkpt>
      <trkpt lat="47.35754" lon="0.01103">
        <ele>64.55</ele>
        <time>2012-08-15T07:29:39Z</time>
      </trkpt>
      <trkpt lat="47.35744" lon="0.01093">
        <ele>63.58</ele>
        <time>2012-08-15T07:29:43Z</time>
      </trkpt>
      <trkpt lat="47.35735" lon="0.01083">
        <ele>63.58</ele>
        <time>2012-08-15T07:29:47Z</time>
      </trkpt>
      <trkpt lat="47.3572" lon="0.01088">
        <ele>62.62</ele>
        <time>2012-08-15T07:29:52Z</time>
      </trkpt>
      <trkpt lat="47.35711" lon="0.01085">
        <ele>61.66</ele>
        <time>2012-08-15T07:29:54Z</time>
      </trkpt>
      <trkpt lat="47.35689" lon="0.01086">
        <ele>61.18</ele>
        <time>2012-08-15T07:29:59Z</time>
      </trkpt>
      <trkpt lat="47.3566" lon="0.01097">
        <ele>61.18</ele>
        <time>2012-08-15T07:30:05Z</time>
      </trkpt>
      <trkpt lat="47.35643" lon="0.01112">
        <ele>60.7</ele>
        <time>2012-08-15T07:30:09Z</time>
      </trkpt>
      <trkpt lat="47.35622" lon="0.01113">
        <ele>60.22</ele>
        <time>2012-08-15T07:30:14Z</time>
      </trkpt>
      <trkpt lat="47.35592" lon="0.01117">
        <ele>59.74</ele>
        <time>2012-08-15T07:30:20Z</time>
      </trkpt>
      <trkpt lat="47.35583" lon="0.01121">
        <ele>58.3</ele>
        <time>2012-08-15T07:30:22Z</time>
      </trkpt>
      <trkpt lat="47.35567" lon="0.01125">
        <ele>58.78</ele>
        <time>2012-08-15T07:30:25Z</time>
      </trkpt>
      <trkpt lat="47.35541" lon="0.01138">
        <ele>56.86</ele>
        <time>2012-08-15T07:30:31Z</time>
      </trkpt>
      <trkpt lat="47.35518" lon="0.01157">
        <ele>54.45</ele>
        <time>2012-08-15T07:30:36Z</time>
      </trkpt>
      <trkpt lat="47.35503" lon="0.01167">
        <ele>53.97</ele>
        <time>2012-08-15T07:30:39Z</time>
      </trkpt>
      <trkpt lat="47.35477" lon="0.01182">
        <ele>54.45</ele>
        <time>2012-08-15T07:30:44Z</time>
      </trkpt>
      <trkpt lat="47.35452" lon="0.01204">
        <ele>54.93</ele>
        <time>2012-08-15T07:30:50Z</time>
      </trkpt>
      <trkpt lat="47.35435" lon="0.01228">
        <ele>55.89</ele>
        <time>2012-08-15T07:30:55Z</time>
      </trkpt>
      <trkpt lat="47.35432" lon="0.01234">
        <ele>54.93</ele>
        <time>2012-08-15T07:30:56Z</time>
      </trkpt>
      <trkpt lat="47.35415" lon="0.01263">
        <ele>55.89</ele>
        <time>2012-08-15T07:31:01Z</time>
      </trkpt>
      <trkpt lat="47.35394" lon="0.01294">
        <ele>55.89</ele>
        <time>2012-08-15T07:31:07Z</time>
      </trkpt>
      <trkpt lat="47.3539" lon="0.01298">
        <ele>56.86</ele>
        <time>2012-08-15T07:31:08Z</time>
      </trkpt>
      <trkpt lat="47.35371" lon="0.0132">
        <ele>57.34</ele>
        <time>2012-08-15T07:31:14Z</time>
      </trkpt>
      <trkpt lat="47.35366" lon="0.01326">
        <ele>58.3</ele>
        <time>2012-08-15T07:31:19Z</time>
      </trkpt>
      <trkpt lat="47.35366" lon="0.01326">
        <ele>57.82</ele>
        <time>2012-08-15T07:31:52Z</time>
      </trkpt>
      <trkpt lat="47.35363" lon="0.0135">
        <ele>56.86</ele>
        <time>2012-08-15T07:31:59Z</time>
      </trkpt>
      <trkpt lat="47.35369" lon="0.01384">
        <ele>56.86</ele>
        <time>2012-08-15T07:32:05Z</time>
      </trkpt>
      <trkpt lat="47.35377" lon="0.0142">
        <ele>56.37</ele>
        <time>2012-08-15T07:32:11Z</time>
      </trkpt>
      <trkpt lat="47.35387" lon="0.01467">
        <ele>56.37</ele>
        <time>2012-08-15T07:32:18Z</time>
      </trkpt>
      <trkpt lat="47.35391" lon="0.01499">
        <ele>56.37</ele>
        <time>2012-08-15T07:32:22Z</time>
      </trkpt>
      <trkpt lat="47.35395" lon="0.01516">
        <ele>55.89</ele>
        <time>2012-08-15T07:32:24Z</time>
      </trkpt>
      <trkpt lat="47.35406" lon="0.01566">
        <ele>55.89</ele>
        <time>2012-08-15T07:32:31Z</time>
      </trkpt>
      <trkpt lat="47.35409" lon="0.0158">
        <ele>56.86</ele>
        <time>2012-08-15T07:32:33Z</time>
      </trkpt>
      <trkpt lat="47.35413" lon="0.01608">
        <ele>58.3</ele>
        <time>2012-08-15T07:32:37Z</time>
      </trkpt>
      <trkpt lat="47.35421" lon="0.01646">
        <ele>57.34</ele>
        <time>2012-08-15T07:32:43Z</time>
      </trkpt>
      <trkpt lat="47.35432" lon="0.01674">
        <ele>57.82</ele>
        <time>2012-08-15T07:32:48Z</time>
      </trkpt>
      <trkpt lat="47.35437" lon="0.01711">
        <ele>58.3</ele>
        <time>2012-08-15T07:32:54Z</time>
      </trkpt>
      <trkpt lat="47.3544" lon="0.01723">
        <ele>58.3</ele>
        <time>2012-08-15T07:32:56Z</time>
      </trkpt>
      <trkpt lat="47.35443" lon="0.01744">
        <ele>58.3</ele>
        <time>2012-08-15T07:33:00Z</time>
      </trkpt>
      <trkpt lat="47.35452" lon="0.01779">
        <ele>58.3</ele>
        <time>2012-08-15T07:33:06Z</time>
      </trkpt>
      <trkpt lat="47.35458" lon="0.01809">
        <ele>59.26</ele>
        <time>2012-08-15T07:33:11Z</time>
      </trkpt>
      <trkpt lat="47.35464" lon="0.01836">
        <ele>58.3</ele>
        <time>2012-08-15T07:33:15Z</time>
      </trkpt>
      <trkpt lat="47.35472" lon="0.0188">
        <ele>59.74</ele>
        <time>2012-08-15T07:33:22Z</time>
      </trkpt>
      <trkpt lat="47.35478" lon="0.0191">
        <ele>59.26</ele>
        <time>2012-08-15T07:33:27Z</time>
      </trkpt>
      <trkpt lat="47.35485" lon="0.0194">
        <ele>59.74</ele>
        <time>2012-08-15T07:33:32Z</time>
      </trkpt>
      <trkpt lat="47.35493" lon="0.01977">
        <ele>60.7</ele>
        <time>2012-08-15T07:33:38Z</time>
      </trkpt>
      <trkpt lat="47.35496" lon="0.01997">
        <ele>60.22</ele>
        <time>2012-08-15T07:33:41Z</time>
      </trkpt>
      <trkpt lat="47.355" lon="0.02012">
        <ele>61.18</ele>
        <time>2012-08-15T07:33:43Z</time>
      </trkpt>
      <trkpt lat="47.35503" lon="0.02027">
        <ele>60.7</ele>
        <time>2012-08-15T07:33:45Z</time>
      </trkpt>
      <trkpt lat="47.3551" lon="0.02073">
        <ele>60.7</ele>
        <time>2012-08-15T07:33:51Z</time>
      </trkpt>
      <trkpt lat="47.35514" lon="0.02095">
        <ele>60.7</ele>
        <time>2012-08-15T07:33:54Z</time>
      </trkpt>
      <trkpt lat="47.35517" lon="0.02136">
        <ele>60.7</ele>
        <time>2012-08-15T07:34:00Z</time>
      </trkpt>
      <trkpt lat="47.35517" lon="0.02149">
        <ele>61.18</ele>
        <time>2012-08-15T07:34:02Z</time>
      </trkpt>
      <trkpt lat="47.35517" lon="0.02182">
        <ele>60.7</ele>
        <time>2012-08-15T07:34:08Z</time>
      </trkpt>
      <trkpt lat="47.35516" lon="0.02196">
        <ele>60.7</ele>
        <time>2012-08-15T07:34:11Z</time>
      </trkpt>
      <trkpt lat="47.35513" lon="0.02214">
        <ele>61.66</ele>
        <time>2012-08-15T07:34:18Z</time>
      </trkpt>
      <trkpt lat="47.35515" lon="0.02218">
        <ele>61.66</ele>
        <time>2012-08-15T07:34:21Z</time>
      </trkpt>
      <trkpt lat="47.35511" lon="0.02243">
        <ele>61.18</ele>
        <time>2012-08-15T07:34:28Z</time>
      </trkpt>
      <trkpt lat="47.35508" lon="0.02249">
        <ele>62.14</ele>
        <time>2012-08-15T07:34:34Z</time>
      </trkpt>
      <trkpt lat="47.35506" lon="0.02254">
        <ele>61.18</ele>
        <time>2012-08-15T07:34:37Z</time>
      </trkpt>
      <trkpt lat="47.35502" lon="0.02261">
        <ele>60.7</ele>
        <time>2012-08-15T07:34:44Z</time>
      </trkpt>
      <trkpt lat="47.35498" lon="0.02267">
        <ele>61.18</ele>
        <time>2012-08-15T07:34:51Z</time>
      </trkpt>
      <trkpt lat="47.35497" lon="0.0227">
        <ele>61.18</ele>
        <time>2012-08-15T07:34:58Z</time>
      </trkpt>
      <trkpt lat="47.35494" lon="0.02278">
        <ele>60.7</ele>
        <time>2012-08-15T07:35:04Z</time>
      </trkpt>
      <trkpt lat="47.35492" lon="0.02285">
        <ele>61.18</ele>
        <time>2012-08-15T07:35:12Z</time>
      </trkpt>
      <trkpt lat="47.35488" lon="0.02293">
        <ele>62.14</ele>
        <time>2012-08-15T07:35:20Z</time>
      </trkpt>
      <trkpt lat="47.35487" lon="0.02296">
        <ele>61.18</ele>
        <time>2012-08-15T07:35:24Z</time>
      </trkpt>
      <trkpt lat="47.35483" lon="0.0231">
        <ele>62.62</ele>
        <time>2012-08-15T07:35:33Z</time>
      </trkpt>
      <trkpt lat="47.35482" lon="0.02312">
        <ele>63.1</ele>
        <time>2012-08-15T07:35:39Z</time>
      </trkpt>
      <trkpt lat="47.35474" lon="0.02331">
        <ele>64.07</ele>
        <time>2012-08-15T07:35:47Z</time>
      </trkpt>
      <trkpt lat="47.35472" lon="0.02335">
        <ele>65.03</ele>
        <time>2012-08-15T07:35:49Z</time>
      </trkpt>
      <trkpt lat="47.35467" lon="0.02346">
        <ele>64.55</ele>
        <time>2012-08-15T07:35:55Z</time>
      </trkpt>
      <trkpt lat="47.35459" lon="0.02362">
        <ele>65.99</ele>
        <time>2012-08-15T07:36:02Z</time>
      </trkpt>
      <trkpt lat="47.35454" lon="0.02377">
        <ele>66.47</ele>
        <time>2012-08-15T07:36:08Z</time>
      </trkpt>
      <trkpt lat="47.35451" lon="0.02385">
        <ele>67.43</ele>
        <time>2012-08-15T07:36:11Z</time>
      </trkpt>
      <trkpt lat="47.35444" lon="0.02406">
        <ele>69.35</ele>
        <time>2012-08-15T07:36:18Z</time>
      </trkpt>
      <trkpt lat="47.35443" lon="0.0241">
        <ele>69.83</ele>
        <time>2012-08-15T07:36:19Z</time>
      </trkpt>
      <trkpt lat="47.35439" lon="0.02419">
        <ele>70.31</ele>
        <time>2012-08-15T07:36:22Z</time>
      </trkpt>
      <trkpt lat="47.3543" lon="0.02442">
        <ele>69.83</ele>
        <time>2012-08-15T07:36:29Z</time>
      </trkpt>
      <trkpt lat="47.35425" lon="0.02457">
        <ele>72.24</ele>
        <time>2012-08-15T07:36:35Z</time>
      </trkpt>
      <trkpt lat="47.3542" lon="0.02474">
        <ele>73.68</ele>
        <time>2012-08-15T07:36:41Z</time>
      </trkpt>
      <trkpt lat="47.35414" lon="0.02487">
        <ele>73.2</ele>
        <time>2012-08-15T07:36:46Z</time>
      </trkpt>
      <trkpt lat="47.35407" lon="0.02507">
        <ele>74.64</ele>
        <time>2012-08-15T07:36:53Z</time>
      </trkpt>
      <trkpt lat="47.35403" lon="0.02522">
        <ele>74.64</ele>
        <time>2012-08-15T07:36:58Z</time>
      </trkpt>
      <trkpt lat="47.35399" lon="0.02537">
        <ele>77.04</ele>
        <time>2012-08-15T07:37:03Z</time>
      </trkpt>
      <trkpt lat="47.35391" lon="0.02554">
        <ele>77.52</ele>
        <time>2012-08-15T07:37:09Z</time>
      </trkpt>
      <trkpt lat="47.35383" lon="0.02574">
        <ele>79.93</ele>
        <time>2012-08-15T07:37:15Z</time>
      </trkpt>
      <trkpt lat="47.35376" lon="0.02595">
        <ele>80.89</ele>
        <time>2012-08-15T07:37:22Z</time>
      </trkpt>
      <trkpt lat="47.35369" lon="0.02617">
        <ele>81.85</ele>
        <time>2012-08-15T07:37:29Z</time>
      </trkpt>
      <trkpt lat="47.35362" lon="0.02634">
        <ele>83.29</ele>
        <time>2012-08-15T07:37:36Z</time>
      </trkpt>
      <trkpt lat="47.35359" lon="0.02648">
        <ele>84.25</ele>
        <time>2012-08-15T07:37:42Z</time>
      </trkpt>
      <trkpt lat="47.35352" lon="0.02668">
        <ele>85.69</ele>
        <time>2012-08-15T07:37:49Z</time>
      </trkpt>
      <trkpt lat="47.35349" lon="0.02675">
        <ele>85.21</ele>
        <time>2012-08-15T07:37:51Z</time>
      </trkpt>
      <trkpt lat="47.35343" lon="0.02683">
        <ele>86.18</ele>
        <time>2012-08-15T07:37:55Z</time>
      </trkpt>
      <trkpt lat="47.35338" lon="0.0269">
        <ele>87.62</ele>
        <time>2012-08-15T07:37:58Z</time>
      </trkpt>
      <trkpt lat="47.35325" lon="0.02703">
        <ele>88.1</ele>
        <time>2012-08-15T07:38:05Z</time>
      </trkpt>
      <trkpt lat="47.35312" lon="0.02713">
        <ele>87.62</ele>
        <time>2012-08-15T07:38:12Z</time>
      </trkpt>
      <trkpt lat="47.3531" lon="0.02715">
        <ele>88.1</ele>
        <time>2012-08-15T07:38:18Z</time>
      </trkpt>
      <trkpt lat="47.35307" lon="0.02718">
        <ele>89.06</ele>
        <time>2012-08-15T07:38:30Z</time>
      </trkpt>
      <trkpt lat="47.35303" lon="0.02723">
        <ele>89.06</ele>
        <time>2012-08-15T07:38:39Z</time>
      </trkpt>
      <trkpt lat="47.35293" lon="0.02744">
        <ele>89.54</ele>
        <time>2012-08-15T07:38:46Z</time>
      </trkpt>
      <trkpt lat="47.35288" lon="0.02759">
        <ele>88.58</ele>
        <time>2012-08-15T07:38:52Z</time>
      </trkpt>
      <trkpt lat="47.35287" lon="0.02762">
        <ele>88.58</ele>
        <time>2012-08-15T07:38:59Z</time>
      </trkpt>
      <trkpt lat="47.35283" lon="0.02774">
        <ele>89.54</ele>
        <time>2012-08-15T07:39:05Z</time>
      </trkpt>
      <trkpt lat="47.35273" lon="0.02794">
        <ele>89.06</ele>
        <time>2012-08-15T07:39:11Z</time>
      </trkpt>
      <trkpt lat="47.35263" lon="0.02821">
        <ele>88.58</ele>
        <time>2012-08-15T07:39:17Z</time>
      </trkpt>
      <trkpt lat="47.35254" lon="0.02846">
        <ele>89.06</ele>
        <time>2012-08-15T07:39:23Z</time>
      </trkpt>
      <trkpt lat="47.35246" lon="0.02883">
        <ele>87.62</ele>
        <time>2012-08-15T07:39:30Z</time>
      </trkpt>
      <trkpt lat="47.35235" lon="0.02909">
        <ele>88.58</ele>
        <time>2012-08-15T07:39:36Z</time>
      </trkpt>
      <trkpt lat="47.35225" lon="0.02917">
        <ele>88.58</ele>
        <time>2012-08-15T07:39:41Z</time>
      </trkpt>
      <trkpt lat="47.35223" lon="0.02915">
        <ele>88.58</ele>
        <time>2012-08-15T07:39:43Z</time>
      </trkpt>
      <trkpt lat="47.35222" lon="0.02912">
        <ele>88.1</ele>
        <time>2012-08-15T07:39:46Z</time>
      </trkpt>
      <trkpt lat="47.35215" lon="0.02912">
        <ele>88.58</ele>
        <time>2012-08-15T07:39:52Z</time>
      </trkpt>
      <trkpt lat="47.3521" lon="0.02917">
        <ele>88.58</ele>
        <time>2012-08-15T07:39:57Z</time>
      </trkpt>
      <trkpt lat="47.35201" lon="0.0293">
        <ele>88.58</ele>
        <time>2012-08-15T07:40:04Z</time>
      </trkpt>
      <trkpt lat="47.35192" lon="0.02951">
        <ele>88.58</ele>
        <time>2012-08-15T07:40:10Z</time>
      </trkpt>
      <trkpt lat="47.35186" lon="0.02983">
        <ele>88.58</ele>
        <time>2012-08-15T07:40:16Z</time>
      </trkpt>
      <trkpt lat="47.35183" lon="0.03008">
        <ele>87.14</ele>
        <time>2012-08-15T07:40:22Z</time>
      </trkpt>
      <trkpt lat="47.35186" lon="0.03035">
        <ele>86.66</ele>
        <time>2012-08-15T07:40:28Z</time>
      </trkpt>
      <trkpt lat="47.35182" lon="0.0306">
        <ele>87.14</ele>
        <time>2012-08-15T07:40:34Z</time>
      </trkpt>
      <trkpt lat="47.35176" lon="0.03087">
        <ele>86.18</ele>
        <time>2012-08-15T07:40:39Z</time>
      </trkpt>
      <trkpt lat="47.35169" lon="0.03119">
        <ele>85.21</ele>
        <time>2012-08-15T07:40:44Z</time>
      </trkpt>
      <trkpt lat="47.35165" lon="0.03156">
        <ele>84.25</ele>
        <time>2012-08-15T07:40:50Z</time>
      </trkpt>
      <trkpt lat="47.35169" lon="0.03167">
        <ele>83.77</ele>
        <time>2012-08-15T07:40:53Z</time>
      </trkpt>
      <trkpt lat="47.35185" lon="0.03181">
        <ele>83.29</ele>
        <time>2012-08-15T07:40:59Z</time>
      </trkpt>
      <trkpt lat="47.35203" lon="0.03193">
        <ele>82.81</ele>
        <time>2012-08-15T07:41:04Z</time>
      </trkpt>
      <trkpt lat="47.35223" lon="0.03211">
        <ele>82.81</ele>
        <time>2012-08-15T07:41:09Z</time>
      </trkpt>
      <trkpt lat="47.35225" lon="0.03216">
        <ele>82.81</ele>
        <time>2012-08-15T07:41:10Z</time>
      </trkpt>
      <trkpt lat="47.35227" lon="0.03235">
        <ele>82.33</ele>
        <time>2012-08-15T07:41:13Z</time>
      </trkpt>
      <trkpt lat="47.35242" lon="0.03273">
        <ele>80.41</ele>
        <time>2012-08-15T07:41:19Z</time>
      </trkpt>
      <trkpt lat="47.3524" lon="0.0329">
        <ele>79.93</ele>
        <time>2012-08-15T07:41:22Z</time>
      </trkpt>
      <trkpt lat="47.35247" lon="0.03322">
        <ele>77.52</ele>
        <time>2012-08-15T07:41:26Z</time>
      </trkpt>
      <trkpt lat="47.35262" lon="0.03352">
        <ele>76.08</ele>
        <time>2012-08-15T07:41:30Z</time>
      </trkpt>
      <trkpt lat="47.35289" lon="0.03389">
        <ele>75.6</ele>
        <time>2012-08-15T07:41:36Z</time>
      </trkpt>
      <trkpt lat="47.35302" lon="0.03408">
        <ele>74.16</ele>
        <time>2012-08-15T07:41:39Z</time>
      </trkpt>
      <trkpt lat="47.35324" lon="0.03433">
        <ele>72.24</ele>
        <time>2012-08-15T07:41:45Z</time>
      </trkpt>
      <trkpt lat="47.35345" lon="0.03455">
        <ele>70.31</ele>
        <time>2012-08-15T07:41:50Z</time>
      </trkpt>
      <trkpt lat="47.35373" lon="0.03477">
        <ele>66.95</ele>
        <time>2012-08-15T07:41:55Z</time>
      </trkpt>
      <trkpt lat="47.35391" lon="0.035">
        <ele>65.51</ele>
        <time>2012-08-15T07:41:58Z</time>
      </trkpt>
      <trkpt lat="47.35403" lon="0.03523">
        <ele>63.58</ele>
        <time>2012-08-15T07:42:01Z</time>
      </trkpt>
      <trkpt lat="47.35418" lon="0.0354">
        <ele>62.62</ele>
        <time>2012-08-15T07:42:04Z</time>
      </trkpt>
      <trkpt lat="47.35422" lon="0.03544">
        <ele>61.66</ele>
        <time>2012-08-15T07:42:05Z</time>
      </trkpt>
      <trkpt lat="47.35425" lon="0.0355">
        <ele>61.66</ele>
        <time>2012-08-15T07:42:06Z</time>
      </trkpt>
      <trkpt lat="47.35428" lon="0.03556">
        <ele>61.66</ele>
        <time>2012-08-15T07:42:07Z</time>
      </trkpt>
      <trkpt lat="47.35434" lon="0.03563">
        <ele>61.18</ele>
        <time>2012-08-15T07:42:12Z</time>
      </trkpt>
      <trkpt lat="47.35434" lon="0.03563">
        <ele>59.74</ele>
        <time>2012-08-15T07:42:25Z</time>
      </trkpt>
      <trkpt lat="47.35433" lon="0.03566">
        <ele>58.3</ele>
        <time>2012-08-15T07:43:13Z</time>
      </trkpt>
      <trkpt lat="47.35437" lon="0.03567">
        <ele>59.74</ele>
        <time>2012-08-15T07:43:39Z</time>
      </trkpt>
      <trkpt lat="47.3544" lon="0.03567">
        <ele>59.26</ele>
        <time>2012-08-15T07:43:40Z</time>
      </trkpt>
      <trkpt lat="47.35444" lon="0.03566">
        <ele>59.26</ele>
        <time>2012-08-15T07:43:41Z</time>
      </trkpt>
      <trkpt lat="47.35449" lon="0.03566">
        <ele>59.26</ele>
        <time>2012-08-15T07:43:42Z</time>
      </trkpt>
      <trkpt lat="47.35453" lon="0.03565">
        <ele>58.78</ele>
        <time>2012-08-15T07:43:43Z</time>
      </trkpt>
      <trkpt lat="47.35489" lon="0.03572">
        <ele>58.3</ele>
        <time>2012-08-15T07:43:50Z</time>
      </trkpt>
      <trkpt lat="47.35497" lon="0.03571">
        <ele>59.26</ele>
        <time>2012-08-15T07:43:52Z</time>
      </trkpt>
      <trkpt lat="47.35524" lon="0.03567">
        <ele>58.78</ele>
        <time>2012-08-15T07:43:58Z</time>
      </trkpt>
      <trkpt lat="47.35544" lon="0.03563">
        <ele>60.22</ele>
        <time>2012-08-15T07:44:03Z</time>
      </trkpt>
      <trkpt lat="47.35556" lon="0.0356">
        <ele>61.18</ele>
        <time>2012-08-15T07:44:07Z</time>
      </trkpt>
      <trkpt lat="47.35569" lon="0.0356">
        <ele>61.18</ele>
        <time>2012-08-15T07:44:12Z</time>
      </trkpt>
      <trkpt lat="47.35583" lon="0.03561">
        <ele>61.18</ele>
        <time>2012-08-15T07:44:17Z</time>
      </trkpt>
      <trkpt lat="47.35592" lon="0.03562">
        <ele>61.66</ele>
        <time>2012-08-15T07:44:22Z</time>
      </trkpt>
      <trkpt lat="47.35604" lon="0.03565">
        <ele>64.55</ele>
        <time>2012-08-15T07:44:28Z</time>
      </trkpt>
      <trkpt lat="47.35621" lon="0.03569">
        <ele>64.07</ele>
        <time>2012-08-15T07:44:34Z</time>
      </trkpt>
      <trkpt lat="47.35632" lon="0.03569">
        <ele>65.03</ele>
        <time>2012-08-15T07:44:38Z</time>
      </trkpt>
      <trkpt lat="47.35642" lon="0.0357">
        <ele>65.51</ele>
        <time>2012-08-15T07:44:42Z</time>
      </trkpt>
      <trkpt lat="47.35658" lon="0.03572">
        <ele>65.99</ele>
        <time>2012-08-15T07:44:48Z</time>
      </trkpt>
      <trkpt lat="47.35661" lon="0.03571">
        <ele>65.99</ele>
        <time>2012-08-15T07:44:49Z</time>
      </trkpt>
      <trkpt lat="47.35664" lon="0.0357">
        <ele>65.99</ele>
        <time>2012-08-15T07:44:50Z</time>
      </trkpt>
      <trkpt lat="47.35667" lon="0.03568">
        <ele>66.47</ele>
        <time>2012-08-15T07:44:51Z</time>
      </trkpt>
      <trkpt lat="47.3567" lon="0.03566">
        <ele>66.47</ele>
        <time>2012-08-15T07:44:52Z</time>
      </trkpt>
      <trkpt lat="47.35672" lon="0.03566">
        <ele>66.95</ele>
        <time>2012-08-15T07:44:53Z</time>
      </trkpt>
      <trkpt lat="47.35675" lon="0.03564">
        <ele>66.95</ele>
        <time>2012-08-15T07:44:54Z</time>
      </trkpt>
      <trkpt lat="47.35678" lon="0.03562">
        <ele>67.43</ele>
        <time>2012-08-15T07:44:55Z</time>
      </trkpt>
      <trkpt lat="47.3568" lon="0.0356">
        <ele>67.43</ele>
        <time>2012-08-15T07:44:56Z</time>
      </trkpt>
      <trkpt lat="47.35683" lon="0.03558">
        <ele>68.39</ele>
        <time>2012-08-15T07:44:57Z</time>
      </trkpt>
      <trkpt lat="47.35686" lon="0.03556">
        <ele>68.39</ele>
        <time>2012-08-15T07:44:58Z</time>
      </trkpt>
      <trkpt lat="47.35701" lon="0.03548">
        <ele>69.83</ele>
        <time>2012-08-15T07:45:03Z</time>
      </trkpt>
      <trkpt lat="47.35713" lon="0.03538">
        <ele>70.79</ele>
        <time>2012-08-15T07:45:08Z</time>
      </trkpt>
      <trkpt lat="47.35714" lon="0.03535">
        <ele>71.76</ele>
        <time>2012-08-15T07:45:09Z</time>
      </trkpt>
      <trkpt lat="47.35715" lon="0.03534">
        <ele>71.27</ele>
        <time>2012-08-15T07:45:10Z</time>
      </trkpt>
      <trkpt lat="47.35718" lon="0.03531">
        <ele>70.79</ele>
        <time>2012-08-15T07:45:11Z</time>
      </trkpt>
      <trkpt lat="47.35721" lon="0.03529">
        <ele>72.24</ele>
        <time>2012-08-15T07:45:12Z</time>
      </trkpt>
      <trkpt lat="47.35723" lon="0.03526">
        <ele>72.24</ele>
        <time>2012-08-15T07:45:13Z</time>
      </trkpt>
      <trkpt lat="47.35739" lon="0.03509">
        <ele>74.16</ele>
        <time>2012-08-15T07:45:19Z</time>
      </trkpt>
      <trkpt lat="47.35751" lon="0.0349">
        <ele>74.16</ele>
        <time>2012-08-15T07:45:24Z</time>
      </trkpt>
      <trkpt lat="47.35763" lon="0.03476">
        <ele>75.6</ele>
        <time>2012-08-15T07:45:30Z</time>
      </trkpt>
      <trkpt lat="47.35781" lon="0.03458">
        <ele>76.08</ele>
        <time>2012-08-15T07:45:36Z</time>
      </trkpt>
      <trkpt lat="47.35796" lon="0.03458">
        <ele>77.04</ele>
        <time>2012-08-15T07:45:42Z</time>
      </trkpt>
      <trkpt lat="47.35816" lon="0.03456">
        <ele>79.93</ele>
        <time>2012-08-15T07:45:47Z</time>
      </trkpt>
      <trkpt lat="47.35819" lon="0.03456">
        <ele>78.97</ele>
        <time>2012-08-15T07:45:48Z</time>
      </trkpt>
      <trkpt lat="47.35829" lon="0.03456">
        <ele>80.41</ele>
        <time>2012-08-15T07:45:52Z</time>
      </trkpt>
      <trkpt lat="47.35831" lon="0.03456">
        <ele>79.93</ele>
        <time>2012-08-15T07:45:53Z</time>
      </trkpt>
      <trkpt lat="47.35833" lon="0.03457">
        <ele>79.45</ele>
        <time>2012-08-15T07:45:54Z</time>
      </trkpt>
      <trkpt lat="47.35835" lon="0.03457">
        <ele>80.89</ele>
        <time>2012-08-15T07:45:55Z</time>
      </trkpt>
      <trkpt lat="47.35837" lon="0.03457">
        <ele>79.93</ele>
        <time>2012-08-15T07:45:56Z</time>
      </trkpt>
      <trkpt lat="47.35839" lon="0.03458">
        <ele>81.37</ele>
        <time>2012-08-15T07:45:57Z</time>
      </trkpt>
      <trkpt lat="47.35858" lon="0.03461">
        <ele>80.89</ele>
        <time>2012-08-15T07:46:02Z</time>
      </trkpt>
      <trkpt lat="47.35881" lon="0.03459">
        <ele>81.37</ele>
        <time>2012-08-15T07:46:08Z</time>
      </trkpt>
      <trkpt lat="47.35907" lon="0.03459">
        <ele>80.89</ele>
        <time>2012-08-15T07:46:15Z</time>
      </trkpt>
      <trkpt lat="47.35939" lon="0.03457">
        <ele>81.37</ele>
        <time>2012-08-15T07:46:25Z</time>
      </trkpt>
      <trkpt lat="47.35957" lon="0.03457">
        <ele>80.89</ele>
        <time>2012-08-15T07:46:31Z</time>
      </trkpt>
      <trkpt lat="47.35959" lon="0.03453">
        <ele>81.37</ele>
        <time>2012-08-15T07:46:32Z</time>
      </trkpt>
      <trkpt lat="47.35983" lon="0.03418">
        <ele>82.33</ele>
        <time>2012-08-15T07:46:42Z</time>
      </trkpt>
      <trkpt lat="47.35993" lon="0.03403">
        <ele>83.77</ele>
        <time>2012-08-15T07:46:46Z</time>
      </trkpt>
      <trkpt lat="47.36003" lon="0.03387">
        <ele>83.29</ele>
        <time>2012-08-15T07:46:51Z</time>
      </trkpt>
      <trkpt lat="47.36005" lon="0.03386">
        <ele>83.29</ele>
        <time>2012-08-15T07:46:52Z</time>
      </trkpt>
      <trkpt lat="47.36007" lon="0.03387">
        <ele>83.29</ele>
        <time>2012-08-15T07:46:53Z</time>
      </trkpt>
      <trkpt lat="47.3601" lon="0.03389">
        <ele>83.29</ele>
        <time>2012-08-15T07:46:54Z</time>
      </trkpt>
      <trkpt lat="47.36024" lon="0.03402">
        <ele>81.85</ele>
        <time>2012-08-15T07:46:58Z</time>
      </trkpt>
      <trkpt lat="47.36039" lon="0.03418">
        <ele>79.45</ele>
        <time>2012-08-15T07:47:02Z</time>
      </trkpt>
      <trkpt lat="47.36047" lon="0.03425">
        <ele>78.48</ele>
        <time>2012-08-15T07:47:04Z</time>
      </trkpt>
      <trkpt lat="47.36064" lon="0.03432">
        <ele>76.08</ele>
        <time>2012-08-15T07:47:08Z</time>
      </trkpt>
      <trkpt lat="47.3608" lon="0.03435">
        <ele>75.12</ele>
        <time>2012-08-15T07:47:11Z</time>
      </trkpt>
      <trkpt lat="47.36108" lon="0.03454">
        <ele>73.2</ele>
        <time>2012-08-15T07:47:17Z</time>
      </trkpt>
      <trkpt lat="47.36111" lon="0.0346">
        <ele>73.2</ele>
        <time>2012-08-15T07:47:18Z</time>
      </trkpt>
      <trkpt lat="47.36132" lon="0.0349">
        <ele>73.68</ele>
        <time>2012-08-15T07:47:24Z</time>
      </trkpt>
      <trkpt lat="47.36135" lon="0.03494">
        <ele>73.68</ele>
        <time>2012-08-15T07:47:25Z</time>
      </trkpt>
      <trkpt lat="47.36154" lon="0.0351">
        <ele>75.6</ele>
        <time>2012-08-15T07:47:32Z</time>
      </trkpt>
      <trkpt lat="47.36157" lon="0.03512">
        <ele>75.6</ele>
        <time>2012-08-15T07:47:33Z</time>
      </trkpt>
      <trkpt lat="47.36175" lon="0.03518">
        <ele>76.56</ele>
        <time>2012-08-15T07:47:39Z</time>
      </trkpt>
      <trkpt lat="47.36186" lon="0.03521">
        <ele>77.52</ele>
        <time>2012-08-15T07:47:43Z</time>
      </trkpt>
      <trkpt lat="47.36202" lon="0.03528">
        <ele>78.48</ele>
        <time>2012-08-15T07:47:49Z</time>
      </trkpt>
      <trkpt lat="47.36216" lon="0.03534">
        <ele>78.48</ele>
        <time>2012-08-15T07:47:54Z</time>
      </trkpt>
      <trkpt lat="47.3623" lon="0.03545">
        <ele>78.97</ele>
        <time>2012-08-15T07:47:59Z</time>
      </trkpt>
      <trkpt lat="47.36239" lon="0.03553">
        <ele>78.48</ele>
        <time>2012-08-15T07:48:02Z</time>
      </trkpt>
      <trkpt lat="47.36249" lon="0.03568">
        <ele>78</ele>
        <time>2012-08-15T07:48:06Z</time>
      </trkpt>
      <trkpt lat="47.36262" lon="0.03581">
        <ele>77.04</ele>
        <time>2012-08-15T07:48:09Z</time>
      </trkpt>
      <trkpt lat="47.36272" lon="0.0359">
        <ele>76.08</ele>
        <time>2012-08-15T07:48:11Z</time>
      </trkpt>
      <trkpt lat="47.36292" lon="0.03606">
        <ele>75.12</ele>
        <time>2012-08-15T07:48:15Z</time>
      </trkpt>
      <trkpt lat="47.36314" lon="0.03635">
        <ele>72.72</ele>
        <time>2012-08-15T07:48:20Z</time>
      </trkpt>
      <trkpt lat="47.36339" lon="0.03673">
        <ele>71.27</ele>
        <time>2012-08-15T07:48:25Z</time>
      </trkpt>
      <trkpt lat="47.36368" lon="0.03719">
        <ele>70.31</ele>
        <time>2012-08-15T07:48:32Z</time>
      </trkpt>
      <trkpt lat="47.36387" lon="0.03741">
        <ele>70.31</ele>
        <time>2012-08-15T07:48:37Z</time>
      </trkpt>
      <trkpt lat="47.36394" lon="0.03749">
        <ele>70.79</ele>
        <time>2012-08-15T07:48:39Z</time>
      </trkpt>
      <trkpt lat="47.36418" lon="0.03778">
        <ele>69.83</ele>
        <time>2012-08-15T07:48:46Z</time>
      </trkpt>
      <trkpt lat="47.36426" lon="0.03793">
        <ele>70.31</ele>
        <time>2012-08-15T07:48:49Z</time>
      </trkpt>
      <trkpt lat="47.3644" lon="0.0382">
        <ele>67.91</ele>
        <time>2012-08-15T07:48:54Z</time>
      </trkpt>
      <trkpt lat="47.36453" lon="0.03846">
        <ele>67.43</ele>
        <time>2012-08-15T07:48:59Z</time>
      </trkpt>
      <trkpt lat="47.36457" lon="0.03852">
        <ele>66.95</ele>
        <time>2012-08-15T07:49:00Z</time>
      </trkpt>
      <trkpt lat="47.36479" lon="0.03885">
        <ele>66.47</ele>
        <time>2012-08-15T07:49:06Z</time>
      </trkpt>
      <trkpt lat="47.36486" lon="0.03894">
        <ele>66.47</ele>
        <time>2012-08-15T07:49:08Z</time>
      </trkpt>
      <trkpt lat="47.36498" lon="0.03914">
        <ele>65.99</ele>
        <time>2012-08-15T07:49:12Z</time>
      </trkpt>
      <trkpt lat="47.36514" lon="0.03945">
        <ele>65.03</ele>
        <time>2012-08-15T07:49:17Z</time>
      </trkpt>
      <trkpt lat="47.36525" lon="0.03965">
        <ele>64.55</ele>
        <time>2012-08-15T07:49:20Z</time>
      </trkpt>
      <trkpt lat="47.36535" lon="0.03992">
        <ele>63.1</ele>
        <time>2012-08-15T07:49:23Z</time>
      </trkpt>
      <trkpt lat="47.36538" lon="0.04">
        <ele>63.58</ele>
        <time>2012-08-15T07:49:24Z</time>
      </trkpt>
      <trkpt lat="47.36554" lon="0.04033">
        <ele>66.47</ele>
        <time>2012-08-15T07:49:30Z</time>
      </trkpt>
      <trkpt lat="47.36581" lon="0.04076">
        <ele>67.91</ele>
        <time>2012-08-15T07:49:37Z</time>
      </trkpt>
      <trkpt lat="47.36598" lon="0.04104">
        <ele>68.39</ele>
        <time>2012-08-15T07:49:42Z</time>
      </trkpt>
      <trkpt lat="47.36607" lon="0.04118">
        <ele>68.39</ele>
        <time>2012-08-15T07:49:45Z</time>
      </trkpt>
      <trkpt lat="47.36617" lon="0.04137">
        <ele>68.39</ele>
        <time>2012-08-15T07:49:48Z</time>
      </trkpt>
      <trkpt lat="47.36623" lon="0.0416">
        <ele>70.31</ele>
        <time>2012-08-15T07:49:52Z</time>
      </trkpt>
      <trkpt lat="47.36628" lon="0.04194">
        <ele>70.31</ele>
        <time>2012-08-15T07:49:58Z</time>
      </trkpt>
      <trkpt lat="47.36632" lon="0.04227">
        <ele>71.27</ele>
        <time>2012-08-15T07:50:04Z</time>
      </trkpt>
      <trkpt lat="47.36638" lon="0.04254">
        <ele>71.27</ele>
        <time>2012-08-15T07:50:09Z</time>
      </trkpt>
      <trkpt lat="47.36642" lon="0.04264">
        <ele>72.24</ele>
        <time>2012-08-15T07:50:11Z</time>
      </trkpt>
      <trkpt lat="47.3665" lon="0.04289">
        <ele>74.64</ele>
        <time>2012-08-15T07:50:16Z</time>
      </trkpt>
      <trkpt lat="47.3666" lon="0.04316">
        <ele>73.68</ele>
        <time>2012-08-15T07:50:21Z</time>
      </trkpt>
      <trkpt lat="47.36675" lon="0.0435">
        <ele>74.16</ele>
        <time>2012-08-15T07:50:27Z</time>
      </trkpt>
      <trkpt lat="47.36694" lon="0.04386">
        <ele>74.64</ele>
        <time>2012-08-15T07:50:33Z</time>
      </trkpt>
      <trkpt lat="47.36712" lon="0.04427">
        <ele>72.72</ele>
        <time>2012-08-15T07:50:39Z</time>
      </trkpt>
      <trkpt lat="47.36724" lon="0.04446">
        <ele>74.64</ele>
        <time>2012-08-15T07:50:42Z</time>
      </trkpt>
      <trkpt lat="47.36735" lon="0.04465">
        <ele>73.2</ele>
        <time>2012-08-15T07:50:45Z</time>
      </trkpt>
      <trkpt lat="47.36738" lon="0.04471">
        <ele>73.68</ele>
        <time>2012-08-15T07:50:46Z</time>
      </trkpt>
      <trkpt lat="47.36752" lon="0.04506">
        <ele>74.64</ele>
        <time>2012-08-15T07:50:52Z</time>
      </trkpt>
      <trkpt lat="47.36762" lon="0.04535">
        <ele>73.68</ele>
        <time>2012-08-15T07:50:56Z</time>
      </trkpt>
      <trkpt lat="47.36777" lon="0.04577">
        <ele>74.64</ele>
        <time>2012-08-15T07:51:03Z</time>
      </trkpt>
      <trkpt lat="47.36787" lon="0.04601">
        <ele>75.12</ele>
        <time>2012-08-15T07:51:07Z</time>
      </trkpt>
      <trkpt lat="47.36798" lon="0.04619">
        <ele>75.6</ele>
        <time>2012-08-15T07:51:10Z</time>
      </trkpt>
      <trkpt lat="47.36822" lon="0.04654">
        <ele>76.56</ele>
        <time>2012-08-15T07:51:17Z</time>
      </trkpt>
      <trkpt lat="47.3684" lon="0.04681">
        <ele>77.04</ele>
        <time>2012-08-15T07:51:22Z</time>
      </trkpt>
      <trkpt lat="47.36873" lon="0.04724">
        <ele>77.52</ele>
        <time>2012-08-15T07:51:31Z</time>
      </trkpt>
      <trkpt lat="47.36876" lon="0.04729">
        <ele>77.52</ele>
        <time>2012-08-15T07:51:32Z</time>
      </trkpt>
      <trkpt lat="47.36912" lon="0.04771">
        <ele>77.52</ele>
        <time>2012-08-15T07:51:41Z</time>
      </trkpt>
      <trkpt lat="47.36927" lon="0.0479">
        <ele>76.08</ele>
        <time>2012-08-15T07:51:47Z</time>
      </trkpt>
      <trkpt lat="47.36948" lon="0.04807">
        <ele>77.52</ele>
        <time>2012-08-15T07:51:55Z</time>
      </trkpt>
      <trkpt lat="47.36975" lon="0.04817">
        <ele>77.52</ele>
        <time>2012-08-15T07:52:03Z</time>
      </trkpt>
      <trkpt lat="47.36991" lon="0.04823">
        <ele>77.52</ele>
        <time>2012-08-15T07:52:09Z</time>
      </trkpt>
      <trkpt lat="47.37006" lon="0.04826">
        <ele>78.48</ele>
        <time>2012-08-15T07:52:14Z</time>
      </trkpt>
      <trkpt lat="47.37022" lon="0.04834">
        <ele>77.04</ele>
        <time>2012-08-15T07:52:19Z</time>
      </trkpt>
      <trkpt lat="47.37041" lon="0.04843">
        <ele>78</ele>
        <time>2012-08-15T07:52:26Z</time>
      </trkpt>
      <trkpt lat="47.37043" lon="0.04845">
        <ele>77.52</ele>
        <time>2012-08-15T07:52:27Z</time>
      </trkpt>
      <trkpt lat="47.37045" lon="0.04849">
        <ele>77.52</ele>
        <time>2012-08-15T07:52:28Z</time>
      </trkpt>
      <trkpt lat="47.37048" lon="0.04854">
        <ele>78</ele>
        <time>2012-08-15T07:52:33Z</time>
      </trkpt>
      <trkpt lat="47.37048" lon="0.04854">
        <ele>78.48</ele>
        <time>2012-08-15T07:53:02Z</time>
      </trkpt>
      <trkpt lat="47.37048" lon="0.04854">
        <ele>78.48</ele>
        <time>2012-08-15T07:53:05Z</time>
      </trkpt>
      <trkpt lat="47.37049" lon="0.04857">
        <ele>78.97</ele>
        <time>2012-08-15T07:53:07Z</time>
      </trkpt>
      <trkpt lat="47.37041" lon="0.04874">
        <ele>78.48</ele>
        <time>2012-08-15T07:53:14Z</time>
      </trkpt>
      <trkpt lat="47.37032" lon="0.04897">
        <ele>77.52</ele>
        <time>2012-08-15T07:53:19Z</time>
      </trkpt>
      <trkpt lat="47.37017" lon="0.04936">
        <ele>78.48</ele>
        <time>2012-08-15T07:53:26Z</time>
      </trkpt>
      <trkpt lat="47.37014" lon="0.04942">
        <ele>77.52</ele>
        <time>2012-08-15T07:53:27Z</time>
      </trkpt>
      <trkpt lat="47.37012" lon="0.04947">
        <ele>78</ele>
        <time>2012-08-15T07:53:28Z</time>
      </trkpt>
      <trkpt lat="47.3701" lon="0.04953">
        <ele>77.04</ele>
        <time>2012-08-15T07:53:29Z</time>
      </trkpt>
      <trkpt lat="47.37008" lon="0.04958">
        <ele>77.04</ele>
        <time>2012-08-15T07:53:30Z</time>
      </trkpt>
      <trkpt lat="47.37008" lon="0.04963">
        <ele>76.56</ele>
        <time>2012-08-15T07:53:31Z</time>
      </trkpt>
      <trkpt lat="47.37008" lon="0.04968">
        <ele>76.56</ele>
        <time>2012-08-15T07:53:32Z</time>
      </trkpt>
      <trkpt lat="47.37009" lon="0.04974">
        <ele>76.56</ele>
        <time>2012-08-15T07:53:33Z</time>
      </trkpt>
      <trkpt lat="47.37009" lon="0.04979">
        <ele>76.56</ele>
        <time>2012-08-15T07:53:34Z</time>
      </trkpt>
      <trkpt lat="47.3701" lon="0.04984">
        <ele>76.08</ele>
        <time>2012-08-15T07:53:35Z</time>
      </trkpt>
      <trkpt lat="47.37011" lon="0.0499">
        <ele>76.56</ele>
        <time>2012-08-15T07:53:36Z</time>
      </trkpt>
      <trkpt lat="47.37012" lon="0.04996">
        <ele>76.56</ele>
        <time>2012-08-15T07:53:37Z</time>
      </trkpt>
      <trkpt lat="47.37013" lon="0.05001">
        <ele>76.56</ele>
        <time>2012-08-15T07:53:38Z</time>
      </trkpt>
      <trkpt lat="47.37016" lon="0.05026">
        <ele>76.56</ele>
        <time>2012-08-15T07:53:42Z</time>
      </trkpt>
      <trkpt lat="47.37019" lon="0.05045">
        <ele>76.08</ele>
        <time>2012-08-15T07:53:45Z</time>
      </trkpt>
      <trkpt lat="47.3702" lon="0.05052">
        <ele>76.56</ele>
        <time>2012-08-15T07:53:46Z</time>
      </trkpt>
      <trkpt lat="47.37024" lon="0.05073">
        <ele>76.08</ele>
        <time>2012-08-15T07:53:49Z</time>
      </trkpt>
      <trkpt lat="47.37025" lon="0.0508">
        <ele>76.08</ele>
        <time>2012-08-15T07:53:50Z</time>
      </trkpt>
      <trkpt lat="47.37036" lon="0.05135">
        <ele>76.56</ele>
        <time>2012-08-15T07:53:57Z</time>
      </trkpt>
      <trkpt lat="47.37041" lon="0.05174">
        <ele>77.04</ele>
        <time>2012-08-15T07:54:02Z</time>
      </trkpt>
      <trkpt lat="47.37048" lon="0.05221">
        <ele>77.04</ele>
        <time>2012-08-15T07:54:08Z</time>
      </trkpt>
      <trkpt lat="47.37049" lon="0.05229">
        <ele>76.08</ele>
        <time>2012-08-15T07:54:09Z</time>
      </trkpt>
      <trkpt lat="47.3705" lon="0.05237">
        <ele>77.04</ele>
        <time>2012-08-15T07:54:10Z</time>
      </trkpt>
      <trkpt lat="47.3705" lon="0.05244">
        <ele>76.56</ele>
        <time>2012-08-15T07:54:11Z</time>
      </trkpt>
      <trkpt lat="47.37052" lon="0.05251">
        <ele>76.08</ele>
        <time>2012-08-15T07:54:12Z</time>
      </trkpt>
      <trkpt lat="47.37053" lon="0.05259">
        <ele>77.52</ele>
        <time>2012-08-15T07:54:13Z</time>
      </trkpt>
      <trkpt lat="47.3706" lon="0.0529">
        <ele>78.48</ele>
        <time>2012-08-15T07:54:17Z</time>
      </trkpt>
      <trkpt lat="47.3707" lon="0.05325">
        <ele>78.48</ele>
        <time>2012-08-15T07:54:22Z</time>
      </trkpt>
      <trkpt lat="47.37073" lon="0.05332">
        <ele>78.48</ele>
        <time>2012-08-15T07:54:23Z</time>
      </trkpt>
      <trkpt lat="47.37074" lon="0.05339">
        <ele>78.48</ele>
        <time>2012-08-15T07:54:24Z</time>
      </trkpt>
      <trkpt lat="47.37076" lon="0.05346">
        <ele>78.97</ele>
        <time>2012-08-15T07:54:25Z</time>
      </trkpt>
      <trkpt lat="47.37078" lon="0.05353">
        <ele>78.48</ele>
        <time>2012-08-15T07:54:26Z</time>
      </trkpt>
      <trkpt lat="47.3708" lon="0.0536">
        <ele>78.48</ele>
        <time>2012-08-15T07:54:27Z</time>
      </trkpt>
      <trkpt lat="47.37083" lon="0.05375">
        <ele>79.45</ele>
        <time>2012-08-15T07:54:29Z</time>
      </trkpt>
      <trkpt lat="47.37086" lon="0.05382">
        <ele>78.97</ele>
        <time>2012-08-15T07:54:30Z</time>
      </trkpt>
      <trkpt lat="47.37088" lon="0.0539">
        <ele>78.48</ele>
        <time>2012-08-15T07:54:31Z</time>
      </trkpt>
      <trkpt lat="47.37089" lon="0.05398">
        <ele>78.48</ele>
        <time>2012-08-15T07:54:32Z</time>
      </trkpt>
      <trkpt lat="47.37091" lon="0.05405">
        <ele>78.97</ele>
        <time>2012-08-15T07:54:33Z</time>
      </trkpt>
      <trkpt lat="47.37092" lon="0.05413">
        <ele>78</ele>
        <time>2012-08-15T07:54:34Z</time>
      </trkpt>
      <trkpt lat="47.37097" lon="0.05434">
        <ele>77.52</ele>
        <time>2012-08-15T07:54:37Z</time>
      </trkpt>
      <trkpt lat="47.37098" lon="0.05441">
        <ele>78</ele>
        <time>2012-08-15T07:54:38Z</time>
      </trkpt>
      <trkpt lat="47.371" lon="0.05447">
        <ele>78.48</ele>
        <time>2012-08-15T07:54:39Z</time>
      </trkpt>
      <trkpt lat="47.37103" lon="0.05453">
        <ele>77.52</ele>
        <time>2012-08-15T07:54:40Z</time>
      </trkpt>
      <trkpt lat="47.37106" lon="0.05459">
        <ele>77.52</ele>
        <time>2012-08-15T07:54:41Z</time>
      </trkpt>
      <trkpt lat="47.37109" lon="0.05466">
        <ele>77.52</ele>
        <time>2012-08-15T07:54:42Z</time>
      </trkpt>
      <trkpt lat="47.37113" lon="0.05473">
        <ele>78</ele>
        <time>2012-08-15T07:54:43Z</time>
      </trkpt>
      <trkpt lat="47.37125" lon="0.05496">
        <ele>77.52</ele>
        <time>2012-08-15T07:54:46Z</time>
      </trkpt>
      <trkpt lat="47.37128" lon="0.05503">
        <ele>78</ele>
        <time>2012-08-15T07:54:47Z</time>
      </trkpt>
      <trkpt lat="47.37155" lon="0.05547">
        <ele>77.04</ele>
        <time>2012-08-15T07:54:54Z</time>
      </trkpt>
      <trkpt lat="47.37174" lon="0.05587">
        <ele>77.52</ele>
        <time>2012-08-15T07:55:00Z</time>
      </trkpt>
      <trkpt lat="47.37196" lon="0.05632">
        <ele>78</ele>
        <time>2012-08-15T07:55:07Z</time>
      </trkpt>
      <trkpt lat="47.37214" lon="0.0567">
        <ele>78</ele>
        <time>2012-08-15T07:55:13Z</time>
      </trkpt>
      <trkpt lat="47.37217" lon="0.05675">
        <ele>79.45</ele>
        <time>2012-08-15T07:55:14Z</time>
      </trkpt>
      <trkpt lat="47.3722" lon="0.05682">
        <ele>79.45</ele>
        <time>2012-08-15T07:55:15Z</time>
      </trkpt>
      <trkpt lat="47.37223" lon="0.05689">
        <ele>79.45</ele>
        <time>2012-08-15T07:55:16Z</time>
      </trkpt>
      <trkpt lat="47.37226" lon="0.05695">
        <ele>78.48</ele>
        <time>2012-08-15T07:55:17Z</time>
      </trkpt>
      <trkpt lat="47.37231" lon="0.05709">
        <ele>78.97</ele>
        <time>2012-08-15T07:55:19Z</time>
      </trkpt>
      <trkpt lat="47.37234" lon="0.05716">
        <ele>78.97</ele>
        <time>2012-08-15T07:55:20Z</time>
      </trkpt>
      <trkpt lat="47.37238" lon="0.05722">
        <ele>78.97</ele>
        <time>2012-08-15T07:55:21Z</time>
      </trkpt>
      <trkpt lat="47.37248" lon="0.05741">
        <ele>78.97</ele>
        <time>2012-08-15T07:55:24Z</time>
      </trkpt>
      <trkpt lat="47.37251" lon="0.05747">
        <ele>78.48</ele>
        <time>2012-08-15T07:55:25Z</time>
      </trkpt>
      <trkpt lat="47.37255" lon="0.05753">
        <ele>79.45</ele>
        <time>2012-08-15T07:55:26Z</time>
      </trkpt>
      <trkpt lat="47.37262" lon="0.05767">
        <ele>79.93</ele>
        <time>2012-08-15T07:55:28Z</time>
      </trkpt>
      <trkpt lat="47.37265" lon="0.05774">
        <ele>79.93</ele>
        <time>2012-08-15T07:55:29Z</time>
      </trkpt>
      <trkpt lat="47.37277" lon="0.05802">
        <ele>81.85</ele>
        <time>2012-08-15T07:55:33Z</time>
      </trkpt>
      <trkpt lat="47.37281" lon="0.05808">
        <ele>80.89</ele>
        <time>2012-08-15T07:55:34Z</time>
      </trkpt>
      <trkpt lat="47.37284" lon="0.05815">
        <ele>80.89</ele>
        <time>2012-08-15T07:55:35Z</time>
      </trkpt>
      <trkpt lat="47.37288" lon="0.05821">
        <ele>80.41</ele>
        <time>2012-08-15T07:55:36Z</time>
      </trkpt>
      <trkpt lat="47.37292" lon="0.05826">
        <ele>81.37</ele>
        <time>2012-08-15T07:55:37Z</time>
      </trkpt>
      <trkpt lat="47.37295" lon="0.05832">
        <ele>82.33</ele>
        <time>2012-08-15T07:55:38Z</time>
      </trkpt>
      <trkpt lat="47.37299" lon="0.05839">
        <ele>82.33</ele>
        <time>2012-08-15T07:55:39Z</time>
      </trkpt>
      <trkpt lat="47.37302" lon="0.05846">
        <ele>81.85</ele>
        <time>2012-08-15T07:55:40Z</time>
      </trkpt>
      <trkpt lat="47.37306" lon="0.05851">
        <ele>81.37</ele>
        <time>2012-08-15T07:55:41Z</time>
      </trkpt>
      <trkpt lat="47.37313" lon="0.05862">
        <ele>81.85</ele>
        <time>2012-08-15T07:55:43Z</time>
      </trkpt>
      <trkpt lat="47.37317" lon="0.05867">
        <ele>81.85</ele>
        <time>2012-08-15T07:55:44Z</time>
      </trkpt>
      <trkpt lat="47.37326" lon="0.05886">
        <ele>82.33</ele>
        <time>2012-08-15T07:55:47Z</time>
      </trkpt>
      <trkpt lat="47.37343" lon="0.05916">
        <ele>80.89</ele>
        <time>2012-08-15T07:55:52Z</time>
      </trkpt>
      <trkpt lat="47.37347" lon="0.05922">
        <ele>80.89</ele>
        <time>2012-08-15T07:55:53Z</time>
      </trkpt>
      <trkpt lat="47.37356" lon="0.05937">
        <ele>80.41</ele>
        <time>2012-08-15T07:55:55Z</time>
      </trkpt>
      <trkpt lat="47.37361" lon="0.05945">
        <ele>80.89</ele>
        <time>2012-08-15T07:55:56Z</time>
      </trkpt>
      <trkpt lat="47.37366" lon="0.05963">
        <ele>80.89</ele>
        <time>2012-08-15T07:55:58Z</time>
      </trkpt>
      <trkpt lat="47.37369" lon="0.05972">
        <ele>80.89</ele>
        <time>2012-08-15T07:55:59Z</time>
      </trkpt>
      <trkpt lat="47.37372" lon="0.05982">
        <ele>80.41</ele>
        <time>2012-08-15T07:56:00Z</time>
      </trkpt>
      <trkpt lat="47.37376" lon="0.05989">
        <ele>80.41</ele>
        <time>2012-08-15T07:56:01Z</time>
      </trkpt>
      <trkpt lat="47.37379" lon="0.05996">
        <ele>80.41</ele>
        <time>2012-08-15T07:56:02Z</time>
      </trkpt>
      <trkpt lat="47.3738" lon="0.06003">
        <ele>80.41</ele>
        <time>2012-08-15T07:56:03Z</time>
      </trkpt>
      <trkpt lat="47.37371" lon="0.06024">
        <ele>81.37</ele>
        <time>2012-08-15T07:56:07Z</time>
      </trkpt>
      <trkpt lat="47.37342" lon="0.06054">
        <ele>82.33</ele>
        <time>2012-08-15T07:56:14Z</time>
      </trkpt>
      <trkpt lat="47.37306" lon="0.06083">
        <ele>81.85</ele>
        <time>2012-08-15T07:56:21Z</time>
      </trkpt>
      <trkpt lat="47.37292" lon="0.06096">
        <ele>83.29</ele>
        <time>2012-08-15T07:56:24Z</time>
      </trkpt>
      <trkpt lat="47.37258" lon="0.06121">
        <ele>81.37</ele>
        <time>2012-08-15T07:56:31Z</time>
      </trkpt>
      <trkpt lat="47.37254" lon="0.06124">
        <ele>82.33</ele>
        <time>2012-08-15T07:56:32Z</time>
      </trkpt>
      <trkpt lat="47.37245" lon="0.06132">
        <ele>83.77</ele>
        <time>2012-08-15T07:56:34Z</time>
      </trkpt>
      <trkpt lat="47.3723" lon="0.06143">
        <ele>83.77</ele>
        <time>2012-08-15T07:56:37Z</time>
      </trkpt>
      <trkpt lat="47.37202" lon="0.06165">
        <ele>83.29</ele>
        <time>2012-08-15T07:56:43Z</time>
      </trkpt>
      <trkpt lat="47.37161" lon="0.06196">
        <ele>85.69</ele>
        <time>2012-08-15T07:56:51Z</time>
      </trkpt>
      <trkpt lat="47.37138" lon="0.06214">
        <ele>84.73</ele>
        <time>2012-08-15T07:56:56Z</time>
      </trkpt>
      <trkpt lat="47.37099" lon="0.06245">
        <ele>84.73</ele>
        <time>2012-08-15T07:57:04Z</time>
      </trkpt>
      <trkpt lat="47.3709" lon="0.06252">
        <ele>84.73</ele>
        <time>2012-08-15T07:57:06Z</time>
      </trkpt>
      <trkpt lat="47.37076" lon="0.06264">
        <ele>85.69</ele>
        <time>2012-08-15T07:57:09Z</time>
      </trkpt>
      <trkpt lat="47.37066" lon="0.06272">
        <ele>85.21</ele>
        <time>2012-08-15T07:57:11Z</time>
      </trkpt>
      <trkpt lat="47.37022" lon="0.06308">
        <ele>85.21</ele>
        <time>2012-08-15T07:57:20Z</time>
      </trkpt>
      <trkpt lat="47.37008" lon="0.06321">
        <ele>84.73</ele>
        <time>2012-08-15T07:57:23Z</time>
      </trkpt>
      <trkpt lat="47.36994" lon="0.06332">
        <ele>82.81</ele>
        <time>2012-08-15T07:57:26Z</time>
      </trkpt>
      <trkpt lat="47.3698" lon="0.06343">
        <ele>83.29</ele>
        <time>2012-08-15T07:57:29Z</time>
      </trkpt>
      <trkpt lat="47.36955" lon="0.06359">
        <ele>80.89</ele>
        <time>2012-08-15T07:57:34Z</time>
      </trkpt>
      <trkpt lat="47.36942" lon="0.06369">
        <ele>81.37</ele>
        <time>2012-08-15T07:57:37Z</time>
      </trkpt>
      <trkpt lat="47.36937" lon="0.06367">
        <ele>79.93</ele>
        <time>2012-08-15T07:57:38Z</time>
      </trkpt>
      <trkpt lat="47.36932" lon="0.06363">
        <ele>79.93</ele>
        <time>2012-08-15T07:57:39Z</time>
      </trkpt>
      <trkpt lat="47.36928" lon="0.06359">
        <ele>78.97</ele>
        <time>2012-08-15T07:57:40Z</time>
      </trkpt>
      <trkpt lat="47.36904" lon="0.06328">
        <ele>79.93</ele>
        <time>2012-08-15T07:57:47Z</time>
      </trkpt>
      <trkpt lat="47.36901" lon="0.06328">
        <ele>79.45</ele>
        <time>2012-08-15T07:57:48Z</time>
      </trkpt>
      <trkpt lat="47.36891" lon="0.06327">
        <ele>78.97</ele>
        <time>2012-08-15T07:57:52Z</time>
      </trkpt>
      <trkpt lat="47.36887" lon="0.06325">
        <ele>79.45</ele>
        <time>2012-08-15T07:57:55Z</time>
      </trkpt>
      <trkpt lat="47.36884" lon="0.06327">
        <ele>78.97</ele>
        <time>2012-08-15T07:57:57Z</time>
      </trkpt>
      <trkpt lat="47.36883" lon="0.06334">
        <ele>78</ele>
        <time>2012-08-15T07:58:02Z</time>
      </trkpt>
      <trkpt lat="47.36876" lon="0.06343">
        <ele>78.97</ele>
        <time>2012-08-15T07:58:06Z</time>
      </trkpt>
      <trkpt lat="47.3684" lon="0.06358">
        <ele>77.52</ele>
        <time>2012-08-15T07:58:14Z</time>
      </trkpt>
      <trkpt lat="47.36824" lon="0.06366">
        <ele>75.6</ele>
        <time>2012-08-15T07:58:17Z</time>
      </trkpt>
      <trkpt lat="47.36811" lon="0.06373">
        <ele>74.16</ele>
        <time>2012-08-15T07:58:19Z</time>
      </trkpt>
      <trkpt lat="47.3677" lon="0.06393">
        <ele>70.31</ele>
        <time>2012-08-15T07:58:24Z</time>
      </trkpt>
      <trkpt lat="47.36753" lon="0.06401">
        <ele>68.87</ele>
        <time>2012-08-15T07:58:26Z</time>
      </trkpt>
      <trkpt lat="47.36725" lon="0.0641">
        <ele>68.39</ele>
        <time>2012-08-15T07:58:30Z</time>
      </trkpt>
      <trkpt lat="47.36714" lon="0.06415">
        <ele>67.43</ele>
        <time>2012-08-15T07:58:32Z</time>
      </trkpt>
      <trkpt lat="47.367" lon="0.06425">
        <ele>67.91</ele>
        <time>2012-08-15T07:58:35Z</time>
      </trkpt>
      <trkpt lat="47.36677" lon="0.06436">
        <ele>68.87</ele>
        <time>2012-08-15T07:58:40Z</time>
      </trkpt>
      <trkpt lat="47.36646" lon="0.0645">
        <ele>69.83</ele>
        <time>2012-08-15T07:58:48Z</time>
      </trkpt>
      <trkpt lat="47.36633" lon="0.06455">
        <ele>72.24</ele>
        <time>2012-08-15T07:58:52Z</time>
      </trkpt>
      <trkpt lat="47.36609" lon="0.06467">
        <ele>73.2</ele>
        <time>2012-08-15T07:59:00Z</time>
      </trkpt>
      <trkpt lat="47.36603" lon="0.06469">
        <ele>74.16</ele>
        <time>2012-08-15T07:59:02Z</time>
      </trkpt>
      <trkpt lat="47.36578" lon="0.06474">
        <ele>76.08</ele>
        <time>2012-08-15T07:59:10Z</time>
      </trkpt>
      <trkpt lat="47.36547" lon="0.06486">
        <ele>77.04</ele>
        <time>2012-08-15T07:59:19Z</time>
      </trkpt>
      <trkpt lat="47.36523" lon="0.06496">
        <ele>79.45</ele>
        <time>2012-08-15T07:59:26Z</time>
      </trkpt>
      <trkpt lat="47.36495" lon="0.06507">
        <ele>81.37</ele>
        <time>2012-08-15T07:59:34Z</time>
      </trkpt>
      <trkpt lat="47.36468" lon="0.06521">
        <ele>82.81</ele>
        <time>2012-08-15T07:59:42Z</time>
      </trkpt>
      <trkpt lat="47.36437" lon="0.06538">
        <ele>83.29</ele>
        <time>2012-08-15T07:59:51Z</time>
      </trkpt>
      <trkpt lat="47.36418" lon="0.06546">
        <ele>84.25</ele>
        <time>2012-08-15T07:59:56Z</time>
      </trkpt>
      <trkpt lat="47.36378" lon="0.06564">
        <ele>85.21</ele>
        <time>2012-08-15T08:00:05Z</time>
      </trkpt>
      <trkpt lat="47.36352" lon="0.06576">
        <ele>85.21</ele>
        <time>2012-08-15T08:00:11Z</time>
      </trkpt>
      <trkpt lat="47.36344" lon="0.06579">
        <ele>85.21</ele>
        <time>2012-08-15T08:00:13Z</time>
      </trkpt>
      <trkpt lat="47.36309" lon="0.06595">
        <ele>83.77</ele>
        <time>2012-08-15T08:00:21Z</time>
      </trkpt>
      <trkpt lat="47.363" lon="0.06599">
        <ele>83.29</ele>
        <time>2012-08-15T08:00:23Z</time>
      </trkpt>
      <trkpt lat="47.36281" lon="0.06607">
        <ele>83.29</ele>
        <time>2012-08-15T08:00:27Z</time>
      </trkpt>
      <trkpt lat="47.36257" lon="0.06619">
        <ele>83.29</ele>
        <time>2012-08-15T08:00:32Z</time>
      </trkpt>
      <trkpt lat="47.36223" lon="0.06634">
        <ele>83.29</ele>
        <time>2012-08-15T08:00:39Z</time>
      </trkpt>
      <trkpt lat="47.36183" lon="0.06653">
        <ele>83.29</ele>
        <time>2012-08-15T08:00:47Z</time>
      </trkpt>
      <trkpt lat="47.36178" lon="0.06656">
        <ele>82.81</ele>
        <time>2012-08-15T08:00:48Z</time>
      </trkpt>
      <trkpt lat="47.36168" lon="0.0666">
        <ele>81.37</ele>
        <time>2012-08-15T08:00:50Z</time>
      </trkpt>
      <trkpt lat="47.3613" lon="0.06678">
        <ele>82.33</ele>
        <time>2012-08-15T08:00:57Z</time>
      </trkpt>
      <trkpt lat="47.36108" lon="0.06688">
        <ele>81.85</ele>
        <time>2012-08-15T08:01:01Z</time>
      </trkpt>
      <trkpt lat="47.36087" lon="0.06698">
        <ele>81.37</ele>
        <time>2012-08-15T08:01:05Z</time>
      </trkpt>
      <trkpt lat="47.36037" lon="0.06719">
        <ele>80.89</ele>
        <time>2012-08-15T08:01:14Z</time>
      </trkpt>
      <trkpt lat="47.36004" lon="0.06729">
        <ele>79.93</ele>
        <time>2012-08-15T08:01:20Z</time>
      </trkpt>
      <trkpt lat="47.35957" lon="0.06741">
        <ele>78.48</ele>
        <time>2012-08-15T08:01:29Z</time>
      </trkpt>
      <trkpt lat="47.35941" lon="0.06745">
        <ele>77.52</ele>
        <time>2012-08-15T08:01:32Z</time>
      </trkpt>
      <trkpt lat="47.35895" lon="0.06759">
        <ele>77.52</ele>
        <time>2012-08-15T08:01:41Z</time>
      </trkpt>
      <trkpt lat="47.3589" lon="0.06761">
        <ele>77.52</ele>
        <time>2012-08-15T08:01:42Z</time>
      </trkpt>
      <trkpt lat="47.35885" lon="0.06763">
        <ele>77.52</ele>
        <time>2012-08-15T08:01:43Z</time>
      </trkpt>
      <trkpt lat="47.35882" lon="0.06762">
        <ele>78</ele>
        <time>2012-08-15T08:01:44Z</time>
      </trkpt>
      <trkpt lat="47.35879" lon="0.06759">
        <ele>78</ele>
        <time>2012-08-15T08:01:45Z</time>
      </trkpt>
      <trkpt lat="47.35876" lon="0.06756">
        <ele>77.04</ele>
        <time>2012-08-15T08:01:46Z</time>
      </trkpt>
      <trkpt lat="47.35872" lon="0.06754">
        <ele>77.52</ele>
        <time>2012-08-15T08:01:47Z</time>
      </trkpt>
      <trkpt lat="47.35868" lon="0.06754">
        <ele>77.04</ele>
        <time>2012-08-15T08:01:48Z</time>
      </trkpt>
      <trkpt lat="47.35865" lon="0.06753">
        <ele>78.48</ele>
        <time>2012-08-15T08:01:49Z</time>
      </trkpt>
      <trkpt lat="47.35847" lon="0.06753">
        <ele>77.52</ele>
        <time>2012-08-15T08:01:54Z</time>
      </trkpt>
      <trkpt lat="47.35835" lon="0.06747">
        <ele>78</ele>
        <time>2012-08-15T08:01:57Z</time>
      </trkpt>
      <trkpt lat="47.35831" lon="0.06743">
        <ele>77.52</ele>
        <time>2012-08-15T08:01:58Z</time>
      </trkpt>
      <trkpt lat="47.35827" lon="0.0674">
        <ele>77.04</ele>
        <time>2012-08-15T08:01:59Z</time>
      </trkpt>
      <trkpt lat="47.35824" lon="0.06735">
        <ele>77.04</ele>
        <time>2012-08-15T08:02:00Z</time>
      </trkpt>
      <trkpt lat="47.3582" lon="0.06731">
        <ele>77.04</ele>
        <time>2012-08-15T08:02:01Z</time>
      </trkpt>
      <trkpt lat="47.35816" lon="0.06725">
        <ele>76.56</ele>
        <time>2012-08-15T08:02:02Z</time>
      </trkpt>
      <trkpt lat="47.35806" lon="0.06706">
        <ele>77.52</ele>
        <time>2012-08-15T08:02:05Z</time>
      </trkpt>
      <trkpt lat="47.35802" lon="0.06699">
        <ele>78</ele>
        <time>2012-08-15T08:02:06Z</time>
      </trkpt>
      <trkpt lat="47.35793" lon="0.06683">
        <ele>77.04</ele>
        <time>2012-08-15T08:02:09Z</time>
      </trkpt>
      <trkpt lat="47.3579" lon="0.06678">
        <ele>76.56</ele>
        <time>2012-08-15T08:02:10Z</time>
      </trkpt>
      <trkpt lat="47.35786" lon="0.06674">
        <ele>76.08</ele>
        <time>2012-08-15T08:02:11Z</time>
      </trkpt>
      <trkpt lat="47.35783" lon="0.06672">
        <ele>75.6</ele>
        <time>2012-08-15T08:02:12Z</time>
      </trkpt>
      <trkpt lat="47.3578" lon="0.06672">
        <ele>76.08</ele>
        <time>2012-08-15T08:02:13Z</time>
      </trkpt>
      <trkpt lat="47.35763" lon="0.06689">
        <ele>74.16</ele>
        <time>2012-08-15T08:02:18Z</time>
      </trkpt>
      <trkpt lat="47.35745" lon="0.06714">
        <ele>72.72</ele>
        <time>2012-08-15T08:02:23Z</time>
      </trkpt>
      <trkpt lat="47.35734" lon="0.06716">
        <ele>71.27</ele>
        <time>2012-08-15T08:02:26Z</time>
      </trkpt>
      <trkpt lat="47.3571" lon="0.06701">
        <ele>69.35</ele>
        <time>2012-08-15T08:02:33Z</time>
      </trkpt>
      <trkpt lat="47.35691" lon="0.06692">
        <ele>67.43</ele>
        <time>2012-08-15T08:02:39Z</time>
      </trkpt>
      <trkpt lat="47.35691" lon="0.06692">
        <ele>66.95</ele>
        <time>2012-08-15T08:02:42Z</time>
      </trkpt>
      <trkpt lat="47.35685" lon="0.06688">
        <ele>67.91</ele>
        <time>2012-08-15T08:02:49Z</time>
      </trkpt>
      <trkpt lat="47.35684" lon="0.06688">
        <ele>67.43</ele>
        <time>2012-08-15T08:02:51Z</time>
      </trkpt>
      <trkpt lat="47.35667" lon="0.06675">
        <ele>66.47</ele>
        <time>2012-08-15T08:02:58Z</time>
      </trkpt>
      <trkpt lat="47.3565" lon="0.06668">
        <ele>65.99</ele>
        <time>2012-08-15T08:03:03Z</time>
      </trkpt>
      <trkpt lat="47.35632" lon="0.06659">
        <ele>65.51</ele>
        <time>2012-08-15T08:03:08Z</time>
      </trkpt>
      <trkpt lat="47.35614" lon="0.06638">
        <ele>63.1</ele>
        <time>2012-08-15T08:03:14Z</time>
      </trkpt>
      <trkpt lat="47.35609" lon="0.06628">
        <ele>65.03</ele>
        <time>2012-08-15T08:03:16Z</time>
      </trkpt>
      <trkpt lat="47.35594" lon="0.066">
        <ele>64.07</ele>
        <time>2012-08-15T08:03:21Z</time>
      </trkpt>
      <trkpt lat="47.35579" lon="0.06575">
        <ele>64.55</ele>
        <time>2012-08-15T08:03:26Z</time>
      </trkpt>
      <trkpt lat="47.35568" lon="0.06556">
        <ele>64.55</ele>
        <time>2012-08-15T08:03:30Z</time>
      </trkpt>
      <trkpt lat="47.35538" lon="0.06501">
        <ele>63.1</ele>
        <time>2012-08-15T08:03:40Z</time>
      </trkpt>
      <trkpt lat="47.35523" lon="0.06478">
        <ele>62.62</ele>
        <time>2012-08-15T08:03:45Z</time>
      </trkpt>
      <trkpt lat="47.35516" lon="0.06466">
        <ele>61.18</ele>
        <time>2012-08-15T08:03:48Z</time>
      </trkpt>
      <trkpt lat="47.35504" lon="0.06445">
        <ele>59.26</ele>
        <time>2012-08-15T08:03:52Z</time>
      </trkpt>
      <trkpt lat="47.35498" lon="0.06435">
        <ele>58.3</ele>
        <time>2012-08-15T08:03:54Z</time>
      </trkpt>
      <trkpt lat="47.3549" lon="0.06431">
        <ele>57.82</ele>
        <time>2012-08-15T08:03:58Z</time>
      </trkpt>
      <trkpt lat="47.35489" lon="0.06434">
        <ele>56.86</ele>
        <time>2012-08-15T08:03:59Z</time>
      </trkpt>
      <trkpt lat="47.35487" lon="0.06474">
        <ele>57.82</ele>
        <time>2012-08-15T08:04:07Z</time>
      </trkpt>
      <trkpt lat="47.35486" lon="0.06524">
        <ele>58.78</ele>
        <time>2012-08-15T08:04:15Z</time>
      </trkpt>
      <trkpt lat="47.35485" lon="0.06553">
        <ele>57.82</ele>
        <time>2012-08-15T08:04:19Z</time>
      </trkpt>
      <trkpt lat="47.35485" lon="0.0656">
        <ele>57.82</ele>
        <time>2012-08-15T08:04:20Z</time>
      </trkpt>
      <trkpt lat="47.35484" lon="0.06619">
        <ele>58.3</ele>
        <time>2012-08-15T08:04:28Z</time>
      </trkpt>
      <trkpt lat="47.35485" lon="0.06643">
        <ele>55.89</ele>
        <time>2012-08-15T08:04:31Z</time>
      </trkpt>
      <trkpt lat="47.35486" lon="0.06675">
        <ele>55.89</ele>
        <time>2012-08-15T08:04:35Z</time>
      </trkpt>
      <trkpt lat="47.35499" lon="0.06724">
        <ele>55.41</ele>
        <time>2012-08-15T08:04:42Z</time>
      </trkpt>
      <trkpt lat="47.35511" lon="0.06757">
        <ele>54.45</ele>
        <time>2012-08-15T08:04:48Z</time>
      </trkpt>
      <trkpt lat="47.35518" lon="0.06775">
        <ele>53.49</ele>
        <time>2012-08-15T08:04:54Z</time>
      </trkpt>
      <trkpt lat="47.35518" lon="0.06777">
        <ele>54.45</ele>
        <time>2012-08-15T08:05:02Z</time>
      </trkpt>
      <trkpt lat="47.35518" lon="0.06779">
        <ele>53.49</ele>
        <time>2012-08-15T08:05:09Z</time>
      </trkpt>
      <trkpt lat="47.35517" lon="0.0678">
        <ele>53.97</ele>
        <time>2012-08-15T08:05:10Z</time>
      </trkpt>
      <trkpt lat="47.35507" lon="0.0679">
        <ele>53.01</ele>
        <time>2012-08-15T08:05:16Z</time>
      </trkpt>
      <trkpt lat="47.35503" lon="0.06795">
        <ele>53.97</ele>
        <time>2012-08-15T08:05:18Z</time>
      </trkpt>
      <trkpt lat="47.35509" lon="0.06823">
        <ele>53.01</ele>
        <time>2012-08-15T08:05:25Z</time>
      </trkpt>
      <trkpt lat="47.35517" lon="0.06843">
        <ele>53.97</ele>
        <time>2012-08-15T08:05:31Z</time>
      </trkpt>
      <trkpt lat="47.35526" lon="0.06869">
        <ele>54.45</ele>
        <time>2012-08-15T08:05:38Z</time>
      </trkpt>
      <trkpt lat="47.35535" lon="0.06898">
        <ele>53.97</ele>
        <time>2012-08-15T08:05:45Z</time>
      </trkpt>
      <trkpt lat="47.35545" lon="0.06927">
        <ele>53.97</ele>
        <time>2012-08-15T08:05:52Z</time>
      </trkpt>
      <trkpt lat="47.35552" lon="0.0695">
        <ele>54.45</ele>
        <time>2012-08-15T08:05:57Z</time>
      </trkpt>
      <trkpt lat="47.35556" lon="0.06979">
        <ele>54.93</ele>
        <time>2012-08-15T08:06:03Z</time>
      </trkpt>
      <trkpt lat="47.35557" lon="0.07012">
        <ele>53.97</ele>
        <time>2012-08-15T08:06:09Z</time>
      </trkpt>
      <trkpt lat="47.35555" lon="0.07029">
        <ele>54.93</ele>
        <time>2012-08-15T08:06:12Z</time>
      </trkpt>
      <trkpt lat="47.3555" lon="0.07081">
        <ele>55.41</ele>
        <time>2012-08-15T08:06:20Z</time>
      </trkpt>
      <trkpt lat="47.35547" lon="0.07094">
        <ele>55.41</ele>
        <time>2012-08-15T08:06:22Z</time>
      </trkpt>
      <trkpt lat="47.35544" lon="0.0712">
        <ele>55.89</ele>
        <time>2012-08-15T08:06:26Z</time>
      </trkpt>
      <trkpt lat="47.35544" lon="0.07126">
        <ele>55.89</ele>
        <time>2012-08-15T08:06:27Z</time>
      </trkpt>
      <trkpt lat="47.35544" lon="0.07133">
        <ele>55.41</ele>
        <time>2012-08-15T08:06:28Z</time>
      </trkpt>
      <trkpt lat="47.35546" lon="0.07165">
        <ele>54.45</ele>
        <time>2012-08-15T08:06:33Z</time>
      </trkpt>
      <trkpt lat="47.35552" lon="0.07201">
        <ele>55.89</ele>
        <time>2012-08-15T08:06:39Z</time>
      </trkpt>
      <trkpt lat="47.35565" lon="0.07243">
        <ele>55.89</ele>
        <time>2012-08-15T08:06:46Z</time>
      </trkpt>
      <trkpt lat="47.35571" lon="0.07266">
        <ele>55.89</ele>
        <time>2012-08-15T08:06:50Z</time>
      </trkpt>
      <trkpt lat="47.3557" lon="0.07278">
        <ele>56.37</ele>
        <time>2012-08-15T08:06:52Z</time>
      </trkpt>
      <trkpt lat="47.3556" lon="0.07302">
        <ele>54.93</ele>
        <time>2012-08-15T08:06:57Z</time>
      </trkpt>
      <trkpt lat="47.35553" lon="0.07313">
        <ele>55.89</ele>
        <time>2012-08-15T08:07:01Z</time>
      </trkpt>
      <trkpt lat="47.35558" lon="0.07329">
        <ele>55.41</ele>
        <time>2012-08-15T08:07:06Z</time>
      </trkpt>
      <trkpt lat="47.35569" lon="0.07346">
        <ele>55.89</ele>
        <time>2012-08-15T08:07:11Z</time>
      </trkpt>
      <trkpt lat="47.35573" lon="0.07355">
        <ele>55.89</ele>
        <time>2012-08-15T08:07:13Z</time>
      </trkpt>
      <trkpt lat="47.35588" lon="0.07379">
        <ele>57.34</ele>
        <time>2012-08-15T08:07:19Z</time>
      </trkpt>
      <trkpt lat="47.35601" lon="0.07402">
        <ele>58.3</ele>
        <time>2012-08-15T08:07:25Z</time>
      </trkpt>
      <trkpt lat="47.35614" lon="0.07418">
        <ele>58.78</ele>
        <time>2012-08-15T08:07:30Z</time>
      </trkpt>
      <trkpt lat="47.35627" lon="0.07431">
        <ele>60.22</ele>
        <time>2012-08-15T08:07:35Z</time>
      </trkpt>
      <trkpt lat="47.35642" lon="0.07457">
        <ele>60.22</ele>
        <time>2012-08-15T08:07:41Z</time>
      </trkpt>
      <trkpt lat="47.35655" lon="0.07479">
        <ele>61.18</ele>
        <time>2012-08-15T08:07:46Z</time>
      </trkpt>
      <trkpt lat="47.3567" lon="0.07518">
        <ele>61.66</ele>
        <time>2012-08-15T08:07:53Z</time>
      </trkpt>
      <trkpt lat="47.35684" lon="0.07555">
        <ele>60.7</ele>
        <time>2012-08-15T08:07:59Z</time>
      </trkpt>
      <trkpt lat="47.35699" lon="0.0759">
        <ele>61.66</ele>
        <time>2012-08-15T08:08:05Z</time>
      </trkpt>
      <trkpt lat="47.35719" lon="0.07637">
        <ele>62.14</ele>
        <time>2012-08-15T08:08:14Z</time>
      </trkpt>
      <trkpt lat="47.35732" lon="0.07685">
        <ele>62.62</ele>
        <time>2012-08-15T08:08:22Z</time>
      </trkpt>
      <trkpt lat="47.35739" lon="0.07723">
        <ele>63.58</ele>
        <time>2012-08-15T08:08:29Z</time>
      </trkpt>
      <trkpt lat="47.35743" lon="0.07741">
        <ele>64.07</ele>
        <time>2012-08-15T08:08:34Z</time>
      </trkpt>
      <trkpt lat="47.35745" lon="0.07762">
        <ele>64.55</ele>
        <time>2012-08-15T08:08:40Z</time>
      </trkpt>
      <trkpt lat="47.35746" lon="0.07767">
        <ele>64.55</ele>
        <time>2012-08-15T08:08:42Z</time>
      </trkpt>
      <trkpt lat="47.35746" lon="0.0777">
        <ele>65.51</ele>
        <time>2012-08-15T08:08:43Z</time>
      </trkpt>
      <trkpt lat="47.35747" lon="0.07773">
        <ele>65.51</ele>
        <time>2012-08-15T08:08:44Z</time>
      </trkpt>
      <trkpt lat="47.35748" lon="0.07775">
        <ele>65.03</ele>
        <time>2012-08-15T08:08:45Z</time>
      </trkpt>
      <trkpt lat="47.3575" lon="0.07778">
        <ele>65.03</ele>
        <time>2012-08-15T08:08:46Z</time>
      </trkpt>
      <trkpt lat="47.3575" lon="0.07782">
        <ele>64.55</ele>
        <time>2012-08-15T08:08:47Z</time>
      </trkpt>
      <trkpt lat="47.3575" lon="0.07785">
        <ele>65.03</ele>
        <time>2012-08-15T08:08:48Z</time>
      </trkpt>
      <trkpt lat="47.35749" lon="0.07787">
        <ele>64.55</ele>
        <time>2012-08-15T08:08:52Z</time>
      </trkpt>
      <trkpt lat="47.35749" lon="0.07787">
        <ele>61.18</ele>
        <time>2012-08-15T08:09:01Z</time>
      </trkpt>
      <trkpt lat="47.35749" lon="0.07787">
        <ele>64.55</ele>
        <time>2012-08-15T08:09:06Z</time>
      </trkpt>
      <trkpt lat="47.3575" lon="0.07788">
        <ele>64.55</ele>
        <time>2012-08-15T08:09:50Z</time>
      </trkpt>
      <trkpt lat="47.3575" lon="0.07791">
        <ele>64.55</ele>
        <time>2012-08-15T08:09:51Z</time>
      </trkpt>
      <trkpt lat="47.35749" lon="0.07793">
        <ele>64.55</ele>
        <time>2012-08-15T08:09:52Z</time>
      </trkpt>
      <trkpt lat="47.35749" lon="0.07795">
        <ele>65.03</ele>
        <time>2012-08-15T08:09:53Z</time>
      </trkpt>
      <trkpt lat="47.35749" lon="0.07798">
        <ele>64.55</ele>
        <time>2012-08-15T08:09:54Z</time>
      </trkpt>
      <trkpt lat="47.35749" lon="0.07801">
        <ele>65.51</ele>
        <time>2012-08-15T08:09:55Z</time>
      </trkpt>
      <trkpt lat="47.35748" lon="0.07804">
        <ele>65.03</ele>
        <time>2012-08-15T08:09:56Z</time>
      </trkpt>
      <trkpt lat="47.35748" lon="0.07807">
        <ele>65.51</ele>
        <time>2012-08-15T08:09:57Z</time>
      </trkpt>
      <trkpt lat="47.35749" lon="0.07811">
        <ele>65.03</ele>
        <time>2012-08-15T08:09:58Z</time>
      </trkpt>
      <trkpt lat="47.35749" lon="0.07815">
        <ele>65.99</ele>
        <time>2012-08-15T08:09:59Z</time>
      </trkpt>
      <trkpt lat="47.35749" lon="0.07849">
        <ele>65.99</ele>
        <time>2012-08-15T08:10:08Z</time>
      </trkpt>
      <trkpt lat="47.3575" lon="0.07882">
        <ele>66.47</ele>
        <time>2012-08-15T08:10:16Z</time>
      </trkpt>
      <trkpt lat="47.35751" lon="0.07917">
        <ele>67.43</ele>
        <time>2012-08-15T08:10:23Z</time>
      </trkpt>
      <trkpt lat="47.35753" lon="0.07951">
        <ele>68.39</ele>
        <time>2012-08-15T08:10:30Z</time>
      </trkpt>
      <trkpt lat="47.35755" lon="0.07991">
        <ele>69.35</ele>
        <time>2012-08-15T08:10:38Z</time>
      </trkpt>
      <trkpt lat="47.35758" lon="0.08038">
        <ele>71.27</ele>
        <time>2012-08-15T08:10:49Z</time>
      </trkpt>
      <trkpt lat="47.35761" lon="0.08079">
        <ele>73.2</ele>
        <time>2012-08-15T08:10:58Z</time>
      </trkpt>
      <trkpt lat="47.35761" lon="0.08097">
        <ele>74.16</ele>
        <time>2012-08-15T08:11:02Z</time>
      </trkpt>
      <trkpt lat="47.35761" lon="0.08117">
        <ele>76.08</ele>
        <time>2012-08-15T08:11:08Z</time>
      </trkpt>
      <trkpt lat="47.35762" lon="0.08133">
        <ele>77.52</ele>
        <time>2012-08-15T08:11:14Z</time>
      </trkpt>
      <trkpt lat="47.35762" lon="0.08136">
        <ele>78</ele>
        <time>2012-08-15T08:11:15Z</time>
      </trkpt>
      <trkpt lat="47.35763" lon="0.08162">
        <ele>78.48</ele>
        <time>2012-08-15T08:11:22Z</time>
      </trkpt>
      <trkpt lat="47.35767" lon="0.08189">
        <ele>79.93</ele>
        <time>2012-08-15T08:11:28Z</time>
      </trkpt>
      <trkpt lat="47.35772" lon="0.08225">
        <ele>81.37</ele>
        <time>2012-08-15T08:11:35Z</time>
      </trkpt>
      <trkpt lat="47.35776" lon="0.08248">
        <ele>83.77</ele>
        <time>2012-08-15T08:11:41Z</time>
      </trkpt>
      <trkpt lat="47.35777" lon="0.08254">
        <ele>83.77</ele>
        <time>2012-08-15T08:11:42Z</time>
      </trkpt>
      <trkpt lat="47.35778" lon="0.08266">
        <ele>83.77</ele>
        <time>2012-08-15T08:11:44Z</time>
      </trkpt>
      <trkpt lat="47.35789" lon="0.08292">
        <ele>84.73</ele>
        <time>2012-08-15T08:11:50Z</time>
      </trkpt>
      <trkpt lat="47.35797" lon="0.08332">
        <ele>85.69</ele>
        <time>2012-08-15T08:11:58Z</time>
      </trkpt>
      <trkpt lat="47.35804" lon="0.08368">
        <ele>86.18</ele>
        <time>2012-08-15T08:12:04Z</time>
      </trkpt>
      <trkpt lat="47.35802" lon="0.08412">
        <ele>87.62</ele>
        <time>2012-08-15T08:12:11Z</time>
      </trkpt>
      <trkpt lat="47.35805" lon="0.0845">
        <ele>89.06</ele>
        <time>2012-08-15T08:12:17Z</time>
      </trkpt>
      <trkpt lat="47.35803" lon="0.08481">
        <ele>88.58</ele>
        <time>2012-08-15T08:12:23Z</time>
      </trkpt>
      <trkpt lat="47.35784" lon="0.08498">
        <ele>89.06</ele>
        <time>2012-08-15T08:12:29Z</time>
      </trkpt>
      <trkpt lat="47.35765" lon="0.08497">
        <ele>89.54</ele>
        <time>2012-08-15T08:12:34Z</time>
      </trkpt>
      <trkpt lat="47.35749" lon="0.08491">
        <ele>90.02</ele>
        <time>2012-08-15T08:12:38Z</time>
      </trkpt>
      <trkpt lat="47.35717" lon="0.08474">
        <ele>90.5</ele>
        <time>2012-08-15T08:12:46Z</time>
      </trkpt>
      <trkpt lat="47.35701" lon="0.08464">
        <ele>90.5</ele>
        <time>2012-08-15T08:12:50Z</time>
      </trkpt>
      <trkpt lat="47.35697" lon="0.08461">
        <ele>90.98</ele>
        <time>2012-08-15T08:12:51Z</time>
      </trkpt>
      <trkpt lat="47.35666" lon="0.08439">
        <ele>90.5</ele>
        <time>2012-08-15T08:12:59Z</time>
      </trkpt>
      <trkpt lat="47.35642" lon="0.08422">
        <ele>90.5</ele>
        <time>2012-08-15T08:13:05Z</time>
      </trkpt>
      <trkpt lat="47.35611" lon="0.08401">
        <ele>91.46</ele>
        <time>2012-08-15T08:13:13Z</time>
      </trkpt>
      <trkpt lat="47.35592" lon="0.08382">
        <ele>90.98</ele>
        <time>2012-08-15T08:13:19Z</time>
      </trkpt>
      <trkpt lat="47.35586" lon="0.08379">
        <ele>90.98</ele>
        <time>2012-08-15T08:13:21Z</time>
      </trkpt>
      <trkpt lat="47.35584" lon="0.08376">
        <ele>90.5</ele>
        <time>2012-08-15T08:13:22Z</time>
      </trkpt>
      <trkpt lat="47.35582" lon="0.08374">
        <ele>90.5</ele>
        <time>2012-08-15T08:13:23Z</time>
      </trkpt>
      <trkpt lat="47.35564" lon="0.08345">
        <ele>92.9</ele>
        <time>2012-08-15T08:13:30Z</time>
      </trkpt>
      <trkpt lat="47.35543" lon="0.08309">
        <ele>91.94</ele>
        <time>2012-08-15T08:13:38Z</time>
      </trkpt>
      <trkpt lat="47.35524" lon="0.08287">
        <ele>90.98</ele>
        <time>2012-08-15T08:13:45Z</time>
      </trkpt>
      <trkpt lat="47.35507" lon="0.08269">
        <ele>91.46</ele>
        <time>2012-08-15T08:13:51Z</time>
      </trkpt>
      <trkpt lat="47.35486" lon="0.08248">
        <ele>92.42</ele>
        <time>2012-08-15T08:13:57Z</time>
      </trkpt>
      <trkpt lat="47.35482" lon="0.08245">
        <ele>91.94</ele>
        <time>2012-08-15T08:13:58Z</time>
      </trkpt>
      <trkpt lat="47.35479" lon="0.08241">
        <ele>91.94</ele>
        <time>2012-08-15T08:13:59Z</time>
      </trkpt>
      <trkpt lat="47.35449" lon="0.08216">
        <ele>91.46</ele>
        <time>2012-08-15T08:14:07Z</time>
      </trkpt>
      <trkpt lat="47.35439" lon="0.08206">
        <ele>91.46</ele>
        <time>2012-08-15T08:14:10Z</time>
      </trkpt>
      <trkpt lat="47.35438" lon="0.08202">
        <ele>90.5</ele>
        <time>2012-08-15T08:14:11Z</time>
      </trkpt>
      <trkpt lat="47.35437" lon="0.08199">
        <ele>90.02</ele>
        <time>2012-08-15T08:14:12Z</time>
      </trkpt>
      <trkpt lat="47.35437" lon="0.08192">
        <ele>90.5</ele>
        <time>2012-08-15T08:14:18Z</time>
      </trkpt>
      <trkpt lat="47.35436" lon="0.08191">
        <ele>90.98</ele>
        <time>2012-08-15T08:14:23Z</time>
      </trkpt>
      <trkpt lat="47.35434" lon="0.08189">
        <ele>90.02</ele>
        <time>2012-08-15T08:14:28Z</time>
      </trkpt>
      <trkpt lat="47.35431" lon="0.08195">
        <ele>90.02</ele>
        <time>2012-08-15T08:14:32Z</time>
      </trkpt>
      <trkpt lat="47.35417" lon="0.08218">
        <ele>90.5</ele>
        <time>2012-08-15T08:14:39Z</time>
      </trkpt>
      <trkpt lat="47.3541" lon="0.0823">
        <ele>90.98</ele>
        <time>2012-08-15T08:14:43Z</time>
      </trkpt>
      <trkpt lat="47.35403" lon="0.08234">
        <ele>90.5</ele>
        <time>2012-08-15T08:14:49Z</time>
      </trkpt>
      <trkpt lat="47.35405" lon="0.08227">
        <ele>90.02</ele>
        <time>2012-08-15T08:14:54Z</time>
      </trkpt>
      <trkpt lat="47.35411" lon="0.08227">
        <ele>90.5</ele>
        <time>2012-08-15T08:14:58Z</time>
      </trkpt>
      <trkpt lat="47.35423" lon="0.08214">
        <ele>90.5</ele>
        <time>2012-08-15T08:15:05Z</time>
      </trkpt>
      <trkpt lat="47.35432" lon="0.08198">
        <ele>90.5</ele>
        <time>2012-08-15T08:15:10Z</time>
      </trkpt>
      <trkpt lat="47.35441" lon="0.08202">
        <ele>90.98</ele>
        <time>2012-08-15T08:15:15Z</time>
      </trkpt>
      <trkpt lat="47.35454" lon="0.08211">
        <ele>90.5</ele>
        <time>2012-08-15T08:15:20Z</time>
      </trkpt>
      <trkpt lat="47.35475" lon="0.08231">
        <ele>90.98</ele>
        <time>2012-08-15T08:15:27Z</time>
      </trkpt>
      <trkpt lat="47.35493" lon="0.08251">
        <ele>91.46</ele>
        <time>2012-08-15T08:15:33Z</time>
      </trkpt>
      <trkpt lat="47.35491" lon="0.08263">
        <ele>90.98</ele>
        <time>2012-08-15T08:15:37Z</time>
      </trkpt>
      <trkpt lat="47.35465" lon="0.0828">
        <ele>91.94</ele>
        <time>2012-08-15T08:15:45Z</time>
      </trkpt>
      <trkpt lat="47.35445" lon="0.08293">
        <ele>92.42</ele>
        <time>2012-08-15T08:15:50Z</time>
      </trkpt>
      <trkpt lat="47.35424" lon="0.08308">
        <ele>90.98</ele>
        <time>2012-08-15T08:15:56Z</time>
      </trkpt>
      <trkpt lat="47.35404" lon="0.08322">
        <ele>91.94</ele>
        <time>2012-08-15T08:16:01Z</time>
      </trkpt>
      <trkpt lat="47.35383" lon="0.08335">
        <ele>91.94</ele>
        <time>2012-08-15T08:16:06Z</time>
      </trkpt>
      <trkpt lat="47.35367" lon="0.08341">
        <ele>91.46</ele>
        <time>2012-08-15T08:16:09Z</time>
      </trkpt>
      <trkpt lat="47.35337" lon="0.08335">
        <ele>90.98</ele>
        <time>2012-08-15T08:16:14Z</time>
      </trkpt>
      <trkpt lat="47.35317" lon="0.08328">
        <ele>91.46</ele>
        <time>2012-08-15T08:16:18Z</time>
      </trkpt>
      <trkpt lat="47.35298" lon="0.08322">
        <ele>90.5</ele>
        <time>2012-08-15T08:16:22Z</time>
      </trkpt>
      <trkpt lat="47.3527" lon="0.08311">
        <ele>90.5</ele>
        <time>2012-08-15T08:16:28Z</time>
      </trkpt>
      <trkpt lat="47.35246" lon="0.08309">
        <ele>90.5</ele>
        <time>2012-08-15T08:16:33Z</time>
      </trkpt>
      <trkpt lat="47.35235" lon="0.08311">
        <ele>90.02</ele>
        <time>2012-08-15T08:16:35Z</time>
      </trkpt>
      <trkpt lat="47.35216" lon="0.08313">
        <ele>90.02</ele>
        <time>2012-08-15T08:16:39Z</time>
      </trkpt>
      <trkpt lat="47.35201" lon="0.08314">
        <ele>90.5</ele>
        <time>2012-08-15T08:16:42Z</time>
      </trkpt>
      <trkpt lat="47.3519" lon="0.08315">
        <ele>90.02</ele>
        <time>2012-08-15T08:16:44Z</time>
      </trkpt>
      <trkpt lat="47.35166" lon="0.08314">
        <ele>89.06</ele>
        <time>2012-08-15T08:16:48Z</time>
      </trkpt>
      <trkpt lat="47.35156" lon="0.0831">
        <ele>89.06</ele>
        <time>2012-08-15T08:16:50Z</time>
      </trkpt>
      <trkpt lat="47.35117" lon="0.08296">
        <ele>88.58</ele>
        <time>2012-08-15T08:16:57Z</time>
      </trkpt>
      <trkpt lat="47.35102" lon="0.0829">
        <ele>89.54</ele>
        <time>2012-08-15T08:17:00Z</time>
      </trkpt>
      <trkpt lat="47.35092" lon="0.08287">
        <ele>88.1</ele>
        <time>2012-08-15T08:17:02Z</time>
      </trkpt>
      <trkpt lat="47.35082" lon="0.08285">
        <ele>88.1</ele>
        <time>2012-08-15T08:17:04Z</time>
      </trkpt>
      <trkpt lat="47.35069" lon="0.08281">
        <ele>88.58</ele>
        <time>2012-08-15T08:17:07Z</time>
      </trkpt>
      <trkpt lat="47.35062" lon="0.08286">
        <ele>88.58</ele>
        <time>2012-08-15T08:17:10Z</time>
      </trkpt>
      <trkpt lat="47.35053" lon="0.08304">
        <ele>88.58</ele>
        <time>2012-08-15T08:17:15Z</time>
      </trkpt>
      <trkpt lat="47.35051" lon="0.08309">
        <ele>89.54</ele>
        <time>2012-08-15T08:17:16Z</time>
      </trkpt>
      <trkpt lat="47.35042" lon="0.08329">
        <ele>89.54</ele>
        <time>2012-08-15T08:17:21Z</time>
      </trkpt>
      <trkpt lat="47.35031" lon="0.08364">
        <ele>89.54</ele>
        <time>2012-08-15T08:17:27Z</time>
      </trkpt>
      <trkpt lat="47.35023" lon="0.08385">
        <ele>89.54</ele>
        <time>2012-08-15T08:17:31Z</time>
      </trkpt>
      <trkpt lat="47.35014" lon="0.08412">
        <ele>89.06</ele>
        <time>2012-08-15T08:17:35Z</time>
      </trkpt>
      <trkpt lat="47.35001" lon="0.08448">
        <ele>90.5</ele>
        <time>2012-08-15T08:17:40Z</time>
      </trkpt>
      <trkpt lat="47.34986" lon="0.08494">
        <ele>90.02</ele>
        <time>2012-08-15T08:17:47Z</time>
      </trkpt>
      <trkpt lat="47.34982" lon="0.08507">
        <ele>90.5</ele>
        <time>2012-08-15T08:17:49Z</time>
      </trkpt>
      <trkpt lat="47.34968" lon="0.0855">
        <ele>90.5</ele>
        <time>2012-08-15T08:17:56Z</time>
      </trkpt>
      <trkpt lat="47.34962" lon="0.08568">
        <ele>90.5</ele>
        <time>2012-08-15T08:17:59Z</time>
      </trkpt>
      <trkpt lat="47.34951" lon="0.08598">
        <ele>90.98</ele>
        <time>2012-08-15T08:18:05Z</time>
      </trkpt>
      <trkpt lat="47.34946" lon="0.0861">
        <ele>90.98</ele>
        <time>2012-08-15T08:18:07Z</time>
      </trkpt>
      <trkpt lat="47.34939" lon="0.08638">
        <ele>90.5</ele>
        <time>2012-08-15T08:18:11Z</time>
      </trkpt>
      <trkpt lat="47.34925" lon="0.08684">
        <ele>90.5</ele>
        <time>2012-08-15T08:18:18Z</time>
      </trkpt>
      <trkpt lat="47.3487" lon="0.0866">
        <ele>110</ele>
        <time>2012-08-15T08:18:18Z</time>
      </trkpt>
      <trkpt lat="47.34807" lon="0.08606">
        <ele>109.898438</ele>
        <time>2012-08-15T08:18:18Z</time>
      </trkpt>
      <trkpt lat="47.34744" lon="0.08544">
        <ele>108.632812</ele>
        <time>2012-08-15T08:18:18Z</time>
      </trkpt>
      <trkpt lat="47.34744" lon="0.08537">
        <ele>108.632812</ele>
        <time>2012-08-15T08:18:18Z</time>
      </trkpt>
      <trkpt lat="47.34662" lon="0.08452">
        <ele>106.6875</ele>
        <time>2012-08-15T08:18:18Z</time>
      </trkpt>
      <trkpt lat="47.34593" lon="0.08391">
        <ele>106.144531</ele>
        <time>2012-08-15T08:18:18Z</time>
      </trkpt>
      <trkpt lat="47.34505" lon="0.08345">
        <ele>107.390625</ele>
        <time>2012-08-15T08:18:18Z</time>
      </trkpt>
      <trkpt lat="47.34448" lon="0.08337">
        <ele>108</ele>
        <time>2012-08-15T08:18:18Z</time>
      </trkpt>
      <trkpt lat="47.34448" lon="0.0833">
        <ele>108</ele>
        <time>2012-08-15T08:18:18Z</time>
      </trkpt>
      <trkpt lat="47.34354" lon="0.08322">
        <ele>109</ele>
        <time>2012-08-15T08:18:18Z</time>
      </trkpt>
      <trkpt lat="47.34354" lon="0.0833">
        <ele>108.972656</ele>
        <time>2012-08-15T08:18:18Z</time>
      </trkpt>
      <trkpt lat="47.34297" lon="0.0826">
        <ele>109.695312</ele>
        <time>2012-08-15T08:18:18Z</time>
      </trkpt>
      <trkpt lat="47.34278" lon="0.08191">
        <ele>110</ele>
        <time>2012-08-15T08:18:18Z</time>
      </trkpt>
      <trkpt lat="47.34216" lon="0.08046">
        <ele>109</ele>
        <time>2012-08-15T08:18:18Z</time>
      </trkpt>
      <trkpt lat="47.34209" lon="0.0803">
        <ele>109</ele>
        <time>2012-08-15T08:18:18Z</time>
      </trkpt>
      <trkpt lat="47.34159" lon="0.07953">
        <ele>108</ele>
        <time>2012-08-15T08:18:18Z</time>
      </trkpt>
      <trkpt lat="47.34121" lon="0.07861">
        <ele>108</ele>
        <time>2012-08-15T08:18:18Z</time>
      </trkpt>
      <trkpt lat="47.34115" lon="0.07854">
        <ele>108</ele>
        <time>2012-08-15T08:18:18Z</time>
      </trkpt>
      <trkpt lat="47.34077" lon="0.07754">
        <ele>107</ele>
        <time>2012-08-15T08:18:18Z</time>
      </trkpt>
      <trkpt lat="47.34052" lon="0.07669">
        <ele>105.265625</ele>
        <time>2012-08-15T08:18:18Z</time>
      </trkpt>
      <trkpt lat="47.34014" lon="0.07616">
        <ele>105.210938</ele>
        <time>2012-08-15T08:18:18Z</time>
      </trkpt>
      <trkpt lat="47.34008" lon="0.07608">
        <ele>105.046875</ele>
        <time>2012-08-15T08:18:18Z</time>
      </trkpt>
      <trkpt lat="47.33945" lon="0.07562">
        <ele>104.394531</ele>
        <time>2012-08-15T08:18:18Z</time>
      </trkpt>
      <trkpt lat="47.33933" lon="0.07562">
        <ele>104.394531</ele>
        <time>2012-08-15T08:18:18Z</time>
      </trkpt>
      <trkpt lat="47.3387" lon="0.07562">
        <ele>104.484375</ele>
        <time>2012-08-15T08:18:18Z</time>
      </trkpt>
      <trkpt lat="47.33863" lon="0.07562">
        <ele>104.363281</ele>
        <time>2012-08-15T08:18:18Z</time>
      </trkpt>
      <trkpt lat="47.33775" lon="0.07524">
        <ele>101.761719</ele>
        <time>2012-08-15T08:18:18Z</time>
      </trkpt>
      <trkpt lat="47.33775" lon="0.07454">
        <ele>99.273438</ele>
        <time>2012-08-15T08:18:18Z</time>
      </trkpt>
      <trkpt lat="47.33775" lon="0.07439">
        <ele>98.71875</ele>
        <time>2012-08-15T08:18:18Z</time>
      </trkpt>
      <trkpt lat="47.33763" lon="0.07362">
        <ele>97.855469</ele>
        <time>2012-08-15T08:18:18Z</time>
      </trkpt>
      <trkpt lat="47.33719" lon="0.07247">
        <ele>102.941406</ele>
        <time>2012-08-15T08:18:18Z</time>
      </trkpt>
      <trkpt lat="47.33719" lon="0.07239">
        <ele>103.21875</ele>
        <time>2012-08-15T08:18:18Z</time>
      </trkpt>
      <trkpt lat="47.33694" lon="0.07193">
        <ele>103.976562</ele>
        <time>2012-08-15T08:18:18Z</time>
      </trkpt>
      <trkpt lat="47.33599" lon="0.07147">
        <ele>103.40625</ele>
        <time>2012-08-15T08:18:18Z</time>
      </trkpt>
      <trkpt lat="47.33599" lon="0.0714">
        <ele>103.40625</ele>
        <time>2012-08-15T08:18:18Z</time>
      </trkpt>
      <trkpt lat="47.33587" lon="0.07078">
        <ele>103.980469</ele>
        <time>2012-08-15T08:18:18Z</time>
      </trkpt>
      <trkpt lat="47.33555" lon="0.07032">
        <ele>104.507812</ele>
        <time>2012-08-15T08:18:18Z</time>
      </trkpt>
      <trkpt lat="47.33549" lon="0.07002">
        <ele>104.59375</ele>
        <time>2012-08-15T08:18:18Z</time>
      </trkpt>
      <trkpt lat="47.3358" lon="0.06948">
        <ele>105</ele>
        <time>2012-08-15T08:18:18Z</time>
      </trkpt>
      <trkpt lat="47.33625" lon="0.06894">
        <ele>106</ele>
        <time>2012-08-15T08:18:18Z</time>
      </trkpt>
      <trkpt lat="47.33675" lon="0.0681">
        <ele>105.296875</ele>
        <time>2012-08-15T08:18:18Z</time>
      </trkpt>
      <trkpt lat="47.33719" lon="0.06748">
        <ele>104.082031</ele>
        <time>2012-08-15T08:18:18Z</time>
      </trkpt>
      <trkpt lat="47.33656" lon="0.06717">
        <ele>104</ele>
        <time>2012-08-15T08:18:18Z</time>
      </trkpt>
      <trkpt lat="47.33593" lon="0.06671">
        <ele>103</ele>
        <time>2012-08-15T08:18:18Z</time>
      </trkpt>
      <trkpt lat="47.33587" lon="0.06671">
        <ele>102.96875</ele>
        <time>2012-08-15T08:18:18Z</time>
      </trkpt>
      <trkpt lat="47.33505" lon="0.06595">
        <ele>101.550781</ele>
        <time>2012-08-15T08:18:18Z</time>
      </trkpt>
      <trkpt lat="47.33442" lon="0.06526">
        <ele>101.015625</ele>
        <time>2012-08-15T08:18:18Z</time>
      </trkpt>
      <trkpt lat="47.33442" lon="0.06518">
        <ele>101</ele>
        <time>2012-08-15T08:18:18Z</time>
      </trkpt>
      <trkpt lat="47.3331" lon="0.06449">
        <ele>104</ele>
        <time>2012-08-15T08:18:18Z</time>
      </trkpt>
      <trkpt lat="47.33222" lon="0.06372">
        <ele>104.621094</ele>
        <time>2012-08-15T08:18:18Z</time>
      </trkpt>
      <trkpt lat="47.33084" lon="0.06334">
        <ele>106</ele>
        <time>2012-08-15T08:18:18Z</time>
      </trkpt>
      <trkpt lat="47.32927" lon="0.06288">
        <ele>106</ele>
        <time>2012-08-15T08:18:18Z</time>
      </trkpt>
      <trkpt lat="47.3292" lon="0.06288">
        <ele>106</ele>
        <time>2012-08-15T08:18:18Z</time>
      </trkpt>
      <trkpt lat="47.327" lon="0.06219">
        <ele>106</ele>
        <time>2012-08-15T08:18:18Z</time>
      </trkpt>
      <trkpt lat="47.32606" lon="0.06211">
        <ele>106</ele>
        <time>2012-08-15T08:18:18Z</time>
      </trkpt>
      <trkpt lat="47.32499" lon="0.06242">
        <ele>106</ele>
        <time>2012-08-15T08:18:18Z</time>
      </trkpt>
      <trkpt lat="47.32411" lon="0.06242">
        <ele>104.257812</ele>
        <time>2012-08-15T08:18:18Z</time>
      </trkpt>
      <trkpt lat="47.32357" lon="0.06255">
        <ele>90.02</ele>
        <time>2012-08-15T09:29:51Z</time>
      </trkpt>
      <trkpt lat="47.3235" lon="0.06251">
        <ele>89.54</ele>
        <time>2012-08-15T09:29:57Z</time>
      </trkpt>
      <trkpt lat="47.32341" lon="0.06251">
        <ele>90.02</ele>
        <time>2012-08-15T09:30:04Z</time>
      </trkpt>
      <trkpt lat="47.3234" lon="0.06251">
        <ele>90.02</ele>
        <time>2012-08-15T09:30:12Z</time>
      </trkpt>
      <trkpt lat="47.3234" lon="0.06251">
        <ele>89.06</ele>
        <time>2012-08-15T09:30:58Z</time>
      </trkpt>
      <trkpt lat="47.32334" lon="0.06251">
        <ele>88.58</ele>
        <time>2012-08-15T09:31:50Z</time>
      </trkpt>
      <trkpt lat="47.32313" lon="0.06246">
        <ele>89.54</ele>
        <time>2012-08-15T09:31:57Z</time>
      </trkpt>
      <trkpt lat="47.3228" lon="0.0624">
        <ele>90.02</ele>
        <time>2012-08-15T09:32:05Z</time>
      </trkpt>
      <trkpt lat="47.32268" lon="0.06237">
        <ele>90.02</ele>
        <time>2012-08-15T09:32:08Z</time>
      </trkpt>
      <trkpt lat="47.32264" lon="0.06236">
        <ele>89.54</ele>
        <time>2012-08-15T09:32:09Z</time>
      </trkpt>
      <trkpt lat="47.32221" lon="0.06222">
        <ele>90.5</ele>
        <time>2012-08-15T09:32:19Z</time>
      </trkpt>
      <trkpt lat="47.32217" lon="0.06221">
        <ele>90.98</ele>
        <time>2012-08-15T09:32:20Z</time>
      </trkpt>
      <trkpt lat="47.32171" lon="0.06205">
        <ele>92.42</ele>
        <time>2012-08-15T09:32:31Z</time>
      </trkpt>
      <trkpt lat="47.32137" lon="0.06189">
        <ele>93.87</ele>
        <time>2012-08-15T09:32:39Z</time>
      </trkpt>
      <trkpt lat="47.32114" lon="0.06177">
        <ele>94.35</ele>
        <time>2012-08-15T09:32:45Z</time>
      </trkpt>
      <trkpt lat="47.3209" lon="0.06164">
        <ele>94.35</ele>
        <time>2012-08-15T09:32:51Z</time>
      </trkpt>
      <trkpt lat="47.32062" lon="0.0615">
        <ele>92.42</ele>
        <time>2012-08-15T09:32:58Z</time>
      </trkpt>
      <trkpt lat="47.3204" lon="0.06138">
        <ele>92.9</ele>
        <time>2012-08-15T09:33:03Z</time>
      </trkpt>
      <trkpt lat="47.32036" lon="0.06136">
        <ele>92.42</ele>
        <time>2012-08-15T09:33:04Z</time>
      </trkpt>
      <trkpt lat="47.32003" lon="0.06117">
        <ele>91.46</ele>
        <time>2012-08-15T09:33:12Z</time>
      </trkpt>
      <trkpt lat="47.3197" lon="0.06101">
        <ele>89.54</ele>
        <time>2012-08-15T09:33:19Z</time>
      </trkpt>
      <trkpt lat="47.3194" lon="0.06084">
        <ele>89.54</ele>
        <time>2012-08-15T09:33:26Z</time>
      </trkpt>
      <trkpt lat="47.31916" lon="0.06071">
        <ele>89.06</ele>
        <time>2012-08-15T09:33:31Z</time>
      </trkpt>
      <trkpt lat="47.31912" lon="0.06068">
        <ele>89.06</ele>
        <time>2012-08-15T09:33:32Z</time>
      </trkpt>
      <trkpt lat="47.31906" lon="0.06065">
        <ele>89.54</ele>
        <time>2012-08-15T09:33:33Z</time>
      </trkpt>
      <trkpt lat="47.31874" lon="0.06049">
        <ele>89.54</ele>
        <time>2012-08-15T09:33:39Z</time>
      </trkpt>
      <trkpt lat="47.31864" lon="0.06038">
        <ele>90.5</ele>
        <time>2012-08-15T09:33:42Z</time>
      </trkpt>
      <trkpt lat="47.31843" lon="0.06019">
        <ele>89.06</ele>
        <time>2012-08-15T09:33:48Z</time>
      </trkpt>
      <trkpt lat="47.31823" lon="0.06004">
        <ele>89.06</ele>
        <time>2012-08-15T09:33:53Z</time>
      </trkpt>
      <trkpt lat="47.31817" lon="0.05999">
        <ele>88.58</ele>
        <time>2012-08-15T09:33:55Z</time>
      </trkpt>
      <trkpt lat="47.31814" lon="0.05994">
        <ele>88.58</ele>
        <time>2012-08-15T09:33:56Z</time>
      </trkpt>
      <trkpt lat="47.31812" lon="0.05989">
        <ele>89.06</ele>
        <time>2012-08-15T09:33:57Z</time>
      </trkpt>
      <trkpt lat="47.3181" lon="0.05985">
        <ele>88.58</ele>
        <time>2012-08-15T09:33:58Z</time>
      </trkpt>
      <trkpt lat="47.31806" lon="0.0598">
        <ele>89.06</ele>
        <time>2012-08-15T09:34:00Z</time>
      </trkpt>
      <trkpt lat="47.31804" lon="0.05978">
        <ele>88.58</ele>
        <time>2012-08-15T09:34:01Z</time>
      </trkpt>
      <trkpt lat="47.31801" lon="0.05975">
        <ele>89.06</ele>
        <time>2012-08-15T09:34:02Z</time>
      </trkpt>
      <trkpt lat="47.31799" lon="0.05971">
        <ele>89.06</ele>
        <time>2012-08-15T09:34:03Z</time>
      </trkpt>
      <trkpt lat="47.31797" lon="0.05967">
        <ele>88.58</ele>
        <time>2012-08-15T09:34:04Z</time>
      </trkpt>
      <trkpt lat="47.31794" lon="0.05964">
        <ele>88.1</ele>
        <time>2012-08-15T09:34:05Z</time>
      </trkpt>
      <trkpt lat="47.3178" lon="0.05934">
        <ele>89.06</ele>
        <time>2012-08-15T09:34:11Z</time>
      </trkpt>
      <trkpt lat="47.31777" lon="0.05929">
        <ele>87.62</ele>
        <time>2012-08-15T09:34:12Z</time>
      </trkpt>
      <trkpt lat="47.31768" lon="0.05912">
        <ele>88.1</ele>
        <time>2012-08-15T09:34:15Z</time>
      </trkpt>
      <trkpt lat="47.31755" lon="0.05883">
        <ele>87.14</ele>
        <time>2012-08-15T09:34:20Z</time>
      </trkpt>
      <trkpt lat="47.31742" lon="0.05851">
        <ele>87.14</ele>
        <time>2012-08-15T09:34:25Z</time>
      </trkpt>
      <trkpt lat="47.3174" lon="0.05845">
        <ele>87.14</ele>
        <time>2012-08-15T09:34:26Z</time>
      </trkpt>
      <trkpt lat="47.31734" lon="0.05833">
        <ele>86.66</ele>
        <time>2012-08-15T09:34:28Z</time>
      </trkpt>
      <trkpt lat="47.31732" lon="0.05827">
        <ele>85.69</ele>
        <time>2012-08-15T09:34:29Z</time>
      </trkpt>
      <trkpt lat="47.31729" lon="0.05821">
        <ele>86.66</ele>
        <time>2012-08-15T09:34:30Z</time>
      </trkpt>
      <trkpt lat="47.31723" lon="0.0581">
        <ele>86.18</ele>
        <time>2012-08-15T09:34:32Z</time>
      </trkpt>
      <trkpt lat="47.3171" lon="0.05783">
        <ele>86.18</ele>
        <time>2012-08-15T09:34:37Z</time>
      </trkpt>
      <trkpt lat="47.31708" lon="0.05778">
        <ele>86.18</ele>
        <time>2012-08-15T09:34:38Z</time>
      </trkpt>
      <trkpt lat="47.31694" lon="0.05746">
        <ele>86.18</ele>
        <time>2012-08-15T09:34:44Z</time>
      </trkpt>
      <trkpt lat="47.31686" lon="0.05724">
        <ele>86.66</ele>
        <time>2012-08-15T09:34:48Z</time>
      </trkpt>
      <trkpt lat="47.31684" lon="0.05701">
        <ele>85.21</ele>
        <time>2012-08-15T09:34:54Z</time>
      </trkpt>
      <trkpt lat="47.31676" lon="0.05689">
        <ele>86.18</ele>
        <time>2012-08-15T09:34:59Z</time>
      </trkpt>
      <trkpt lat="47.31673" lon="0.05688">
        <ele>85.21</ele>
        <time>2012-08-15T09:35:01Z</time>
      </trkpt>
      <trkpt lat="47.3166" lon="0.0568">
        <ele>86.66</ele>
        <time>2012-08-15T09:35:06Z</time>
      </trkpt>
      <trkpt lat="47.31633" lon="0.05664">
        <ele>84.73</ele>
        <time>2012-08-15T09:35:13Z</time>
      </trkpt>
      <trkpt lat="47.31608" lon="0.05654">
        <ele>83.29</ele>
        <time>2012-08-15T09:35:19Z</time>
      </trkpt>
      <trkpt lat="47.31587" lon="0.05643">
        <ele>81.85</ele>
        <time>2012-08-15T09:35:24Z</time>
      </trkpt>
      <trkpt lat="47.31556" lon="0.05629">
        <ele>80.41</ele>
        <time>2012-08-15T09:35:30Z</time>
      </trkpt>
      <trkpt lat="47.31544" lon="0.05624">
        <ele>78.97</ele>
        <time>2012-08-15T09:35:32Z</time>
      </trkpt>
      <trkpt lat="47.31519" lon="0.05607">
        <ele>76.56</ele>
        <time>2012-08-15T09:35:36Z</time>
      </trkpt>
      <trkpt lat="47.31486" lon="0.05591">
        <ele>73.2</ele>
        <time>2012-08-15T09:35:40Z</time>
      </trkpt>
      <trkpt lat="47.31452" lon="0.05578">
        <ele>66.47</ele>
        <time>2012-08-15T09:35:44Z</time>
      </trkpt>
      <trkpt lat="47.31435" lon="0.05569">
        <ele>63.58</ele>
        <time>2012-08-15T09:35:46Z</time>
      </trkpt>
      <trkpt lat="47.31421" lon="0.05562">
        <ele>60.7</ele>
        <time>2012-08-15T09:35:48Z</time>
      </trkpt>
      <trkpt lat="47.31412" lon="0.05555">
        <ele>59.74</ele>
        <time>2012-08-15T09:35:50Z</time>
      </trkpt>
      <trkpt lat="47.3141" lon="0.05547">
        <ele>59.26</ele>
        <time>2012-08-15T09:35:53Z</time>
      </trkpt>
      <trkpt lat="47.31415" lon="0.05543">
        <ele>59.74</ele>
        <time>2012-08-15T09:35:57Z</time>
      </trkpt>
      <trkpt lat="47.31418" lon="0.0553">
        <ele>59.74</ele>
        <time>2012-08-15T09:36:03Z</time>
      </trkpt>
      <trkpt lat="47.31427" lon="0.05512">
        <ele>60.7</ele>
        <time>2012-08-15T09:36:10Z</time>
      </trkpt>
      <trkpt lat="47.31434" lon="0.05499">
        <ele>62.62</ele>
        <time>2012-08-15T09:36:16Z</time>
      </trkpt>
      <trkpt lat="47.3145" lon="0.05478">
        <ele>63.1</ele>
        <time>2012-08-15T09:36:23Z</time>
      </trkpt>
      <trkpt lat="47.3146" lon="0.05458">
        <ele>64.07</ele>
        <time>2012-08-15T09:36:29Z</time>
      </trkpt>
      <trkpt lat="47.31467" lon="0.05438">
        <ele>64.55</ele>
        <time>2012-08-15T09:36:34Z</time>
      </trkpt>
      <trkpt lat="47.3147" lon="0.05421">
        <ele>63.58</ele>
        <time>2012-08-15T09:36:38Z</time>
      </trkpt>
      <trkpt lat="47.31475" lon="0.05396">
        <ele>65.51</ele>
        <time>2012-08-15T09:36:45Z</time>
      </trkpt>
      <trkpt lat="47.31481" lon="0.0538">
        <ele>66.47</ele>
        <time>2012-08-15T09:36:50Z</time>
      </trkpt>
      <trkpt lat="47.31486" lon="0.05364">
        <ele>67.91</ele>
        <time>2012-08-15T09:36:55Z</time>
      </trkpt>
      <trkpt lat="47.31491" lon="0.05333">
        <ele>69.35</ele>
        <time>2012-08-15T09:37:05Z</time>
      </trkpt>
      <trkpt lat="47.31499" lon="0.05319">
        <ele>69.83</ele>
        <time>2012-08-15T09:37:10Z</time>
      </trkpt>
      <trkpt lat="47.31505" lon="0.05301">
        <ele>72.24</ele>
        <time>2012-08-15T09:37:18Z</time>
      </trkpt>
      <trkpt lat="47.31508" lon="0.05292">
        <ele>72.24</ele>
        <time>2012-08-15T09:37:22Z</time>
      </trkpt>
      <trkpt lat="47.31515" lon="0.05275">
        <ele>73.68</ele>
        <time>2012-08-15T09:37:29Z</time>
      </trkpt>
      <trkpt lat="47.31515" lon="0.05261">
        <ele>74.64</ele>
        <time>2012-08-15T09:37:34Z</time>
      </trkpt>
      <trkpt lat="47.31512" lon="0.05245">
        <ele>75.6</ele>
        <time>2012-08-15T09:37:41Z</time>
      </trkpt>
      <trkpt lat="47.31504" lon="0.05234">
        <ele>76.08</ele>
        <time>2012-08-15T09:37:47Z</time>
      </trkpt>
      <trkpt lat="47.31494" lon="0.05218">
        <ele>78.48</ele>
        <time>2012-08-15T09:37:56Z</time>
      </trkpt>
      <trkpt lat="47.31481" lon="0.05201">
        <ele>79.93</ele>
        <time>2012-08-15T09:38:04Z</time>
      </trkpt>
      <trkpt lat="47.31468" lon="0.05183">
        <ele>80.89</ele>
        <time>2012-08-15T09:38:11Z</time>
      </trkpt>
      <trkpt lat="47.31456" lon="0.05164">
        <ele>82.33</ele>
        <time>2012-08-15T09:38:18Z</time>
      </trkpt>
      <trkpt lat="47.31442" lon="0.05143">
        <ele>83.29</ele>
        <time>2012-08-15T09:38:25Z</time>
      </trkpt>
      <trkpt lat="47.31422" lon="0.05114">
        <ele>85.21</ele>
        <time>2012-08-15T09:38:35Z</time>
      </trkpt>
      <trkpt lat="47.31407" lon="0.05086">
        <ele>86.18</ele>
        <time>2012-08-15T09:38:44Z</time>
      </trkpt>
      <trkpt lat="47.31392" lon="0.0506">
        <ele>86.18</ele>
        <time>2012-08-15T09:38:52Z</time>
      </trkpt>
      <trkpt lat="47.31377" lon="0.05035">
        <ele>85.21</ele>
        <time>2012-08-15T09:39:00Z</time>
      </trkpt>
      <trkpt lat="47.31359" lon="0.05003">
        <ele>83.77</ele>
        <time>2012-08-15T09:39:08Z</time>
      </trkpt>
      <trkpt lat="47.31336" lon="0.04963">
        <ele>81.37</ele>
        <time>2012-08-15T09:39:15Z</time>
      </trkpt>
      <trkpt lat="47.31322" lon="0.04938">
        <ele>78</ele>
        <time>2012-08-15T09:39:18Z</time>
      </trkpt>
      <trkpt lat="47.31305" lon="0.0491">
        <ele>75.6</ele>
        <time>2012-08-15T09:39:21Z</time>
      </trkpt>
      <trkpt lat="47.31281" lon="0.04868">
        <ele>71.27</ele>
        <time>2012-08-15T09:39:25Z</time>
      </trkpt>
      <trkpt lat="47.31274" lon="0.04856">
        <ele>70.79</ele>
        <time>2012-08-15T09:39:26Z</time>
      </trkpt>
      <trkpt lat="47.3126" lon="0.04832">
        <ele>67.43</ele>
        <time>2012-08-15T09:39:28Z</time>
      </trkpt>
      <trkpt lat="47.31245" lon="0.04806">
        <ele>64.07</ele>
        <time>2012-08-15T09:39:30Z</time>
      </trkpt>
      <trkpt lat="47.31238" lon="0.04792">
        <ele>62.62</ele>
        <time>2012-08-15T09:39:31Z</time>
      </trkpt>
      <trkpt lat="47.31217" lon="0.0474">
        <ele>57.82</ele>
        <time>2012-08-15T09:39:35Z</time>
      </trkpt>
      <trkpt lat="47.31202" lon="0.04712">
        <ele>57.82</ele>
        <time>2012-08-15T09:39:38Z</time>
      </trkpt>
      <trkpt lat="47.3119" lon="0.04694">
        <ele>55.89</ele>
        <time>2012-08-15T09:39:40Z</time>
      </trkpt>
      <trkpt lat="47.31173" lon="0.04666">
        <ele>54.45</ele>
        <time>2012-08-15T09:39:43Z</time>
      </trkpt>
      <trkpt lat="47.31167" lon="0.04659">
        <ele>55.41</ele>
        <time>2012-08-15T09:39:44Z</time>
      </trkpt>
      <trkpt lat="47.31156" lon="0.04636">
        <ele>54.45</ele>
        <time>2012-08-15T09:39:47Z</time>
      </trkpt>
      <trkpt lat="47.31151" lon="0.04622">
        <ele>54.45</ele>
        <time>2012-08-15T09:39:49Z</time>
      </trkpt>
      <trkpt lat="47.3114" lon="0.04599">
        <ele>54.45</ele>
        <time>2012-08-15T09:39:53Z</time>
      </trkpt>
      <trkpt lat="47.31118" lon="0.04566">
        <ele>55.89</ele>
        <time>2012-08-15T09:39:59Z</time>
      </trkpt>
      <trkpt lat="47.311" lon="0.04532">
        <ele>54.45</ele>
        <time>2012-08-15T09:40:05Z</time>
      </trkpt>
      <trkpt lat="47.3109" lon="0.04516">
        <ele>54.45</ele>
        <time>2012-08-15T09:40:08Z</time>
      </trkpt>
      <trkpt lat="47.31071" lon="0.04504">
        <ele>53.01</ele>
        <time>2012-08-15T09:40:12Z</time>
      </trkpt>
      <trkpt lat="47.31047" lon="0.04509">
        <ele>51.57</ele>
        <time>2012-08-15T09:40:17Z</time>
      </trkpt>
      <trkpt lat="47.31037" lon="0.04503">
        <ele>51.57</ele>
        <time>2012-08-15T09:40:20Z</time>
      </trkpt>
      <trkpt lat="47.31036" lon="0.0449">
        <ele>51.57</ele>
        <time>2012-08-15T09:40:23Z</time>
      </trkpt>
      <trkpt lat="47.31038" lon="0.04455">
        <ele>51.57</ele>
        <time>2012-08-15T09:40:29Z</time>
      </trkpt>
      <trkpt lat="47.31038" lon="0.04442">
        <ele>52.05</ele>
        <time>2012-08-15T09:40:31Z</time>
      </trkpt>
      <trkpt lat="47.31039" lon="0.04416">
        <ele>51.09</ele>
        <time>2012-08-15T09:40:35Z</time>
      </trkpt>
      <trkpt lat="47.3104" lon="0.04378">
        <ele>51.57</ele>
        <time>2012-08-15T09:40:40Z</time>
      </trkpt>
      <trkpt lat="47.31042" lon="0.0434">
        <ele>52.05</ele>
        <time>2012-08-15T09:40:45Z</time>
      </trkpt>
      <trkpt lat="47.31053" lon="0.0431">
        <ele>53.49</ele>
        <time>2012-08-15T09:40:51Z</time>
      </trkpt>
      <trkpt lat="47.31069" lon="0.04292">
        <ele>53.49</ele>
        <time>2012-08-15T09:40:57Z</time>
      </trkpt>
      <trkpt lat="47.31076" lon="0.04282">
        <ele>53.97</ele>
        <time>2012-08-15T09:41:00Z</time>
      </trkpt>
      <trkpt lat="47.3109" lon="0.04259">
        <ele>54.93</ele>
        <time>2012-08-15T09:41:07Z</time>
      </trkpt>
      <trkpt lat="47.31102" lon="0.04244">
        <ele>55.89</ele>
        <time>2012-08-15T09:41:11Z</time>
      </trkpt>
      <trkpt lat="47.31104" lon="0.04241">
        <ele>55.89</ele>
        <time>2012-08-15T09:41:12Z</time>
      </trkpt>
      <trkpt lat="47.31115" lon="0.0423">
        <ele>56.37</ele>
        <time>2012-08-15T09:41:17Z</time>
      </trkpt>
      <trkpt lat="47.31123" lon="0.04226">
        <ele>56.37</ele>
        <time>2012-08-15T09:41:20Z</time>
      </trkpt>
      <trkpt lat="47.31129" lon="0.04229">
        <ele>56.37</ele>
        <time>2012-08-15T09:41:26Z</time>
      </trkpt>
      <trkpt lat="47.31135" lon="0.04232">
        <ele>57.34</ele>
        <time>2012-08-15T09:41:47Z</time>
      </trkpt>
      <trkpt lat="47.31135" lon="0.04233">
        <ele>55.89</ele>
        <time>2012-08-15T09:42:03Z</time>
      </trkpt>
      <trkpt lat="47.31138" lon="0.04235">
        <ele>50.61</ele>
        <time>2012-08-15T09:43:58Z</time>
      </trkpt>
      <trkpt lat="47.31138" lon="0.04235">
        <ele>54.45</ele>
        <time>2012-08-15T09:43:59Z</time>
      </trkpt>
      <trkpt lat="47.31138" lon="0.04241">
        <ele>53.97</ele>
        <time>2012-08-15T09:44:38Z</time>
      </trkpt>
      <trkpt lat="47.31149" lon="0.04258">
        <ele>55.89</ele>
        <time>2012-08-15T09:44:44Z</time>
      </trkpt>
      <trkpt lat="47.31161" lon="0.04276">
        <ele>56.86</ele>
        <time>2012-08-15T09:44:50Z</time>
      </trkpt>
      <trkpt lat="47.31172" lon="0.043">
        <ele>57.34</ele>
        <time>2012-08-15T09:44:56Z</time>
      </trkpt>
      <trkpt lat="47.31183" lon="0.04321">
        <ele>58.3</ele>
        <time>2012-08-15T09:45:01Z</time>
      </trkpt>
      <trkpt lat="47.31192" lon="0.04344">
        <ele>59.26</ele>
        <time>2012-08-15T09:45:06Z</time>
      </trkpt>
      <trkpt lat="47.312" lon="0.04368">
        <ele>59.26</ele>
        <time>2012-08-15T09:45:11Z</time>
      </trkpt>
      <trkpt lat="47.31206" lon="0.04406">
        <ele>60.7</ele>
        <time>2012-08-15T09:45:18Z</time>
      </trkpt>
      <trkpt lat="47.3121" lon="0.04434">
        <ele>60.7</ele>
        <time>2012-08-15T09:45:24Z</time>
      </trkpt>
      <trkpt lat="47.31214" lon="0.04458">
        <ele>59.74</ele>
        <time>2012-08-15T09:45:29Z</time>
      </trkpt>
      <trkpt lat="47.31223" lon="0.04479">
        <ele>61.18</ele>
        <time>2012-08-15T09:45:33Z</time>
      </trkpt>
      <trkpt lat="47.3123" lon="0.04498">
        <ele>61.66</ele>
        <time>2012-08-15T09:45:38Z</time>
      </trkpt>
      <trkpt lat="47.31237" lon="0.04513">
        <ele>62.14</ele>
        <time>2012-08-15T09:45:44Z</time>
      </trkpt>
      <trkpt lat="47.31256" lon="0.04533">
        <ele>61.18</ele>
        <time>2012-08-15T09:45:52Z</time>
      </trkpt>
      <trkpt lat="47.31263" lon="0.0454">
        <ele>61.66</ele>
        <time>2012-08-15T09:45:55Z</time>
      </trkpt>
      <trkpt lat="47.31274" lon="0.04564">
        <ele>61.18</ele>
        <time>2012-08-15T09:46:01Z</time>
      </trkpt>
      <trkpt lat="47.31291" lon="0.04595">
        <ele>61.66</ele>
        <time>2012-08-15T09:46:08Z</time>
      </trkpt>
      <trkpt lat="47.31311" lon="0.04624">
        <ele>62.14</ele>
        <time>2012-08-15T09:46:14Z</time>
      </trkpt>
      <trkpt lat="47.31317" lon="0.04638">
        <ele>62.62</ele>
        <time>2012-08-15T09:46:19Z</time>
      </trkpt>
      <trkpt lat="47.31329" lon="0.04659">
        <ele>63.1</ele>
        <time>2012-08-15T09:46:25Z</time>
      </trkpt>
      <trkpt lat="47.31338" lon="0.04671">
        <ele>63.58</ele>
        <time>2012-08-15T09:46:28Z</time>
      </trkpt>
      <trkpt lat="47.31372" lon="0.04708">
        <ele>64.07</ele>
        <time>2012-08-15T09:46:35Z</time>
      </trkpt>
      <trkpt lat="47.31394" lon="0.04725">
        <ele>65.03</ele>
        <time>2012-08-15T09:46:40Z</time>
      </trkpt>
      <trkpt lat="47.31415" lon="0.04741">
        <ele>66.95</ele>
        <time>2012-08-15T09:46:47Z</time>
      </trkpt>
      <trkpt lat="47.31421" lon="0.04746">
        <ele>67.43</ele>
        <time>2012-08-15T09:46:49Z</time>
      </trkpt>
      <trkpt lat="47.31435" lon="0.04758">
        <ele>67.91</ele>
        <time>2012-08-15T09:46:55Z</time>
      </trkpt>
      <trkpt lat="47.31442" lon="0.04764">
        <ele>69.35</ele>
        <time>2012-08-15T09:46:59Z</time>
      </trkpt>
      <trkpt lat="47.31455" lon="0.04775">
        <ele>69.83</ele>
        <time>2012-08-15T09:47:05Z</time>
      </trkpt>
      <trkpt lat="47.31467" lon="0.04788">
        <ele>72.72</ele>
        <time>2012-08-15T09:47:12Z</time>
      </trkpt>
      <trkpt lat="47.31472" lon="0.04792">
        <ele>73.2</ele>
        <time>2012-08-15T09:47:15Z</time>
      </trkpt>
      <trkpt lat="47.31481" lon="0.04803">
        <ele>74.64</ele>
        <time>2012-08-15T09:47:21Z</time>
      </trkpt>
      <trkpt lat="47.31491" lon="0.04816">
        <ele>76.08</ele>
        <time>2012-08-15T09:47:28Z</time>
      </trkpt>
      <trkpt lat="47.31499" lon="0.04826">
        <ele>77.52</ele>
        <time>2012-08-15T09:47:33Z</time>
      </trkpt>
      <trkpt lat="47.31505" lon="0.04831">
        <ele>78.48</ele>
        <time>2012-08-15T09:47:37Z</time>
      </trkpt>
      <trkpt lat="47.31515" lon="0.04846">
        <ele>79.93</ele>
        <time>2012-08-15T09:47:44Z</time>
      </trkpt>
      <trkpt lat="47.31522" lon="0.04856">
        <ele>80.41</ele>
        <time>2012-08-15T09:47:49Z</time>
      </trkpt>
      <trkpt lat="47.31533" lon="0.04876">
        <ele>81.37</ele>
        <time>2012-08-15T09:47:56Z</time>
      </trkpt>
      <trkpt lat="47.31545" lon="0.049">
        <ele>81.85</ele>
        <time>2012-08-15T09:48:03Z</time>
      </trkpt>
      <trkpt lat="47.31555" lon="0.04918">
        <ele>81.37</ele>
        <time>2012-08-15T09:48:08Z</time>
      </trkpt>
      <trkpt lat="47.31572" lon="0.04948">
        <ele>81.37</ele>
        <time>2012-08-15T09:48:14Z</time>
      </trkpt>
      <trkpt lat="47.31587" lon="0.04973">
        <ele>80.41</ele>
        <time>2012-08-15T09:48:19Z</time>
      </trkpt>
      <trkpt lat="47.31614" lon="0.05023">
        <ele>78.97</ele>
        <time>2012-08-15T09:48:28Z</time>
      </trkpt>
      <trkpt lat="47.31618" lon="0.0503">
        <ele>78.48</ele>
        <time>2012-08-15T09:48:29Z</time>
      </trkpt>
      <trkpt lat="47.31636" lon="0.05071">
        <ele>76.08</ele>
        <time>2012-08-15T09:48:35Z</time>
      </trkpt>
      <trkpt lat="47.31646" lon="0.05092">
        <ele>75.12</ele>
        <time>2012-08-15T09:48:38Z</time>
      </trkpt>
      <trkpt lat="47.3167" lon="0.05126">
        <ele>74.16</ele>
        <time>2012-08-15T09:48:44Z</time>
      </trkpt>
      <trkpt lat="47.31678" lon="0.05147">
        <ele>74.64</ele>
        <time>2012-08-15T09:48:48Z</time>
      </trkpt>
      <trkpt lat="47.31686" lon="0.05164">
        <ele>74.16</ele>
        <time>2012-08-15T09:48:51Z</time>
      </trkpt>
      <trkpt lat="47.31708" lon="0.05208">
        <ele>74.64</ele>
        <time>2012-08-15T09:48:58Z</time>
      </trkpt>
      <trkpt lat="47.31711" lon="0.05215">
        <ele>74.64</ele>
        <time>2012-08-15T09:48:59Z</time>
      </trkpt>
      <trkpt lat="47.31725" lon="0.05241">
        <ele>73.68</ele>
        <time>2012-08-15T09:49:03Z</time>
      </trkpt>
      <trkpt lat="47.31736" lon="0.05261">
        <ele>73.68</ele>
        <time>2012-08-15T09:49:06Z</time>
      </trkpt>
      <trkpt lat="47.31746" lon="0.05281">
        <ele>73.68</ele>
        <time>2012-08-15T09:49:09Z</time>
      </trkpt>
      <trkpt lat="47.31752" lon="0.05294">
        <ele>73.68</ele>
        <time>2012-08-15T09:49:11Z</time>
      </trkpt>
      <trkpt lat="47.31762" lon="0.05323">
        <ele>73.2</ele>
        <time>2012-08-15T09:49:15Z</time>
      </trkpt>
      <trkpt lat="47.31782" lon="0.05356">
        <ele>71.76</ele>
        <time>2012-08-15T09:49:21Z</time>
      </trkpt>
      <trkpt lat="47.31795" lon="0.05367">
        <ele>70.31</ele>
        <time>2012-08-15T09:49:25Z</time>
      </trkpt>
      <trkpt lat="47.31812" lon="0.05374">
        <ele>68.87</ele>
        <time>2012-08-15T09:49:28Z</time>
      </trkpt>
      <trkpt lat="47.31834" lon="0.05386">
        <ele>68.87</ele>
        <time>2012-08-15T09:49:31Z</time>
      </trkpt>
      <trkpt lat="47.31851" lon="0.05393">
        <ele>68.39</ele>
        <time>2012-08-15T09:49:33Z</time>
      </trkpt>
      <trkpt lat="47.31893" lon="0.05419">
        <ele>68.39</ele>
        <time>2012-08-15T09:49:39Z</time>
      </trkpt>
      <trkpt lat="47.31906" lon="0.05429">
        <ele>68.39</ele>
        <time>2012-08-15T09:49:42Z</time>
      </trkpt>
      <trkpt lat="47.31919" lon="0.05441">
        <ele>67.91</ele>
        <time>2012-08-15T09:49:46Z</time>
      </trkpt>
      <trkpt lat="47.31929" lon="0.05449">
        <ele>66.95</ele>
        <time>2012-08-15T09:49:50Z</time>
      </trkpt>
      <trkpt lat="47.31952" lon="0.05466">
        <ele>66.47</ele>
        <time>2012-08-15T09:49:54Z</time>
      </trkpt>
      <trkpt lat="47.3199" lon="0.05499">
        <ele>66.47</ele>
        <time>2012-08-15T09:50:00Z</time>
      </trkpt>
      <trkpt lat="47.32014" lon="0.05519">
        <ele>65.99</ele>
        <time>2012-08-15T09:50:04Z</time>
      </trkpt>
      <trkpt lat="47.32037" lon="0.05536">
        <ele>66.47</ele>
        <time>2012-08-15T09:50:09Z</time>
      </trkpt>
      <trkpt lat="47.32042" lon="0.0554">
        <ele>65.51</ele>
        <time>2012-08-15T09:50:10Z</time>
      </trkpt>
      <trkpt lat="47.32051" lon="0.05544">
        <ele>66.47</ele>
        <time>2012-08-15T09:50:12Z</time>
      </trkpt>
      <trkpt lat="47.32069" lon="0.05547">
        <ele>65.99</ele>
        <time>2012-08-15T09:50:16Z</time>
      </trkpt>
      <trkpt lat="47.32081" lon="0.05534">
        <ele>65.03</ele>
        <time>2012-08-15T09:50:20Z</time>
      </trkpt>
      <trkpt lat="47.32087" lon="0.05525">
        <ele>64.07</ele>
        <time>2012-08-15T09:50:22Z</time>
      </trkpt>
      <trkpt lat="47.32106" lon="0.05495">
        <ele>63.1</ele>
        <time>2012-08-15T09:50:28Z</time>
      </trkpt>
      <trkpt lat="47.32112" lon="0.05488">
        <ele>62.14</ele>
        <time>2012-08-15T09:50:30Z</time>
      </trkpt>
      <trkpt lat="47.32127" lon="0.05459">
        <ele>61.66</ele>
        <time>2012-08-15T09:50:36Z</time>
      </trkpt>
      <trkpt lat="47.32121" lon="0.05422">
        <ele>61.18</ele>
        <time>2012-08-15T09:50:41Z</time>
      </trkpt>
      <trkpt lat="47.32122" lon="0.05394">
        <ele>60.7</ele>
        <time>2012-08-15T09:50:45Z</time>
      </trkpt>
      <trkpt lat="47.32125" lon="0.05365">
        <ele>60.7</ele>
        <time>2012-08-15T09:50:49Z</time>
      </trkpt>
      <trkpt lat="47.32141" lon="0.05307">
        <ele>59.74</ele>
        <time>2012-08-15T09:50:57Z</time>
      </trkpt>
      <trkpt lat="47.32149" lon="0.05287">
        <ele>59.74</ele>
        <time>2012-08-15T09:51:00Z</time>
      </trkpt>
      <trkpt lat="47.32154" lon="0.05274">
        <ele>59.26</ele>
        <time>2012-08-15T09:51:02Z</time>
      </trkpt>
      <trkpt lat="47.32168" lon="0.05244">
        <ele>59.26</ele>
        <time>2012-08-15T09:51:07Z</time>
      </trkpt>
      <trkpt lat="47.32174" lon="0.05224">
        <ele>59.26</ele>
        <time>2012-08-15T09:51:10Z</time>
      </trkpt>
      <trkpt lat="47.32187" lon="0.05191">
        <ele>59.74</ele>
        <time>2012-08-15T09:51:15Z</time>
      </trkpt>
      <trkpt lat="47.32192" lon="0.05176">
        <ele>60.22</ele>
        <time>2012-08-15T09:51:17Z</time>
      </trkpt>
      <trkpt lat="47.32198" lon="0.05153">
        <ele>60.22</ele>
        <time>2012-08-15T09:51:20Z</time>
      </trkpt>
      <trkpt lat="47.32199" lon="0.05137">
        <ele>59.74</ele>
        <time>2012-08-15T09:51:22Z</time>
      </trkpt>
      <trkpt lat="47.32213" lon="0.05101">
        <ele>58.78</ele>
        <time>2012-08-15T09:51:27Z</time>
      </trkpt>
      <trkpt lat="47.32234" lon="0.05057">
        <ele>59.74</ele>
        <time>2012-08-15T09:51:34Z</time>
      </trkpt>
      <trkpt lat="47.32245" lon="0.0504">
        <ele>59.74</ele>
        <time>2012-08-15T09:51:37Z</time>
      </trkpt>
      <trkpt lat="47.32261" lon="0.05017">
        <ele>58.3</ele>
        <time>2012-08-15T09:51:41Z</time>
      </trkpt>
      <trkpt lat="47.32267" lon="0.05004">
        <ele>58.3</ele>
        <time>2012-08-15T09:51:43Z</time>
      </trkpt>
      <trkpt lat="47.32276" lon="0.04977">
        <ele>58.78</ele>
        <time>2012-08-15T09:51:47Z</time>
      </trkpt>
      <trkpt lat="47.32283" lon="0.04904">
        <ele>58.3</ele>
        <time>2012-08-15T09:51:56Z</time>
      </trkpt>
      <trkpt lat="47.3229" lon="0.04871">
        <ele>58.3</ele>
        <time>2012-08-15T09:52:00Z</time>
      </trkpt>
      <trkpt lat="47.32297" lon="0.0484">
        <ele>57.34</ele>
        <time>2012-08-15T09:52:04Z</time>
      </trkpt>
      <trkpt lat="47.32303" lon="0.04822">
        <ele>57.34</ele>
        <time>2012-08-15T09:52:07Z</time>
      </trkpt>
      <trkpt lat="47.32308" lon="0.04796">
        <ele>56.37</ele>
        <time>2012-08-15T09:52:11Z</time>
      </trkpt>
      <trkpt lat="47.32309" lon="0.04772">
        <ele>56.86</ele>
        <time>2012-08-15T09:52:14Z</time>
      </trkpt>
      <trkpt lat="47.32312" lon="0.04724">
        <ele>56.37</ele>
        <time>2012-08-15T09:52:19Z</time>
      </trkpt>
      <trkpt lat="47.32312" lon="0.04715">
        <ele>55.89</ele>
        <time>2012-08-15T09:52:20Z</time>
      </trkpt>
      <trkpt lat="47.32317" lon="0.04672">
        <ele>55.89</ele>
        <time>2012-08-15T09:52:25Z</time>
      </trkpt>
      <trkpt lat="47.32329" lon="0.04633">
        <ele>55.41</ele>
        <time>2012-08-15T09:52:30Z</time>
      </trkpt>
      <trkpt lat="47.32332" lon="0.04618">
        <ele>54.45</ele>
        <time>2012-08-15T09:52:32Z</time>
      </trkpt>
      <trkpt lat="47.32342" lon="0.04577">
        <ele>54.45</ele>
        <time>2012-08-15T09:52:38Z</time>
      </trkpt>
      <trkpt lat="47.32347" lon="0.04561">
        <ele>53.97</ele>
        <time>2012-08-15T09:52:42Z</time>
      </trkpt>
      <trkpt lat="47.32345" lon="0.04535">
        <ele>53.97</ele>
        <time>2012-08-15T09:52:46Z</time>
      </trkpt>
      <trkpt lat="47.32349" lon="0.04518">
        <ele>54.45</ele>
        <time>2012-08-15T09:52:49Z</time>
      </trkpt>
      <trkpt lat="47.32349" lon="0.04507">
        <ele>53.97</ele>
        <time>2012-08-15T09:52:51Z</time>
      </trkpt>
      <trkpt lat="47.32364" lon="0.04473">
        <ele>53.97</ele>
        <time>2012-08-15T09:52:57Z</time>
      </trkpt>
      <trkpt lat="47.32366" lon="0.04469">
        <ele>53.97</ele>
        <time>2012-08-15T09:52:58Z</time>
      </trkpt>
      <trkpt lat="47.32373" lon="0.04439">
        <ele>53.97</ele>
        <time>2012-08-15T09:53:03Z</time>
      </trkpt>
      <trkpt lat="47.3238" lon="0.04396">
        <ele>54.93</ele>
        <time>2012-08-15T09:53:10Z</time>
      </trkpt>
      <trkpt lat="47.32382" lon="0.04375">
        <ele>54.45</ele>
        <time>2012-08-15T09:53:13Z</time>
      </trkpt>
      <trkpt lat="47.324" lon="0.04325">
        <ele>54.93</ele>
        <time>2012-08-15T09:53:21Z</time>
      </trkpt>
      <trkpt lat="47.32409" lon="0.04299">
        <ele>54.45</ele>
        <time>2012-08-15T09:53:26Z</time>
      </trkpt>
      <trkpt lat="47.32414" lon="0.04279">
        <ele>54.45</ele>
        <time>2012-08-15T09:53:29Z</time>
      </trkpt>
      <trkpt lat="47.32427" lon="0.04237">
        <ele>53.49</ele>
        <time>2012-08-15T09:53:36Z</time>
      </trkpt>
      <trkpt lat="47.32438" lon="0.04216">
        <ele>52.53</ele>
        <time>2012-08-15T09:53:41Z</time>
      </trkpt>
      <trkpt lat="47.32443" lon="0.04196">
        <ele>52.53</ele>
        <time>2012-08-15T09:53:45Z</time>
      </trkpt>
      <trkpt lat="47.32452" lon="0.04157">
        <ele>50.61</ele>
        <time>2012-08-15T09:53:50Z</time>
      </trkpt>
      <trkpt lat="47.32467" lon="0.04112">
        <ele>50.13</ele>
        <time>2012-08-15T09:53:56Z</time>
      </trkpt>
      <trkpt lat="47.32479" lon="0.04082">
        <ele>48.68</ele>
        <time>2012-08-15T09:54:01Z</time>
      </trkpt>
      <trkpt lat="47.32482" lon="0.04077">
        <ele>47.72</ele>
        <time>2012-08-15T09:54:02Z</time>
      </trkpt>
      <trkpt lat="47.3249" lon="0.04043">
        <ele>47.72</ele>
        <time>2012-08-15T09:54:07Z</time>
      </trkpt>
      <trkpt lat="47.32498" lon="0.04004">
        <ele>46.76</ele>
        <time>2012-08-15T09:54:12Z</time>
      </trkpt>
      <trkpt lat="47.325" lon="0.03988">
        <ele>45.8</ele>
        <time>2012-08-15T09:54:14Z</time>
      </trkpt>
      <trkpt lat="47.325" lon="0.03938">
        <ele>44.84</ele>
        <time>2012-08-15T09:54:20Z</time>
      </trkpt>
      <trkpt lat="47.32501" lon="0.03931">
        <ele>43.88</ele>
        <time>2012-08-15T09:54:21Z</time>
      </trkpt>
      <trkpt lat="47.32509" lon="0.03888">
        <ele>42.92</ele>
        <time>2012-08-15T09:54:27Z</time>
      </trkpt>
      <trkpt lat="47.32515" lon="0.03854">
        <ele>40.51</ele>
        <time>2012-08-15T09:54:31Z</time>
      </trkpt>
      <trkpt lat="47.32522" lon="0.03806">
        <ele>39.55</ele>
        <time>2012-08-15T09:54:37Z</time>
      </trkpt>
      <trkpt lat="47.32533" lon="0.03803">
        <ele>39.55</ele>
        <time>2012-08-15T09:54:39Z</time>
      </trkpt>
      <trkpt lat="47.32547" lon="0.038">
        <ele>40.51</ele>
        <time>2012-08-15T09:54:43Z</time>
      </trkpt>
      <trkpt lat="47.32566" lon="0.03801">
        <ele>40.03</ele>
        <time>2012-08-15T09:54:47Z</time>
      </trkpt>
      <trkpt lat="47.32577" lon="0.03802">
        <ele>40.99</ele>
        <time>2012-08-15T09:54:49Z</time>
      </trkpt>
      <trkpt lat="47.32597" lon="0.03812">
        <ele>41.47</ele>
        <time>2012-08-15T09:54:54Z</time>
      </trkpt>
      <trkpt lat="47.3261" lon="0.03821">
        <ele>41.95</ele>
        <time>2012-08-15T09:54:58Z</time>
      </trkpt>
      <trkpt lat="47.32629" lon="0.03835">
        <ele>41.95</ele>
        <time>2012-08-15T09:55:04Z</time>
      </trkpt>
      <trkpt lat="47.32639" lon="0.03846">
        <ele>42.92</ele>
        <time>2012-08-15T09:55:09Z</time>
      </trkpt>
      <trkpt lat="47.32648" lon="0.03855">
        <ele>43.4</ele>
        <time>2012-08-15T09:55:16Z</time>
      </trkpt>
      <trkpt lat="47.32662" lon="0.03864">
        <ele>44.84</ele>
        <time>2012-08-15T09:55:22Z</time>
      </trkpt>
      <trkpt lat="47.32679" lon="0.03876">
        <ele>46.28</ele>
        <time>2012-08-15T09:55:27Z</time>
      </trkpt>
      <trkpt lat="47.32698" lon="0.03891">
        <ele>46.28</ele>
        <time>2012-08-15T09:55:33Z</time>
      </trkpt>
      <trkpt lat="47.32712" lon="0.03901">
        <ele>47.72</ele>
        <time>2012-08-15T09:55:38Z</time>
      </trkpt>
      <trkpt lat="47.32717" lon="0.03902">
        <ele>47.72</ele>
        <time>2012-08-15T09:55:40Z</time>
      </trkpt>
      <trkpt lat="47.32741" lon="0.03887">
        <ele>49.16</ele>
        <time>2012-08-15T09:55:48Z</time>
      </trkpt>
      <trkpt lat="47.32761" lon="0.03867">
        <ele>48.68</ele>
        <time>2012-08-15T09:55:55Z</time>
      </trkpt>
      <trkpt lat="47.32778" lon="0.03848">
        <ele>47.72</ele>
        <time>2012-08-15T09:56:01Z</time>
      </trkpt>
      <trkpt lat="47.3278" lon="0.03843">
        <ele>47.24</ele>
        <time>2012-08-15T09:56:02Z</time>
      </trkpt>
      <trkpt lat="47.32801" lon="0.03809">
        <ele>46.76</ele>
        <time>2012-08-15T09:56:10Z</time>
      </trkpt>
      <trkpt lat="47.32811" lon="0.03786">
        <ele>45.8</ele>
        <time>2012-08-15T09:56:15Z</time>
      </trkpt>
      <trkpt lat="47.32821" lon="0.03763">
        <ele>44.36</ele>
        <time>2012-08-15T09:56:20Z</time>
      </trkpt>
      <trkpt lat="47.32828" lon="0.03749">
        <ele>43.88</ele>
        <time>2012-08-15T09:56:25Z</time>
      </trkpt>
      <trkpt lat="47.3284" lon="0.03753">
        <ele>44.36</ele>
        <time>2012-08-15T09:56:30Z</time>
      </trkpt>
      <trkpt lat="47.32846" lon="0.03752">
        <ele>45.32</ele>
        <time>2012-08-15T09:56:32Z</time>
      </trkpt>
      <trkpt lat="47.32858" lon="0.03749">
        <ele>45.32</ele>
        <time>2012-08-15T09:56:37Z</time>
      </trkpt>
      <trkpt lat="47.32873" lon="0.03758">
        <ele>47.24</ele>
        <time>2012-08-15T09:56:43Z</time>
      </trkpt>
      <trkpt lat="47.32884" lon="0.0376">
        <ele>49.65</ele>
        <time>2012-08-15T09:56:49Z</time>
      </trkpt>
      <trkpt lat="47.32895" lon="0.03765">
        <ele>50.13</ele>
        <time>2012-08-15T09:56:53Z</time>
      </trkpt>
      <trkpt lat="47.32909" lon="0.0377">
        <ele>51.09</ele>
        <time>2012-08-15T09:56:59Z</time>
      </trkpt>
      <trkpt lat="47.32927" lon="0.03774">
        <ele>53.01</ele>
        <time>2012-08-15T09:57:05Z</time>
      </trkpt>
      <trkpt lat="47.32941" lon="0.03782">
        <ele>53.97</ele>
        <time>2012-08-15T09:57:11Z</time>
      </trkpt>
      <trkpt lat="47.32949" lon="0.03785">
        <ele>55.89</ele>
        <time>2012-08-15T09:57:16Z</time>
      </trkpt>
      <trkpt lat="47.32963" lon="0.03779">
        <ele>57.34</ele>
        <time>2012-08-15T09:57:23Z</time>
      </trkpt>
      <trkpt lat="47.32971" lon="0.03777">
        <ele>58.3</ele>
        <time>2012-08-15T09:57:28Z</time>
      </trkpt>
      <trkpt lat="47.32987" lon="0.03782">
        <ele>59.26</ele>
        <time>2012-08-15T09:57:36Z</time>
      </trkpt>
      <trkpt lat="47.32989" lon="0.03782">
        <ele>60.7</ele>
        <time>2012-08-15T09:57:37Z</time>
      </trkpt>
      <trkpt lat="47.3301" lon="0.0379">
        <ele>60.7</ele>
        <time>2012-08-15T09:57:45Z</time>
      </trkpt>
      <trkpt lat="47.33021" lon="0.03794">
        <ele>61.18</ele>
        <time>2012-08-15T09:57:49Z</time>
      </trkpt>
      <trkpt lat="47.33027" lon="0.03798">
        <ele>61.18</ele>
        <time>2012-08-15T09:57:51Z</time>
      </trkpt>
      <trkpt lat="47.33035" lon="0.03799">
        <ele>61.18</ele>
        <time>2012-08-15T09:57:54Z</time>
      </trkpt>
      <trkpt lat="47.33044" lon="0.03776">
        <ele>59.74</ele>
        <time>2012-08-15T09:58:01Z</time>
      </trkpt>
      <trkpt lat="47.33045" lon="0.03742">
        <ele>56.37</ele>
        <time>2012-08-15T09:58:05Z</time>
      </trkpt>
      <trkpt lat="47.33053" lon="0.03704">
        <ele>51.57</ele>
        <time>2012-08-15T09:58:09Z</time>
      </trkpt>
      <trkpt lat="47.33055" lon="0.03694">
        <ele>52.05</ele>
        <time>2012-08-15T09:58:10Z</time>
      </trkpt>
      <trkpt lat="47.33059" lon="0.03681">
        <ele>48.68</ele>
        <time>2012-08-15T09:58:12Z</time>
      </trkpt>
      <trkpt lat="47.3306" lon="0.03674">
        <ele>47.72</ele>
        <time>2012-08-15T09:58:13Z</time>
      </trkpt>
      <trkpt lat="47.33065" lon="0.03651">
        <ele>44.84</ele>
        <time>2012-08-15T09:58:16Z</time>
      </trkpt>
      <trkpt lat="47.33071" lon="0.03625">
        <ele>40.99</ele>
        <time>2012-08-15T09:58:19Z</time>
      </trkpt>
      <trkpt lat="47.33077" lon="0.03607">
        <ele>39.55</ele>
        <time>2012-08-15T09:58:21Z</time>
      </trkpt>
      <trkpt lat="47.33081" lon="0.0359">
        <ele>36.67</ele>
        <time>2012-08-15T09:58:25Z</time>
      </trkpt>
      <trkpt lat="47.33089" lon="0.03568">
        <ele>35.71</ele>
        <time>2012-08-15T09:58:30Z</time>
      </trkpt>
      <trkpt lat="47.33103" lon="0.03529">
        <ele>35.23</ele>
        <time>2012-08-15T09:58:37Z</time>
      </trkpt>
      <trkpt lat="47.33107" lon="0.03515">
        <ele>33.3</ele>
        <time>2012-08-15T09:58:39Z</time>
      </trkpt>
      <trkpt lat="47.33117" lon="0.03491">
        <ele>32.82</ele>
        <time>2012-08-15T09:58:43Z</time>
      </trkpt>
      <trkpt lat="47.33137" lon="0.03448">
        <ele>31.38</ele>
        <time>2012-08-15T09:58:50Z</time>
      </trkpt>
      <trkpt lat="47.33171" lon="0.03392">
        <ele>29.94</ele>
        <time>2012-08-15T09:58:59Z</time>
      </trkpt>
      <trkpt lat="47.33201" lon="0.03344">
        <ele>29.94</ele>
        <time>2012-08-15T09:59:07Z</time>
      </trkpt>
      <trkpt lat="47.3323" lon="0.033">
        <ele>30.42</ele>
        <time>2012-08-15T09:59:15Z</time>
      </trkpt>
      <trkpt lat="47.33265" lon="0.03246">
        <ele>29.94</ele>
        <time>2012-08-15T09:59:25Z</time>
      </trkpt>
      <trkpt lat="47.33277" lon="0.03232">
        <ele>28.5</ele>
        <time>2012-08-15T09:59:28Z</time>
      </trkpt>
      <trkpt lat="47.33295" lon="0.03206">
        <ele>28.5</ele>
        <time>2012-08-15T09:59:34Z</time>
      </trkpt>
      <trkpt lat="47.333" lon="0.03197">
        <ele>28.5</ele>
        <time>2012-08-15T09:59:39Z</time>
      </trkpt>
      <trkpt lat="47.333" lon="0.03197">
        <ele>28.98</ele>
        <time>2012-08-15T10:00:02Z</time>
      </trkpt>
      <trkpt lat="47.333" lon="0.03197">
        <ele>28.02</ele>
        <time>2012-08-15T10:00:18Z</time>
      </trkpt>
      <trkpt lat="47.333" lon="0.03196">
        <ele>28.02</ele>
        <time>2012-08-15T10:01:12Z</time>
      </trkpt>
      <trkpt lat="47.333" lon="0.03196">
        <ele>28.98</ele>
        <time>2012-08-15T10:01:39Z</time>
      </trkpt>
      <trkpt lat="47.33293" lon="0.03179">
        <ele>29.46</ele>
        <time>2012-08-15T10:01:45Z</time>
      </trkpt>
      <trkpt lat="47.33291" lon="0.03176">
        <ele>29.94</ele>
        <time>2012-08-15T10:01:46Z</time>
      </trkpt>
      <trkpt lat="47.33268" lon="0.03139">
        <ele>30.42</ele>
        <time>2012-08-15T10:01:54Z</time>
      </trkpt>
      <trkpt lat="47.33236" lon="0.03088">
        <ele>28.98</ele>
        <time>2012-08-15T10:02:03Z</time>
      </trkpt>
      <trkpt lat="47.33201" lon="0.03026">
        <ele>28.02</ele>
        <time>2012-08-15T10:02:13Z</time>
      </trkpt>
      <trkpt lat="47.33176" lon="0.0298">
        <ele>28.98</ele>
        <time>2012-08-15T10:02:21Z</time>
      </trkpt>
      <trkpt lat="47.33168" lon="0.02965">
        <ele>29.46</ele>
        <time>2012-08-15T10:02:24Z</time>
      </trkpt>
      <trkpt lat="47.33169" lon="0.0295">
        <ele>28.5</ele>
        <time>2012-08-15T10:02:28Z</time>
      </trkpt>
      <trkpt lat="47.33175" lon="0.02943">
        <ele>27.53</ele>
        <time>2012-08-15T10:02:30Z</time>
      </trkpt>
      <trkpt lat="47.3321" lon="0.0289">
        <ele>28.98</ele>
        <time>2012-08-15T10:02:40Z</time>
      </trkpt>
      <trkpt lat="47.33224" lon="0.02866">
        <ele>28.02</ele>
        <time>2012-08-15T10:02:44Z</time>
      </trkpt>
      <trkpt lat="47.33241" lon="0.02857">
        <ele>27.05</ele>
        <time>2012-08-15T10:02:48Z</time>
      </trkpt>
      <trkpt lat="47.33249" lon="0.02864">
        <ele>27.05</ele>
        <time>2012-08-15T10:02:50Z</time>
      </trkpt>
      <trkpt lat="47.33278" lon="0.02902">
        <ele>26.09</ele>
        <time>2012-08-15T10:02:58Z</time>
      </trkpt>
      <trkpt lat="47.33297" lon="0.02914">
        <ele>27.05</ele>
        <time>2012-08-15T10:03:03Z</time>
      </trkpt>
      <trkpt lat="47.33306" lon="0.029">
        <ele>26.57</ele>
        <time>2012-08-15T10:03:06Z</time>
      </trkpt>
      <trkpt lat="47.33337" lon="0.02846">
        <ele>24.65</ele>
        <time>2012-08-15T10:03:15Z</time>
      </trkpt>
      <trkpt lat="47.33364" lon="0.02797">
        <ele>23.69</ele>
        <time>2012-08-15T10:03:23Z</time>
      </trkpt>
      <trkpt lat="47.33376" lon="0.0278">
        <ele>23.69</ele>
        <time>2012-08-15T10:03:26Z</time>
      </trkpt>
      <trkpt lat="47.3338" lon="0.02774">
        <ele>24.17</ele>
        <time>2012-08-15T10:03:27Z</time>
      </trkpt>
      <trkpt lat="47.33387" lon="0.02766">
        <ele>22.25</ele>
        <time>2012-08-15T10:03:29Z</time>
      </trkpt>
      <trkpt lat="47.33405" lon="0.02756">
        <ele>22.25</ele>
        <time>2012-08-15T10:03:34Z</time>
      </trkpt>
      <trkpt lat="47.33409" lon="0.02765">
        <ele>23.21</ele>
        <time>2012-08-15T10:03:36Z</time>
      </trkpt>
      <trkpt lat="47.3341" lon="0.02771">
        <ele>23.21</ele>
        <time>2012-08-15T10:03:37Z</time>
      </trkpt>
      <trkpt lat="47.33413" lon="0.02783">
        <ele>22.25</ele>
        <time>2012-08-15T10:03:39Z</time>
      </trkpt>
      <trkpt lat="47.33421" lon="0.02803">
        <ele>22.25</ele>
        <time>2012-08-15T10:03:42Z</time>
      </trkpt>
      <trkpt lat="47.33425" lon="0.02809">
        <ele>23.21</ele>
        <time>2012-08-15T10:03:43Z</time>
      </trkpt>
      <trkpt lat="47.33429" lon="0.02815">
        <ele>22.73</ele>
        <time>2012-08-15T10:03:44Z</time>
      </trkpt>
      <trkpt lat="47.33432" lon="0.02821">
        <ele>22.73</ele>
        <time>2012-08-15T10:03:45Z</time>
      </trkpt>
      <trkpt lat="47.33436" lon="0.02826">
        <ele>22.73</ele>
        <time>2012-08-15T10:03:46Z</time>
      </trkpt>
      <trkpt lat="47.33444" lon="0.02836">
        <ele>22.73</ele>
        <time>2012-08-15T10:03:48Z</time>
      </trkpt>
      <trkpt lat="47.3346" lon="0.02856">
        <ele>23.21</ele>
        <time>2012-08-15T10:03:52Z</time>
      </trkpt>
      <trkpt lat="47.33465" lon="0.02857">
        <ele>23.21</ele>
        <time>2012-08-15T10:03:53Z</time>
      </trkpt>
      <trkpt lat="47.33477" lon="0.02848">
        <ele>24.65</ele>
        <time>2012-08-15T10:03:56Z</time>
      </trkpt>
      <trkpt lat="47.33482" lon="0.02838">
        <ele>25.13</ele>
        <time>2012-08-15T10:03:58Z</time>
      </trkpt>
      <trkpt lat="47.33502" lon="0.02812">
        <ele>26.09</ele>
        <time>2012-08-15T10:04:04Z</time>
      </trkpt>
      <trkpt lat="47.33507" lon="0.02801">
        <ele>26.57</ele>
        <time>2012-08-15T10:04:06Z</time>
      </trkpt>
      <trkpt lat="47.33526" lon="0.02766">
        <ele>27.05</ele>
        <time>2012-08-15T10:04:13Z</time>
      </trkpt>
      <trkpt lat="47.33553" lon="0.02722">
        <ele>28.5</ele>
        <time>2012-08-15T10:04:22Z</time>
      </trkpt>
      <trkpt lat="47.33574" lon="0.02685">
        <ele>29.46</ele>
        <time>2012-08-15T10:04:30Z</time>
      </trkpt>
      <trkpt lat="47.33599" lon="0.02638">
        <ele>30.9</ele>
        <time>2012-08-15T10:04:40Z</time>
      </trkpt>
      <trkpt lat="47.33623" lon="0.02595">
        <ele>31.86</ele>
        <time>2012-08-15T10:04:49Z</time>
      </trkpt>
      <trkpt lat="47.33638" lon="0.02564">
        <ele>33.78</ele>
        <time>2012-08-15T10:04:55Z</time>
      </trkpt>
      <trkpt lat="47.33668" lon="0.02512">
        <ele>34.26</ele>
        <time>2012-08-15T10:05:06Z</time>
      </trkpt>
      <trkpt lat="47.33673" lon="0.02503">
        <ele>34.26</ele>
        <time>2012-08-15T10:05:08Z</time>
      </trkpt>
      <trkpt lat="47.33686" lon="0.02486">
        <ele>34.26</ele>
        <time>2012-08-15T10:05:12Z</time>
      </trkpt>
      <trkpt lat="47.33697" lon="0.02469">
        <ele>34.74</ele>
        <time>2012-08-15T10:05:16Z</time>
      </trkpt>
      <trkpt lat="47.33721" lon="0.02434">
        <ele>36.67</ele>
        <time>2012-08-15T10:05:24Z</time>
      </trkpt>
      <trkpt lat="47.33725" lon="0.02425">
        <ele>36.67</ele>
        <time>2012-08-15T10:05:26Z</time>
      </trkpt>
      <trkpt lat="47.33736" lon="0.02428">
        <ele>37.63</ele>
        <time>2012-08-15T10:05:31Z</time>
      </trkpt>
      <trkpt lat="47.33751" lon="0.02449">
        <ele>39.07</ele>
        <time>2012-08-15T10:05:37Z</time>
      </trkpt>
      <trkpt lat="47.33759" lon="0.02463">
        <ele>39.07</ele>
        <time>2012-08-15T10:05:41Z</time>
      </trkpt>
      <trkpt lat="47.3376" lon="0.02467">
        <ele>39.55</ele>
        <time>2012-08-15T10:05:43Z</time>
      </trkpt>
      <trkpt lat="47.3377" lon="0.02486">
        <ele>39.55</ele>
        <time>2012-08-15T10:05:49Z</time>
      </trkpt>
      <trkpt lat="47.33783" lon="0.02504">
        <ele>40.03</ele>
        <time>2012-08-15T10:05:53Z</time>
      </trkpt>
      <trkpt lat="47.338" lon="0.02525">
        <ele>40.99</ele>
        <time>2012-08-15T10:05:58Z</time>
      </trkpt>
      <trkpt lat="47.33802" lon="0.02529">
        <ele>40.51</ele>
        <time>2012-08-15T10:05:59Z</time>
      </trkpt>
      <trkpt lat="47.33813" lon="0.02541">
        <ele>41.95</ele>
        <time>2012-08-15T10:06:02Z</time>
      </trkpt>
      <trkpt lat="47.33832" lon="0.02565">
        <ele>41.95</ele>
        <time>2012-08-15T10:06:07Z</time>
      </trkpt>
      <trkpt lat="47.33852" lon="0.02591">
        <ele>43.4</ele>
        <time>2012-08-15T10:06:13Z</time>
      </trkpt>
      <trkpt lat="47.33864" lon="0.02629">
        <ele>42.44</ele>
        <time>2012-08-15T10:06:20Z</time>
      </trkpt>
      <trkpt lat="47.33874" lon="0.02655">
        <ele>42.44</ele>
        <time>2012-08-15T10:06:25Z</time>
      </trkpt>
      <trkpt lat="47.33885" lon="0.02675">
        <ele>41.95</ele>
        <time>2012-08-15T10:06:30Z</time>
      </trkpt>
      <trkpt lat="47.33905" lon="0.02684">
        <ele>42.44</ele>
        <time>2012-08-15T10:06:35Z</time>
      </trkpt>
      <trkpt lat="47.33913" lon="0.02688">
        <ele>42.44</ele>
        <time>2012-08-15T10:06:43Z</time>
      </trkpt>
      <trkpt lat="47.33913" lon="0.02688">
        <ele>42.92</ele>
        <time>2012-08-15T10:06:47Z</time>
      </trkpt>
      <trkpt lat="47.33915" lon="0.02687">
        <ele>42.92</ele>
        <time>2012-08-15T10:06:54Z</time>
      </trkpt>
      <trkpt lat="47.33921" lon="0.02684">
        <ele>43.4</ele>
        <time>2012-08-15T10:06:59Z</time>
      </trkpt>
      <trkpt lat="47.3393" lon="0.0268">
        <ele>43.88</ele>
        <time>2012-08-15T10:07:04Z</time>
      </trkpt>
      <trkpt lat="47.33943" lon="0.02671">
        <ele>43.4</ele>
        <time>2012-08-15T10:07:11Z</time>
      </trkpt>
      <trkpt lat="47.3395" lon="0.02663">
        <ele>45.8</ele>
        <time>2012-08-15T10:07:15Z</time>
      </trkpt>
      <trkpt lat="47.33955" lon="0.02653">
        <ele>45.8</ele>
        <time>2012-08-15T10:07:19Z</time>
      </trkpt>
      <trkpt lat="47.33967" lon="0.02642">
        <ele>46.28</ele>
        <time>2012-08-15T10:07:23Z</time>
      </trkpt>
      <trkpt lat="47.33989" lon="0.02619">
        <ele>49.16</ele>
        <time>2012-08-15T10:07:31Z</time>
      </trkpt>
      <trkpt lat="47.33992" lon="0.02612">
        <ele>49.16</ele>
        <time>2012-08-15T10:07:33Z</time>
      </trkpt>
      <trkpt lat="47.34008" lon="0.02588">
        <ele>50.61</ele>
        <time>2012-08-15T10:07:41Z</time>
      </trkpt>
      <trkpt lat="47.34019" lon="0.02566">
        <ele>51.09</ele>
        <time>2012-08-15T10:07:47Z</time>
      </trkpt>
      <trkpt lat="47.3402" lon="0.02563">
        <ele>52.05</ele>
        <time>2012-08-15T10:07:48Z</time>
      </trkpt>
      <trkpt lat="47.34033" lon="0.02546">
        <ele>52.53</ele>
        <time>2012-08-15T10:07:55Z</time>
      </trkpt>
      <trkpt lat="47.34039" lon="0.0253">
        <ele>52.05</ele>
        <time>2012-08-15T10:08:00Z</time>
      </trkpt>
      <trkpt lat="47.34046" lon="0.02521">
        <ele>53.97</ele>
        <time>2012-08-15T10:08:04Z</time>
      </trkpt>
      <trkpt lat="47.34057" lon="0.02504">
        <ele>55.41</ele>
        <time>2012-08-15T10:08:11Z</time>
      </trkpt>
      <trkpt lat="47.34063" lon="0.02499">
        <ele>55.89</ele>
        <time>2012-08-15T10:08:14Z</time>
      </trkpt>
      <trkpt lat="47.34069" lon="0.02492">
        <ele>57.34</ele>
        <time>2012-08-15T10:08:17Z</time>
      </trkpt>
      <trkpt lat="47.34082" lon="0.02476">
        <ele>57.82</ele>
        <time>2012-08-15T10:08:24Z</time>
      </trkpt>
      <trkpt lat="47.34089" lon="0.02466">
        <ele>59.26</ele>
        <time>2012-08-15T10:08:28Z</time>
      </trkpt>
      <trkpt lat="47.34097" lon="0.02453">
        <ele>60.7</ele>
        <time>2012-08-15T10:08:34Z</time>
      </trkpt>
      <trkpt lat="47.341" lon="0.0245">
        <ele>60.22</ele>
        <time>2012-08-15T10:08:36Z</time>
      </trkpt>
      <trkpt lat="47.3411" lon="0.02434">
        <ele>62.14</ele>
        <time>2012-08-15T10:08:43Z</time>
      </trkpt>
      <trkpt lat="47.3412" lon="0.02428">
        <ele>62.62</ele>
        <time>2012-08-15T10:08:48Z</time>
      </trkpt>
      <trkpt lat="47.34131" lon="0.02428">
        <ele>64.07</ele>
        <time>2012-08-15T10:08:53Z</time>
      </trkpt>
      <trkpt lat="47.34133" lon="0.02429">
        <ele>64.55</ele>
        <time>2012-08-15T10:08:55Z</time>
      </trkpt>
      <trkpt lat="47.3414" lon="0.02438">
        <ele>65.51</ele>
        <time>2012-08-15T10:09:00Z</time>
      </trkpt>
      <trkpt lat="47.34145" lon="0.02445">
        <ele>65.51</ele>
        <time>2012-08-15T10:09:04Z</time>
      </trkpt>
      <trkpt lat="47.34154" lon="0.02453">
        <ele>66.95</ele>
        <time>2012-08-15T10:09:09Z</time>
      </trkpt>
      <trkpt lat="47.34157" lon="0.02458">
        <ele>66.95</ele>
        <time>2012-08-15T10:09:12Z</time>
      </trkpt>
      <trkpt lat="47.34168" lon="0.02469">
        <ele>68.39</ele>
        <time>2012-08-15T10:09:20Z</time>
      </trkpt>
      <trkpt lat="47.3417" lon="0.02473">
        <ele>68.87</ele>
        <time>2012-08-15T10:09:22Z</time>
      </trkpt>
      <trkpt lat="47.3418" lon="0.02487">
        <ele>72.24</ele>
        <time>2012-08-15T10:09:30Z</time>
      </trkpt>
      <trkpt lat="47.34181" lon="0.0249">
        <ele>72.24</ele>
        <time>2012-08-15T10:09:32Z</time>
      </trkpt>
      <trkpt lat="47.3419" lon="0.02499">
        <ele>73.68</ele>
        <time>2012-08-15T10:09:38Z</time>
      </trkpt>
      <trkpt lat="47.34204" lon="0.02505">
        <ele>75.12</ele>
        <time>2012-08-15T10:09:44Z</time>
      </trkpt>
      <trkpt lat="47.34208" lon="0.02505">
        <ele>75.12</ele>
        <time>2012-08-15T10:09:46Z</time>
      </trkpt>
      <trkpt lat="47.34214" lon="0.025">
        <ele>76.56</ele>
        <time>2012-08-15T10:09:51Z</time>
      </trkpt>
      <trkpt lat="47.34227" lon="0.02487">
        <ele>77.52</ele>
        <time>2012-08-15T10:09:58Z</time>
      </trkpt>
      <trkpt lat="47.34235" lon="0.02479">
        <ele>78.48</ele>
        <time>2012-08-15T10:10:03Z</time>
      </trkpt>
      <trkpt lat="47.3424" lon="0.02476">
        <ele>78.97</ele>
        <time>2012-08-15T10:10:05Z</time>
      </trkpt>
      <trkpt lat="47.34256" lon="0.02458">
        <ele>79.93</ele>
        <time>2012-08-15T10:10:13Z</time>
      </trkpt>
      <trkpt lat="47.34263" lon="0.02455">
        <ele>80.41</ele>
        <time>2012-08-15T10:10:26Z</time>
      </trkpt>
      <trkpt lat="47.34264" lon="0.02454">
        <ele>80.41</ele>
        <time>2012-08-15T10:10:27Z</time>
      </trkpt>
      <trkpt lat="47.34274" lon="0.02439">
        <ele>81.37</ele>
        <time>2012-08-15T10:10:34Z</time>
      </trkpt>
      <trkpt lat="47.34285" lon="0.02426">
        <ele>82.33</ele>
        <time>2012-08-15T10:10:39Z</time>
      </trkpt>
      <trkpt lat="47.34288" lon="0.0242">
        <ele>82.81</ele>
        <time>2012-08-15T10:10:41Z</time>
      </trkpt>
      <trkpt lat="47.34307" lon="0.024">
        <ele>82.81</ele>
        <time>2012-08-15T10:10:49Z</time>
      </trkpt>
      <trkpt lat="47.34328" lon="0.02377">
        <ele>84.25</ele>
        <time>2012-08-15T10:10:56Z</time>
      </trkpt>
      <trkpt lat="47.34343" lon="0.02359">
        <ele>83.77</ele>
        <time>2012-08-15T10:11:01Z</time>
      </trkpt>
      <trkpt lat="47.34347" lon="0.0236">
        <ele>83.29</ele>
        <time>2012-08-15T10:11:03Z</time>
      </trkpt>
      <trkpt lat="47.34361" lon="0.02369">
        <ele>83.29</ele>
        <time>2012-08-15T10:11:10Z</time>
      </trkpt>
      <trkpt lat="47.34373" lon="0.02382">
        <ele>83.29</ele>
        <time>2012-08-15T10:11:14Z</time>
      </trkpt>
      <trkpt lat="47.34389" lon="0.02398">
        <ele>83.29</ele>
        <time>2012-08-15T10:11:19Z</time>
      </trkpt>
      <trkpt lat="47.34391" lon="0.02401">
        <ele>82.33</ele>
        <time>2012-08-15T10:11:20Z</time>
      </trkpt>
      <trkpt lat="47.34423" lon="0.02434">
        <ele>83.29</ele>
        <time>2012-08-15T10:11:28Z</time>
      </trkpt>
      <trkpt lat="47.34437" lon="0.02448">
        <ele>81.37</ele>
        <time>2012-08-15T10:11:31Z</time>
      </trkpt>
      <trkpt lat="47.34452" lon="0.02461">
        <ele>80.89</ele>
        <time>2012-08-15T10:11:35Z</time>
      </trkpt>
      <trkpt lat="47.34465" lon="0.02471">
        <ele>80.89</ele>
        <time>2012-08-15T10:11:39Z</time>
      </trkpt>
      <trkpt lat="47.34483" lon="0.0249">
        <ele>80.41</ele>
        <time>2012-08-15T10:11:45Z</time>
      </trkpt>
      <trkpt lat="47.34497" lon="0.02506">
        <ele>80.41</ele>
        <time>2012-08-15T10:11:51Z</time>
      </trkpt>
      <trkpt lat="47.34518" lon="0.02517">
        <ele>80.41</ele>
        <time>2012-08-15T10:11:56Z</time>
      </trkpt>
      <trkpt lat="47.3453" lon="0.02532">
        <ele>80.89</ele>
        <time>2012-08-15T10:12:01Z</time>
      </trkpt>
      <trkpt lat="47.3454" lon="0.02543">
        <ele>79.93</ele>
        <time>2012-08-15T10:12:05Z</time>
      </trkpt>
      <trkpt lat="47.34546" lon="0.02541">
        <ele>80.89</ele>
        <time>2012-08-15T10:12:09Z</time>
      </trkpt>
      <trkpt lat="47.34546" lon="0.02535">
        <ele>79.93</ele>
        <time>2012-08-15T10:12:11Z</time>
      </trkpt>
      <trkpt lat="47.34545" lon="0.02519">
        <ele>79.93</ele>
        <time>2012-08-15T10:12:14Z</time>
      </trkpt>
      <trkpt lat="47.34546" lon="0.02481">
        <ele>80.89</ele>
        <time>2012-08-15T10:12:20Z</time>
      </trkpt>
      <trkpt lat="47.34546" lon="0.02476">
        <ele>80.89</ele>
        <time>2012-08-15T10:12:21Z</time>
      </trkpt>
      <trkpt lat="47.34544" lon="0.02441">
        <ele>80.41</ele>
        <time>2012-08-15T10:12:27Z</time>
      </trkpt>
      <trkpt lat="47.34546" lon="0.02411">
        <ele>80.89</ele>
        <time>2012-08-15T10:12:31Z</time>
      </trkpt>
      <trkpt lat="47.34564" lon="0.02379">
        <ele>78.97</ele>
        <time>2012-08-15T10:12:36Z</time>
      </trkpt>
      <trkpt lat="47.3458" lon="0.02347">
        <ele>78</ele>
        <time>2012-08-15T10:12:40Z</time>
      </trkpt>
      <trkpt lat="47.34597" lon="0.02313">
        <ele>76.56</ele>
        <time>2012-08-15T10:12:43Z</time>
      </trkpt>
      <trkpt lat="47.34617" lon="0.02257">
        <ele>74.64</ele>
        <time>2012-08-15T10:12:48Z</time>
      </trkpt>
      <trkpt lat="47.3463" lon="0.02224">
        <ele>73.2</ele>
        <time>2012-08-15T10:12:51Z</time>
      </trkpt>
      <trkpt lat="47.34647" lon="0.02169">
        <ele>70.79</ele>
        <time>2012-08-15T10:12:56Z</time>
      </trkpt>
      <trkpt lat="47.34668" lon="0.02145">
        <ele>70.31</ele>
        <time>2012-08-15T10:13:00Z</time>
      </trkpt>
      <trkpt lat="47.34675" lon="0.02141">
        <ele>69.35</ele>
        <time>2012-08-15T10:13:01Z</time>
      </trkpt>
      <trkpt lat="47.34703" lon="0.02122">
        <ele>67.91</ele>
        <time>2012-08-15T10:13:05Z</time>
      </trkpt>
      <trkpt lat="47.34732" lon="0.02098">
        <ele>65.51</ele>
        <time>2012-08-15T10:13:09Z</time>
      </trkpt>
      <trkpt lat="47.34747" lon="0.02088">
        <ele>65.03</ele>
        <time>2012-08-15T10:13:11Z</time>
      </trkpt>
      <trkpt lat="47.3476" lon="0.02078">
        <ele>64.07</ele>
        <time>2012-08-15T10:13:13Z</time>
      </trkpt>
      <trkpt lat="47.3478" lon="0.02071">
        <ele>63.58</ele>
        <time>2012-08-15T10:13:16Z</time>
      </trkpt>
      <trkpt lat="47.34798" lon="0.02064">
        <ele>63.1</ele>
        <time>2012-08-15T10:13:19Z</time>
      </trkpt>
      <trkpt lat="47.3481" lon="0.02056">
        <ele>63.1</ele>
        <time>2012-08-15T10:13:21Z</time>
      </trkpt>
      <trkpt lat="47.34851" lon="0.02033">
        <ele>62.14</ele>
        <time>2012-08-15T10:13:27Z</time>
      </trkpt>
      <trkpt lat="47.34888" lon="0.02011">
        <ele>61.66</ele>
        <time>2012-08-15T10:13:32Z</time>
      </trkpt>
      <trkpt lat="47.3491" lon="0.01998">
        <ele>59.74</ele>
        <time>2012-08-15T10:13:35Z</time>
      </trkpt>
      <trkpt lat="47.3494" lon="0.01978">
        <ele>59.26</ele>
        <time>2012-08-15T10:13:39Z</time>
      </trkpt>
      <trkpt lat="47.34984" lon="0.01938">
        <ele>57.82</ele>
        <time>2012-08-15T10:13:46Z</time>
      </trkpt>
      <trkpt lat="47.35002" lon="0.0192">
        <ele>58.3</ele>
        <time>2012-08-15T10:13:49Z</time>
      </trkpt>
      <trkpt lat="47.3502" lon="0.01899">
        <ele>56.86</ele>
        <time>2012-08-15T10:13:52Z</time>
      </trkpt>
      <trkpt lat="47.35059" lon="0.01844">
        <ele>56.37</ele>
        <time>2012-08-15T10:13:59Z</time>
      </trkpt>
      <trkpt lat="47.35064" lon="0.01837">
        <ele>56.37</ele>
        <time>2012-08-15T10:14:00Z</time>
      </trkpt>
      <trkpt lat="47.35092" lon="0.01801">
        <ele>54.45</ele>
        <time>2012-08-15T10:14:05Z</time>
      </trkpt>
      <trkpt lat="47.35096" lon="0.01794">
        <ele>53.97</ele>
        <time>2012-08-15T10:14:06Z</time>
      </trkpt>
      <trkpt lat="47.351" lon="0.01786">
        <ele>53.97</ele>
        <time>2012-08-15T10:14:07Z</time>
      </trkpt>
      <trkpt lat="47.35104" lon="0.0178">
        <ele>53.49</ele>
        <time>2012-08-15T10:14:08Z</time>
      </trkpt>
      <trkpt lat="47.35108" lon="0.01773">
        <ele>53.01</ele>
        <time>2012-08-15T10:14:09Z</time>
      </trkpt>
      <trkpt lat="47.35112" lon="0.01768">
        <ele>53.01</ele>
        <time>2012-08-15T10:14:10Z</time>
      </trkpt>
      <trkpt lat="47.35117" lon="0.01763">
        <ele>53.01</ele>
        <time>2012-08-15T10:14:11Z</time>
      </trkpt>
      <trkpt lat="47.35121" lon="0.01758">
        <ele>53.49</ele>
        <time>2012-08-15T10:14:12Z</time>
      </trkpt>
      <trkpt lat="47.35126" lon="0.01754">
        <ele>52.53</ele>
        <time>2012-08-15T10:14:13Z</time>
      </trkpt>
      <trkpt lat="47.35131" lon="0.0175">
        <ele>53.01</ele>
        <time>2012-08-15T10:14:14Z</time>
      </trkpt>
      <trkpt lat="47.35135" lon="0.01747">
        <ele>53.49</ele>
        <time>2012-08-15T10:14:15Z</time>
      </trkpt>
      <trkpt lat="47.35139" lon="0.01744">
        <ele>52.53</ele>
        <time>2012-08-15T10:14:16Z</time>
      </trkpt>
      <trkpt lat="47.35142" lon="0.0174">
        <ele>52.05</ele>
        <time>2012-08-15T10:14:17Z</time>
      </trkpt>
      <trkpt lat="47.35144" lon="0.01737">
        <ele>52.05</ele>
        <time>2012-08-15T10:14:18Z</time>
      </trkpt>
      <trkpt lat="47.35146" lon="0.01733">
        <ele>53.01</ele>
        <time>2012-08-15T10:14:19Z</time>
      </trkpt>
      <trkpt lat="47.35146" lon="0.01728">
        <ele>52.53</ele>
        <time>2012-08-15T10:14:20Z</time>
      </trkpt>
      <trkpt lat="47.35145" lon="0.01723">
        <ele>52.53</ele>
        <time>2012-08-15T10:14:21Z</time>
      </trkpt>
      <trkpt lat="47.35143" lon="0.01716">
        <ele>52.53</ele>
        <time>2012-08-15T10:14:22Z</time>
      </trkpt>
      <trkpt lat="47.35141" lon="0.01711">
        <ele>53.01</ele>
        <time>2012-08-15T10:14:23Z</time>
      </trkpt>
      <trkpt lat="47.35138" lon="0.01706">
        <ele>53.01</ele>
        <time>2012-08-15T10:14:24Z</time>
      </trkpt>
      <trkpt lat="47.35135" lon="0.01701">
        <ele>53.01</ele>
        <time>2012-08-15T10:14:25Z</time>
      </trkpt>
      <trkpt lat="47.35109" lon="0.01663">
        <ele>53.97</ele>
        <time>2012-08-15T10:14:32Z</time>
      </trkpt>
      <trkpt lat="47.35107" lon="0.01656">
        <ele>53.97</ele>
        <time>2012-08-15T10:14:33Z</time>
      </trkpt>
      <trkpt lat="47.35107" lon="0.0165">
        <ele>54.45</ele>
        <time>2012-08-15T10:14:34Z</time>
      </trkpt>
      <trkpt lat="47.35107" lon="0.01644">
        <ele>53.01</ele>
        <time>2012-08-15T10:14:35Z</time>
      </trkpt>
      <trkpt lat="47.35109" lon="0.01634">
        <ele>53.49</ele>
        <time>2012-08-15T10:14:37Z</time>
      </trkpt>
      <trkpt lat="47.35111" lon="0.01625">
        <ele>53.97</ele>
        <time>2012-08-15T10:14:39Z</time>
      </trkpt>
      <trkpt lat="47.35109" lon="0.01612">
        <ele>53.01</ele>
        <time>2012-08-15T10:14:46Z</time>
      </trkpt>
      <trkpt lat="47.35106" lon="0.01604">
        <ele>53.49</ele>
        <time>2012-08-15T10:14:58Z</time>
      </trkpt>
      <trkpt lat="47.35106" lon="0.01602">
        <ele>53.49</ele>
        <time>2012-08-15T10:15:06Z</time>
      </trkpt>
      <trkpt lat="47.35109" lon="0.01597">
        <ele>53.01</ele>
        <time>2012-08-15T10:15:15Z</time>
      </trkpt>
      <trkpt lat="47.35112" lon="0.01591">
        <ele>53.49</ele>
        <time>2012-08-15T10:15:21Z</time>
      </trkpt>
      <trkpt lat="47.35112" lon="0.01591">
        <ele>52.53</ele>
        <time>2012-08-15T10:15:33Z</time>
      </trkpt>
      <trkpt lat="47.3511" lon="0.01587">
        <ele>52.05</ele>
        <time>2012-08-15T10:15:40Z</time>
      </trkpt>
      <trkpt lat="47.35107" lon="0.01577">
        <ele>53.01</ele>
        <time>2012-08-15T10:15:46Z</time>
      </trkpt>
      <trkpt lat="47.35099" lon="0.01564">
        <ele>53.49</ele>
        <time>2012-08-15T10:15:52Z</time>
      </trkpt>
      <trkpt lat="47.35091" lon="0.01544">
        <ele>54.45</ele>
        <time>2012-08-15T10:16:00Z</time>
      </trkpt>
      <trkpt lat="47.35089" lon="0.01537">
        <ele>55.89</ele>
        <time>2012-08-15T10:16:03Z</time>
      </trkpt>
      <trkpt lat="47.35081" lon="0.01516">
        <ele>56.37</ele>
        <time>2012-08-15T10:16:09Z</time>
      </trkpt>
      <trkpt lat="47.3508" lon="0.01491">
        <ele>57.82</ele>
        <time>2012-08-15T10:16:17Z</time>
      </trkpt>
      <trkpt lat="47.35083" lon="0.01476">
        <ele>57.82</ele>
        <time>2012-08-15T10:16:23Z</time>
      </trkpt>
      <trkpt lat="47.35085" lon="0.01467">
        <ele>58.78</ele>
        <time>2012-08-15T10:16:27Z</time>
      </trkpt>
      <trkpt lat="47.3508" lon="0.01454">
        <ele>60.22</ele>
        <time>2012-08-15T10:16:33Z</time>
      </trkpt>
      <trkpt lat="47.35072" lon="0.01446">
        <ele>61.18</ele>
        <time>2012-08-15T10:16:39Z</time>
      </trkpt>
      <trkpt lat="47.35057" lon="0.01444">
        <ele>61.18</ele>
        <time>2012-08-15T10:16:46Z</time>
      </trkpt>
      <trkpt lat="47.35056" lon="0.01445">
        <ele>61.66</ele>
        <time>2012-08-15T10:16:47Z</time>
      </trkpt>
      <trkpt lat="47.35049" lon="0.01451">
        <ele>60.7</ele>
        <time>2012-08-15T10:16:51Z</time>
      </trkpt>
      <trkpt lat="47.35042" lon="0.0145">
        <ele>61.18</ele>
        <time>2012-08-15T10:16:55Z</time>
      </trkpt>
      <trkpt lat="47.35032" lon="0.01436">
        <ele>61.18</ele>
        <time>2012-08-15T10:17:01Z</time>
      </trkpt>
      <trkpt lat="47.3503" lon="0.01433">
        <ele>61.18</ele>
        <time>2012-08-15T10:17:02Z</time>
      </trkpt>
      <trkpt lat="47.35019" lon="0.01413">
        <ele>62.62</ele>
        <time>2012-08-15T10:17:11Z</time>
      </trkpt>
      <trkpt lat="47.35014" lon="0.01396">
        <ele>63.1</ele>
        <time>2012-08-15T10:17:17Z</time>
      </trkpt>
      <trkpt lat="47.35006" lon="0.0138">
        <ele>63.58</ele>
        <time>2012-08-15T10:17:23Z</time>
      </trkpt>
      <trkpt lat="47.35001" lon="0.01362">
        <ele>64.07</ele>
        <time>2012-08-15T10:17:29Z</time>
      </trkpt>
      <trkpt lat="47.34988" lon="0.01343">
        <ele>65.03</ele>
        <time>2012-08-15T10:17:36Z</time>
      </trkpt>
      <trkpt lat="47.34984" lon="0.01324">
        <ele>66.47</ele>
        <time>2012-08-15T10:17:42Z</time>
      </trkpt>
      <trkpt lat="47.34983" lon="0.01321">
        <ele>65.99</ele>
        <time>2012-08-15T10:17:43Z</time>
      </trkpt>
      <trkpt lat="47.34979" lon="0.01304">
        <ele>66.47</ele>
        <time>2012-08-15T10:17:50Z</time>
      </trkpt>
      <trkpt lat="47.34974" lon="0.01294">
        <ele>66.47</ele>
        <time>2012-08-15T10:17:55Z</time>
      </trkpt>
      <trkpt lat="47.34959" lon="0.0128">
        <ele>67.43</ele>
        <time>2012-08-15T10:18:02Z</time>
      </trkpt>
      <trkpt lat="47.34948" lon="0.01275">
        <ele>67.91</ele>
        <time>2012-08-15T10:18:07Z</time>
      </trkpt>
      <trkpt lat="47.34939" lon="0.01264">
        <ele>67.43</ele>
        <time>2012-08-15T10:18:14Z</time>
      </trkpt>
      <trkpt lat="47.34932" lon="0.01256">
        <ele>67.43</ele>
        <time>2012-08-15T10:18:20Z</time>
      </trkpt>
      <trkpt lat="47.34929" lon="0.01251">
        <ele>67.91</ele>
        <time>2012-08-15T10:18:23Z</time>
      </trkpt>
      <trkpt lat="47.34932" lon="0.01233">
        <ele>68.87</ele>
        <time>2012-08-15T10:18:30Z</time>
      </trkpt>
      <trkpt lat="47.34936" lon="0.01223">
        <ele>69.83</ele>
        <time>2012-08-15T10:18:37Z</time>
      </trkpt>
      <trkpt lat="47.34937" lon="0.01221">
        <ele>69.83</ele>
        <time>2012-08-15T10:18:40Z</time>
      </trkpt>
      <trkpt lat="47.3494" lon="0.01216">
        <ele>70.31</ele>
        <time>2012-08-15T10:18:42Z</time>
      </trkpt>
      <trkpt lat="47.34953" lon="0.01196">
        <ele>70.79</ele>
        <time>2012-08-15T10:18:49Z</time>
      </trkpt>
      <trkpt lat="47.34966" lon="0.01178">
        <ele>71.76</ele>
        <time>2012-08-15T10:18:55Z</time>
      </trkpt>
      <trkpt lat="47.34975" lon="0.01159">
        <ele>71.76</ele>
        <time>2012-08-15T10:19:01Z</time>
      </trkpt>
      <trkpt lat="47.34982" lon="0.01148">
        <ele>71.76</ele>
        <time>2012-08-15T10:19:04Z</time>
      </trkpt>
      <trkpt lat="47.34995" lon="0.01137">
        <ele>70.79</ele>
        <time>2012-08-15T10:19:08Z</time>
      </trkpt>
      <trkpt lat="47.35011" lon="0.01123">
        <ele>70.31</ele>
        <time>2012-08-15T10:19:12Z</time>
      </trkpt>
      <trkpt lat="47.3504" lon="0.01094">
        <ele>69.35</ele>
        <time>2012-08-15T10:19:19Z</time>
      </trkpt>
      <trkpt lat="47.35051" lon="0.01058">
        <ele>67.91</ele>
        <time>2012-08-15T10:19:25Z</time>
      </trkpt>
      <trkpt lat="47.35059" lon="0.01038">
        <ele>66.95</ele>
        <time>2012-08-15T10:19:29Z</time>
      </trkpt>
      <trkpt lat="47.3507" lon="0.0102">
        <ele>65.99</ele>
        <time>2012-08-15T10:19:33Z</time>
      </trkpt>
      <trkpt lat="47.35078" lon="0.00999">
        <ele>65.51</ele>
        <time>2012-08-15T10:19:38Z</time>
      </trkpt>
      <trkpt lat="47.35086" lon="0.00981">
        <ele>64.07</ele>
        <time>2012-08-15T10:19:42Z</time>
      </trkpt>
      <trkpt lat="47.35117" lon="0.00946">
        <ele>60.22</ele>
        <time>2012-08-15T10:19:47Z</time>
      </trkpt>
      <trkpt lat="47.35157" lon="0.00888">
        <ele>54.93</ele>
        <time>2012-08-15T10:19:53Z</time>
      </trkpt>
      <trkpt lat="47.3519" lon="0.00852">
        <ele>50.61</ele>
        <time>2012-08-15T10:19:58Z</time>
      </trkpt>
      <trkpt lat="47.35194" lon="0.00845">
        <ele>50.61</ele>
        <time>2012-08-15T10:19:59Z</time>
      </trkpt>
      <trkpt lat="47.35195" lon="0.00823">
        <ele>49.16</ele>
        <time>2012-08-15T10:20:02Z</time>
      </trkpt>
      <trkpt lat="47.35208" lon="0.008">
        <ele>49.16</ele>
        <time>2012-08-15T10:20:06Z</time>
      </trkpt>
      <trkpt lat="47.35228" lon="0.00779">
        <ele>49.16</ele>
        <time>2012-08-15T10:20:10Z</time>
      </trkpt>
      <trkpt lat="47.35239" lon="0.00771">
        <ele>47.72</ele>
        <time>2012-08-15T10:20:12Z</time>
      </trkpt>
      <trkpt lat="47.35261" lon="0.00749">
        <ele>46.28</ele>
        <time>2012-08-15T10:20:17Z</time>
      </trkpt>
      <trkpt lat="47.35264" lon="0.00744">
        <ele>46.76</ele>
        <time>2012-08-15T10:20:18Z</time>
      </trkpt>
      <trkpt lat="47.35288" lon="0.00719">
        <ele>44.36</ele>
        <time>2012-08-15T10:20:22Z</time>
      </trkpt>
      <trkpt lat="47.35297" lon="0.00713">
        <ele>44.36</ele>
        <time>2012-08-15T10:20:23Z</time>
      </trkpt>
      <trkpt lat="47.35318" lon="0.00696">
        <ele>43.88</ele>
        <time>2012-08-15T10:20:26Z</time>
      </trkpt>
      <trkpt lat="47.35342" lon="0.00675">
        <ele>43.88</ele>
        <time>2012-08-15T10:20:30Z</time>
      </trkpt>
      <trkpt lat="47.35361" lon="0.00648">
        <ele>42.44</ele>
        <time>2012-08-15T10:20:35Z</time>
      </trkpt>
      <trkpt lat="47.35375" lon="0.0064">
        <ele>41.47</ele>
        <time>2012-08-15T10:20:37Z</time>
      </trkpt>
      <trkpt lat="47.35385" lon="0.00631">
        <ele>40.99</ele>
        <time>2012-08-15T10:20:39Z</time>
      </trkpt>
      <trkpt lat="47.35389" lon="0.00626">
        <ele>40.03</ele>
        <time>2012-08-15T10:20:40Z</time>
      </trkpt>
      <trkpt lat="47.35408" lon="0.00609">
        <ele>40.99</ele>
        <time>2012-08-15T10:20:44Z</time>
      </trkpt>
      <trkpt lat="47.35425" lon="0.00596">
        <ele>41.95</ele>
        <time>2012-08-15T10:20:48Z</time>
      </trkpt>
      <trkpt lat="47.35431" lon="0.0059">
        <ele>42.92</ele>
        <time>2012-08-15T10:20:50Z</time>
      </trkpt>
      <trkpt lat="47.35455" lon="0.00569">
        <ele>43.88</ele>
        <time>2012-08-15T10:20:55Z</time>
      </trkpt>
      <trkpt lat="47.35461" lon="0.00563">
        <ele>43.88</ele>
        <time>2012-08-15T10:20:57Z</time>
      </trkpt>
      <trkpt lat="47.35478" lon="0.00551">
        <ele>44.36</ele>
        <time>2012-08-15T10:21:02Z</time>
      </trkpt>
      <trkpt lat="47.35498" lon="0.00529">
        <ele>44.84</ele>
        <time>2012-08-15T10:21:08Z</time>
      </trkpt>
      <trkpt lat="47.35501" lon="0.00526">
        <ele>45.32</ele>
        <time>2012-08-15T10:21:09Z</time>
      </trkpt>
      <trkpt lat="47.3552" lon="0.00508">
        <ele>45.8</ele>
        <time>2012-08-15T10:21:14Z</time>
      </trkpt>
      <trkpt lat="47.35535" lon="0.00492">
        <ele>45.8</ele>
        <time>2012-08-15T10:21:19Z</time>
      </trkpt>
      <trkpt lat="47.35542" lon="0.00484">
        <ele>46.28</ele>
        <time>2012-08-15T10:21:21Z</time>
      </trkpt>
      <trkpt lat="47.35578" lon="0.00453">
        <ele>46.28</ele>
        <time>2012-08-15T10:21:27Z</time>
      </trkpt>
      <trkpt lat="47.35592" lon="0.00436">
        <ele>45.8</ele>
        <time>2012-08-15T10:21:30Z</time>
      </trkpt>
      <trkpt lat="47.35599" lon="0.00427">
        <ele>46.76</ele>
        <time>2012-08-15T10:21:32Z</time>
      </trkpt>
      <trkpt lat="47.35615" lon="0.00403">
        <ele>46.76</ele>
        <time>2012-08-15T10:21:38Z</time>
      </trkpt>
      <trkpt lat="47.35639" lon="0.0037">
        <ele>48.2</ele>
        <time>2012-08-15T10:21:45Z</time>
      </trkpt>
      <trkpt lat="47.35658" lon="0.00354">
        <ele>49.16</ele>
        <time>2012-08-15T10:21:49Z</time>
      </trkpt>
      <trkpt lat="47.35677" lon="0.00333">
        <ele>49.16</ele>
        <time>2012-08-15T10:21:54Z</time>
      </trkpt>
      <trkpt lat="47.3568" lon="0.0033">
        <ele>49.16</ele>
        <time>2012-08-15T10:21:55Z</time>
      </trkpt>
      <trkpt lat="47.35694" lon="0.00318">
        <ele>49.65</ele>
        <time>2012-08-15T10:21:59Z</time>
      </trkpt>
      <trkpt lat="47.35707" lon="0.003">
        <ele>49.65</ele>
        <time>2012-08-15T10:22:06Z</time>
      </trkpt>
      <trkpt lat="47.35708" lon="0.00299">
        <ele>49.16</ele>
        <time>2012-08-15T10:22:19Z</time>
      </trkpt>
      <trkpt lat="47.35709" lon="0.00298">
        <ele>48.2</ele>
        <time>2012-08-15T10:22:48Z</time>
      </trkpt>
      <trkpt lat="47.357" lon="0.00273">
        <ele>48.68</ele>
        <time>2012-08-15T10:22:55Z</time>
      </trkpt>
      <trkpt lat="47.35683" lon="0.0024">
        <ele>47.72</ele>
        <time>2012-08-15T10:23:02Z</time>
      </trkpt>
      <trkpt lat="47.35659" lon="0.00207">
        <ele>48.2</ele>
        <time>2012-08-15T10:23:09Z</time>
      </trkpt>
      <trkpt lat="47.35635" lon="0.00182">
        <ele>47.24</ele>
        <time>2012-08-15T10:23:15Z</time>
      </trkpt>
      <trkpt lat="47.35627" lon="0.00174">
        <ele>47.72</ele>
        <time>2012-08-15T10:23:17Z</time>
      </trkpt>
      <trkpt lat="47.3562" lon="0.00166">
        <ele>48.2</ele>
        <time>2012-08-15T10:23:19Z</time>
      </trkpt>
      <trkpt lat="47.35616" lon="0.00162">
        <ele>47.72</ele>
        <time>2012-08-15T10:23:20Z</time>
      </trkpt>
      <trkpt lat="47.35591" lon="0.00133">
        <ele>46.76</ele>
        <time>2012-08-15T10:23:27Z</time>
      </trkpt>
      <trkpt lat="47.35588" lon="0.00128">
        <ele>47.72</ele>
        <time>2012-08-15T10:23:28Z</time>
      </trkpt>
      <trkpt lat="47.3557" lon="0.00109">
        <ele>47.24</ele>
        <time>2012-08-15T10:23:33Z</time>
      </trkpt>
      <trkpt lat="47.35549" lon="0.00076">
        <ele>47.72</ele>
        <time>2012-08-15T10:23:40Z</time>
      </trkpt>
      <trkpt lat="47.35534" lon="0.00059">
        <ele>47.72</ele>
        <time>2012-08-15T10:23:44Z</time>
      </trkpt>
      <trkpt lat="47.35509" lon="0.00025">
        <ele>47.24</ele>
        <time>2012-08-15T10:23:51Z</time>
      </trkpt>
      <trkpt lat="47.35492" lon="1.0E-5">
        <ele>47.24</ele>
        <time>2012-08-15T10:23:56Z</time>
      </trkpt>
      <trkpt lat="47.35479" lon="-0.00018">
        <ele>47.24</ele>
        <time>2012-08-15T10:24:00Z</time>
      </trkpt>
      <trkpt lat="47.35465" lon="-0.00043">
        <ele>47.24</ele>
        <time>2012-08-15T10:24:06Z</time>
      </trkpt>
      <trkpt lat="47.35463" lon="-0.00048">
        <ele>47.24</ele>
        <time>2012-08-15T10:24:07Z</time>
      </trkpt>
      <trkpt lat="47.3545" lon="-0.00077">
        <ele>46.76</ele>
        <time>2012-08-15T10:24:13Z</time>
      </trkpt>
      <trkpt lat="47.35435" lon="-0.0011">
        <ele>46.76</ele>
        <time>2012-08-15T10:24:19Z</time>
      </trkpt>
      <trkpt lat="47.35426" lon="-0.00126">
        <ele>45.32</ele>
        <time>2012-08-15T10:24:22Z</time>
      </trkpt>
      <trkpt lat="47.35416" lon="-0.0015">
        <ele>44.36</ele>
        <time>2012-08-15T10:24:26Z</time>
      </trkpt>
      <trkpt lat="47.35413" lon="-0.00164">
        <ele>44.84</ele>
        <time>2012-08-15T10:24:28Z</time>
      </trkpt>
      <trkpt lat="47.35403" lon="-0.00199">
        <ele>44.84</ele>
        <time>2012-08-15T10:24:33Z</time>
      </trkpt>
      <trkpt lat="47.35394" lon="-0.0022">
        <ele>44.84</ele>
        <time>2012-08-15T10:24:36Z</time>
      </trkpt>
      <trkpt lat="47.35369" lon="-0.00259">
        <ele>41.95</ele>
        <time>2012-08-15T10:24:43Z</time>
      </trkpt>
      <trkpt lat="47.35356" lon="-0.00275">
        <ele>41.47</ele>
        <time>2012-08-15T10:24:47Z</time>
      </trkpt>
      <trkpt lat="47.35333" lon="-0.00301">
        <ele>39.55</ele>
        <time>2012-08-15T10:24:53Z</time>
      </trkpt>
      <trkpt lat="47.35328" lon="-0.00306">
        <ele>38.59</ele>
        <time>2012-08-15T10:24:54Z</time>
      </trkpt>
      <trkpt lat="47.35306" lon="-0.00329">
        <ele>37.63</ele>
        <time>2012-08-15T10:24:59Z</time>
      </trkpt>
      <trkpt lat="47.35276" lon="-0.0036">
        <ele>35.23</ele>
        <time>2012-08-15T10:25:05Z</time>
      </trkpt>
      <trkpt lat="47.35256" lon="-0.00382">
        <ele>33.3</ele>
        <time>2012-08-15T10:25:10Z</time>
      </trkpt>
      <trkpt lat="47.35227" lon="-0.00406">
        <ele>31.38</ele>
        <time>2012-08-15T10:25:16Z</time>
      </trkpt>
      <trkpt lat="47.35218" lon="-0.00414">
        <ele>30.9</ele>
        <time>2012-08-15T10:25:18Z</time>
      </trkpt>
      <trkpt lat="47.3521" lon="-0.00422">
        <ele>30.9</ele>
        <time>2012-08-15T10:25:20Z</time>
      </trkpt>
      <trkpt lat="47.35166" lon="-0.00471">
        <ele>28.02</ele>
        <time>2012-08-15T10:25:30Z</time>
      </trkpt>
      <trkpt lat="47.35146" lon="-0.00499">
        <ele>28.02</ele>
        <time>2012-08-15T10:25:35Z</time>
      </trkpt>
      <trkpt lat="47.35137" lon="-0.00511">
        <ele>28.98</ele>
        <time>2012-08-15T10:25:37Z</time>
      </trkpt>
      <trkpt lat="47.35111" lon="-0.0054">
        <ele>29.94</ele>
        <time>2012-08-15T10:25:43Z</time>
      </trkpt>
      <trkpt lat="47.35078" lon="-0.00573">
        <ele>27.53</ele>
        <time>2012-08-15T10:25:51Z</time>
      </trkpt>
      <trkpt lat="47.35054" lon="-0.00599">
        <ele>27.53</ele>
        <time>2012-08-15T10:25:57Z</time>
      </trkpt>
      <trkpt lat="47.35057" lon="-0.00614">
        <ele>27.05</ele>
        <time>2012-08-15T10:26:02Z</time>
      </trkpt>
      <trkpt lat="47.35074" lon="-0.00635">
        <ele>27.05</ele>
        <time>2012-08-15T10:26:09Z</time>
      </trkpt>
      <trkpt lat="47.35101" lon="-0.00662">
        <ele>27.05</ele>
        <time>2012-08-15T10:26:17Z</time>
      </trkpt>
      <trkpt lat="47.35128" lon="-0.00685">
        <ele>26.57</ele>
        <time>2012-08-15T10:26:26Z</time>
      </trkpt>
      <trkpt lat="47.35135" lon="-0.00688">
        <ele>28.02</ele>
        <time>2012-08-15T10:26:28Z</time>
      </trkpt>
      <trkpt lat="47.35157" lon="-0.007">
        <ele>29.46</ele>
        <time>2012-08-15T10:26:35Z</time>
      </trkpt>
      <trkpt lat="47.35174" lon="-0.00716">
        <ele>29.94</ele>
        <time>2012-08-15T10:26:42Z</time>
      </trkpt>
      <trkpt lat="47.35191" lon="-0.00732">
        <ele>31.86</ele>
        <time>2012-08-15T10:26:50Z</time>
      </trkpt>
      <trkpt lat="47.35192" lon="-0.00734">
        <ele>31.86</ele>
        <time>2012-08-15T10:26:51Z</time>
      </trkpt>
      <trkpt lat="47.35205" lon="-0.00747">
        <ele>32.82</ele>
        <time>2012-08-15T10:26:58Z</time>
      </trkpt>
      <trkpt lat="47.3522" lon="-0.00761">
        <ele>33.78</ele>
        <time>2012-08-15T10:27:06Z</time>
      </trkpt>
      <trkpt lat="47.35224" lon="-0.00764">
        <ele>32.82</ele>
        <time>2012-08-15T10:27:08Z</time>
      </trkpt>
      <trkpt lat="47.35231" lon="-0.0077">
        <ele>34.74</ele>
        <time>2012-08-15T10:27:12Z</time>
      </trkpt>
      <trkpt lat="47.35243" lon="-0.00781">
        <ele>35.71</ele>
        <time>2012-08-15T10:27:18Z</time>
      </trkpt>
      <trkpt lat="47.35256" lon="-0.00789">
        <ele>37.63</ele>
        <time>2012-08-15T10:27:25Z</time>
      </trkpt>
      <trkpt lat="47.3526" lon="-0.00797">
        <ele>38.11</ele>
        <time>2012-08-15T10:27:29Z</time>
      </trkpt>
      <trkpt lat="47.35256" lon="-0.00808">
        <ele>38.11</ele>
        <time>2012-08-15T10:27:33Z</time>
      </trkpt>
      <trkpt lat="47.35238" lon="-0.00839">
        <ele>39.55</ele>
        <time>2012-08-15T10:27:44Z</time>
      </trkpt>
      <trkpt lat="47.35225" lon="-0.00861">
        <ele>40.03</ele>
        <time>2012-08-15T10:27:52Z</time>
      </trkpt>
      <trkpt lat="47.35217" lon="-0.00882">
        <ele>40.51</ele>
        <time>2012-08-15T10:27:59Z</time>
      </trkpt>
      <trkpt lat="47.35201" lon="-0.00912">
        <ele>40.51</ele>
        <time>2012-08-15T10:28:09Z</time>
      </trkpt>
      <trkpt lat="47.35186" lon="-0.00941">
        <ele>40.03</ele>
        <time>2012-08-15T10:28:19Z</time>
      </trkpt>
      <trkpt lat="47.35174" lon="-0.00961">
        <ele>39.55</ele>
        <time>2012-08-15T10:28:26Z</time>
      </trkpt>
      <trkpt lat="47.35159" lon="-0.00996">
        <ele>40.03</ele>
        <time>2012-08-15T10:28:36Z</time>
      </trkpt>
      <trkpt lat="47.35145" lon="-0.01028">
        <ele>40.03</ele>
        <time>2012-08-15T10:28:45Z</time>
      </trkpt>
      <trkpt lat="47.35143" lon="-0.01042">
        <ele>39.07</ele>
        <time>2012-08-15T10:28:49Z</time>
      </trkpt>
      <trkpt lat="47.35147" lon="-0.01048">
        <ele>40.03</ele>
        <time>2012-08-15T10:28:52Z</time>
      </trkpt>
      <trkpt lat="47.35145" lon="-0.01066">
        <ele>39.07</ele>
        <time>2012-08-15T10:28:57Z</time>
      </trkpt>
    </trkseg>
  </trk>
</gpx>